GFSSW_850_dewp_012.txt.gz
Dewpoint
-7 -8 -9 -9 -8 -7 -6 -6 -4 -4 -5 -4 -3 -5 -6 -11 -16 -15 -12 -9 -4 -11 -9 -2 -11 -5 -5 -7 -9 -13 -11 -9 -8 -7 6 7 7 6 4 1 5 5 3 9 13
-7 -8 -9 -8 -7 -6 -6 -4 -4 -5 -5 -3 -3 -5 -8 -14 -13 -10 -1 -10 -9 -11 -7 -3 -5 -7 -6 -8 -9 -12 -9 -7 3 5 6 7 8 5 1 4 7 9 7 12 13
-6 -8 -8 -8 -6 -6 -4 -3 -4 -5 -4 -3 -4 -7 -12 -13 1 1 -3 -13 -10 -13 -10 -5 -7 -7 -8 -10 -10 -11 -9 -9 5 5 3 4 6 2 3 6 8 10 11 12 12
-6 -8 -8 -6 -5 -4 -3 -3 -3 -4 -3 -3 -5 -9 -12 -11 2 1 -4 -13 -14 -12 -6 -4 -9 -9 -9 -8 -10 -10 -12 -9 2 1 3 1 2 2 3 6 4 8 10 12 12
-7 -8 -7 -6 -4 -2 -2 -2 -3 -3 -3 -3 -6 -11 -12 5 2 -2 -5 -6 -13 -8 -2 -7 -10 -10 -8 -9 -11 -10 -9 -10 -8 -6 -4 -1 -0 2 2 2 5 7 7 10 11
-7 -7 -6 -5 -3 -1 -1 -2 -3 -3 -3 -4 -7 -10 -7 2 -3 -0 -6 -7 -8 -6 -4 -8 -8 -9 -9 -11 -11 -10 -9 -12 -10 -8 -0 -0 0 0 3 5 7 6 6 8 8
-5 -6 -6 -4 -1 -1 -1 -2 -3 -4 -3 -5 -9 -10 2 -0 -2 1 -2 -5 -3 -6 -6 -8 -8 -8 -8 -6 -9 -8 -8 -11 -7 -7 -3 1 -1 -1 3 5 5 4 4 5 5
-4 -5 -5 -2 -0 -1 -1 -2 -3 -4 -5 -8 -10 -8 4 -1 -3 -2 -0 -1 -2 -4 -4 -5 -4 -5 -5 -5 -8 -9 -10 -8 -4 -5 -7 -9 -3 -2 3 3 3 3 3 3 3
-1 -4 -4 -1 0 0 -0 -3 -5 -6 -8 -9 -6 1 2 -1 -4 -5 -4 -3 -4 -3 -3 -4 -4 -4 -4 -3 -7 -7 -6 -1 -3 -5 -11 -15 -5 -4 1 2 2 3 3 4 3
1 -3 -3 0 1 1 -0 -4 -7 -8 -7 -6 -4 4 -4 -4 -6 -6 -6 -5 -4 -3 -3 -4 -5 -3 -3 -5 -5 -5 -6 -4 -5 -8 -16 -14 -6 -5 -2 4 8 3 3 4 4
2 -2 -2 1 1 1 -1 -6 4 5 4 -0 -0 -2 -6 -7 -5 -5 -8 -7 -5 -3 -3 -4 -3 -2 -5 -4 -5 -6 -7 -8 -9 -14 -14 -7 -6 -5 -4 2 3 3 4 4 5
3 -2 -2 2 2 2 -1 4 5 7 6 1 -6 -1 -2 -3 -5 -7 -8 -8 -5 -4 -7 -5 -2 -5 -5 -6 -5 -7 -7 -10 -11 -12 -11 -10 -7 -6 -5 -4 -1 1 3 4 5
4 -1 -2 2 2 1 -2 -5 5 5 6 1 -7 -5 -4 -5 -6 -9 -8 -8 -7 -6 -6 1 -1 -6 -6 -5 -5 -8 -7 -5 -7 -11 -11 -0 -3 -5 -5 -4 -3 -2 -0 2 4
4 0 -2 2 2 0 -2 -6 -2 2 6 -0 -4 -4 -4 -5 -6 -10 -8 -9 -8 -6 -5 2 -1 -5 -6 -7 -9 -1 -2 -6 -3 1 -4 -1 3 6 3 -3 -1 -1 0 1 3
4 1 -2 3 7 5 8 4 6 9 7 -3 -4 -5 -6 -7 -8 -9 -8 -7 -6 -7 -2 -3 -5 -5 -5 -4 -5 -1 -2 -3 -6 -4 -1 2 2 5 3 2 0 1 1 2 4
5 1 -0 4 3 2 7 8 10 10 7 -4 -6 -5 -6 -7 -8 -8 -8 -8 -9 -6 -5 -1 -4 -4 -3 -5 -5 -3 -3 -2 -7 -4 7 2 4 5 5 2 3 -0 2 3 4
5 3 -1 4 5 4 4 11 9 6 -4 -4 -5 -6 -6 -6 -7 -7 -6 -8 -6 -3 -3 -4 -5 -6 -6 -7 -6 -5 -3 -0 4 6 5 -5 1 4 3 3 7 8 2 4 6
5 4 0 3 7 7 8 11 7 -1 -3 -10 -8 -7 -5 -7 -7 -8 -8 -8 -9 -8 -5 -2 -2 -5 -7 -7 -0 -3 -7 3 9 9 5 -1 0 -4 -1 2 6 5 4 6 7
6 6 2 2 4 9 10 11 5 -2 -5 -6 -9 -6 -6 -7 -8 -6 -7 -8 -10 -9 -3 4 1 -3 -5 -7 -6 -8 -3 -5 -1 6 5 -2 -8 -12 -4 -5 -4 3 4 6 6
6 5 1 2 4 8 10 8 3 -3 -7 -7 -7 -7 -5 -5 -6 -5 -5 -7 -9 -9 -4 7 7 2 -4 -4 -5 -3 -6 0 0 3 3 -4 -3 -1 -1 -2 -3 2 3 4 5
6 4 2 3 4 7 9 6 3 -3 -6 -5 -7 -7 -7 -4 -7 -5 -5 -6 -5 -5 -6 -4 4 -1 -2 -2 -6 -3 -3 -4 -4 3 9 7 -1 -6 -5 -4 -2 -1 3 3 4
5 4 6 4 5 1 7 3 0 -2 -5 -3 -5 -7 -7 -5 -5 -6 -1 -2 -5 -6 -3 -6 -3 6 -1 -5 -5 -4 -1 -4 8 3 7 9 2 -6 -5 -6 -5 -3 0 2 3
4 5 7 4 4 7 4 3 -0 -1 -2 -1 -4 -4 -7 -4 -3 -5 -6 2 1 -3 -2 -3 -1 5 1 -0 -2 -2 -6 -4 -3 5 6 10 3 -6 -6 -7 -7 -5 -3 1 2
3 7 9 8 2 3 5 3 1 -1 -4 -3 -4 -5 -5 -5 -5 -3 -4 2 1 -0 -0 1 -1 -1 5 -0 -1 1 -4 -7 -3 8 5 3 -4 -7 -5 -5 -5 -4 -4 -2 0
5 5 6 8 7 5 4 2 1 -1 -2 -3 -3 -5 -2 -1 -2 -1 -2 3 2 2 0 0 2 -1 -3 -3 -1 -1 -3 -4 -5 -2 1 -0 -5 -8 -9 -8 -9 -7 -4 -4 -4
5 3 5 5 4 6 5 4 0 -3 -1 -0 -1 -3 -3 -0 -2 -0 -1 4 3 3 1 1 5 4 5 0 -1 -0 -2 -4 -5 -6 -6 -6 -6 -10 -6 -6 -7 -7 -6 -4 -4
5 5 4 5 5 6 7 3 0 -2 -2 -2 -2 -2 -1 1 2 3 3 2 1 4 4 5 9 8 6 2 3 5 3 -1 -2 -5 -6 -2 -4 -8 -7 -6 -5 -5 -5 -4 -3

GFSSW_850_dewp_015.txt.gz
Dewpoint
-7 -6 -8 -9 -9 -9 -8 -7 -6 -5 -5 -7 -6 -4 -6 -10 -17 -16 -11 -7 -10 -10 -14 -6 -9 -13 -4 -4 -5 -8 -9 -9 2 8 8 7 7 5 7 7 5 6 8 11 11
-7 -7 -7 -8 -9 -8 -7 -6 -5 -5 -5 -6 -4 -4 -7 -14 -13 -1 -1 -3 -8 -12 -15 -5 -2 -11 -6 -6 -6 -7 -8 -7 5 6 7 6 6 5 5 8 10 6 10 12 11
-6 -8 -7 -8 -8 -7 -6 -5 -4 -4 -5 -5 -4 -5 -11 -14 1 1 -4 -8 -12 -13 -13 -5 -3 -7 -7 -6 -6 -8 -9 -1 4 3 4 5 6 6 5 7 7 6 6 12 11
-3 -8 -7 -8 -7 -6 -5 -3 -3 -4 -5 -4 -4 -7 -12 -12 1 0 -6 -9 -14 -15 -9 -6 -5 -5 -7 -8 -9 -8 -10 -11 -0 1 4 5 6 6 5 5 7 7 8 9 10
-1 -7 -7 -7 -6 -5 -4 -3 -2 -3 -5 -5 -5 -9 -12 -1 -2 -0 -6 -8 -14 -10 -6 -4 -3 -4 -8 -9 -8 -9 -10 -9 -6 1 2 4 5 2 5 4 7 10 10 10 10
1 -4 -7 -7 -6 -4 -2 -2 -2 -4 -5 -5 -6 -9 -9 5 0 -0 -4 -7 -9 -9 -7 -4 -5 -8 -8 -8 -7 -11 -10 -12 -10 -3 -0 1 2 2 4 5 6 9 9 10 10
4 -1 -6 -7 -5 -3 -1 -1 -2 -4 -5 -6 -8 -9 -8 -10 -1 1 0 -6 -7 -10 -6 -6 -6 -4 -4 -4 -5 -7 -9 -11 -5 -0 -0 -1 3 4 5 6 6 8 9 10 8
6 1 -4 -6 -5 -2 -0 -1 -3 -5 -7 -7 -9 -7 -8 -3 -3 -2 -2 -1 -2 -4 -4 -5 -4 -4 -5 -4 -4 -7 -8 -7 -4 -4 -1 -1 2 5 6 6 5 7 8 8 6
8 3 -2 -5 -5 -1 0 -1 -5 -7 -8 -9 -2 7 -1 -1 -3 -6 -3 -1 -1 -2 -3 -3 -4 -4 -3 -2 -1 -6 -3 -0 -4 -6 -4 -2 1 4 4 5 4 3 4 5 5
9 4 0 -5 -4 -0 1 -2 -6 -8 -8 -9 -3 3 -5 -2 -7 -5 -5 -4 -5 -3 -3 -3 -5 -2 -2 -1 0 -4 -1 -1 -2 -6 -5 -10 -3 3 3 3 4 4 4 3 4
9 6 1 -5 -3 1 1 -2 6 6 3 -8 -4 -6 -3 -4 -5 -5 -7 -7 -5 -3 -2 -3 -3 -0 -2 -3 -4 -5 -6 -2 -4 -6 -9 -7 -3 1 3 2 2 4 6 5 3
8 7 2 -4 -3 1 2 -2 5 4 5 4 5 -1 -1 -1 -4 -5 -6 -7 -4 -1 -3 -3 -1 -4 -5 -4 -3 -3 -2 -3 -7 -12 -13 -5 -4 -4 4 4 2 5 4 6 3
7 8 3 -4 -1 2 1 -4 -2 4 6 4 2 -3 -4 -3 -3 -5 -7 -8 -5 -2 -4 -1 -2 -2 -3 -3 -3 -3 -1 -3 -5 -9 -8 -3 -0 1 -0 2 5 6 4 6 5
8 8 4 -2 0 6 2 2 -6 -3 8 4 2 -7 -7 -5 -3 -6 -7 -8 -6 -4 -0 -0 -3 -2 -2 -2 -4 -0 -3 -1 -3 -2 -1 -4 3 5 0 -1 -0 3 5 5 5
7 8 5 -2 4 6 8 8 7 8 10 -1 -3 -5 -5 -4 -6 -7 -7 -7 -6 -3 -3 -1 0 0 0 -2 -4 -2 -3 -2 -1 -2 2 -0 3 4 1 0 1 0 1 4 5
7 8 6 -1 2 3 7 9 8 9 9 1 -3 -3 -3 -4 -6 -7 -9 -8 -7 -5 -5 -3 -4 -2 -2 -4 -4 -3 -3 -2 -1 -0 5 3 2 5 4 2 1 2 0 2 5
7 8 6 -0 2 7 3 8 9 9 -0 -1 -3 -3 -3 -3 -4 -6 -5 -4 -4 -2 0 -2 -4 -1 -1 -3 -3 -1 1 4 3 7 6 3 5 2 3 0 1 2 0 3 5
7 8 6 1 4 7 7 10 10 4 2 -5 -3 -3 -2 -4 -4 -5 -3 -3 -6 -5 -1 2 3 -1 -4 -6 -1 -1 -1 5 5 9 7 4 5 2 -2 1 1 -0 0 0 5
7 7 6 2 4 8 9 10 7 5 -3 -1 -5 -3 -3 -4 -6 -4 -5 -5 -7 -6 -2 3 3 1 -1 -2 -3 -3 0 -1 7 7 9 6 0 -2 1 2 4 3 2 3 6
6 6 6 2 2 7 8 8 7 1 0 -3 -1 -4 -2 -3 -4 -4 -3 -5 -6 -8 1 6 5 4 2 1 -3 -3 -3 2 4 7 5 -1 -0 2 1 1 4 5 3 6 7
5 5 6 5 2 7 7 6 5 3 1 0 -1 -4 -4 -2 -2 -3 -2 -5 -6 -1 2 4 5 6 3 2 -2 -1 -2 -3 -1 4 5 7 3 -5 -3 -3 2 4 5 6 7
6 6 3 2 6 5 6 5 4 3 2 2 -3 -3 -3 -2 -2 -3 -1 2 -1 -3 1 3 5 7 5 -2 -4 -4 -2 1 3 0 5 5 3 -5 -6 -5 -4 -1 4 5 5
5 5 5 1 4 6 2 4 5 4 3 0 -0 -2 -2 -1 3 -3 2 1 -0 -0 -1 1 -0 3 2 1 0 -2 -3 -4 3 3 3 3 2 -5 -6 -7 -6 -5 -2 4 4
5 6 7 6 2 2 3 3 5 3 3 1 -0 -0 -1 -1 -0 -0 4 3 1 1 -1 1 1 1 3 2 1 1 -1 -3 -1 3 2 3 0 -4 -5 -5 -5 -5 -5 -1 3
5 4 5 8 7 5 2 2 5 5 2 0 -0 0 -0 -2 -2 -1 5 4 3 1 0 2 2 -0 1 2 0 -1 0 -0 -4 0 1 -0 0 -2 -5 -5 -5 -4 -5 -5 -3
5 3 5 5 5 6 3 4 4 3 2 1 2 -1 -2 -1 1 0 4 4 4 3 2 2 5 3 3 2 2 1 1 -0 -0 -2 -4 -3 -3 -6 -5 -6 -6 -5 -5 -4 -4
4 3 4 6 6 6 3 5 3 2 1 -2 1 1 1 3 2 3 3 5 4 5 4 4 4 4 5 2 1 1 -0 -0 -0 -1 -2 -2 -4 -5 -2 -3 -5 -5 -5 -4 -3

GFSSW_850_dewp_018.txt.gz
Dewpoint
-8 -8 -8 -7 -7 -9 -9 -8 -7 -7 -5 -6 -6 -5 -6 -9 -19 -11 -3 -3 -7 -11 -15 -16 -13 -14 -6 -3 -3 -4 -7 -7 -5 7 6 7 7 6 7 7 8 9 11 13 14
-3 -7 -8 -7 -7 -9 -9 -8 -6 -5 -5 -6 -6 -5 -7 -12 -9 0 -4 -6 -4 -12 -18 -8 -9 -13 -7 -6 -6 -7 -7 -7 -5 6 7 6 5 6 7 9 11 13 12 12 11
1 -4 -8 -7 -8 -8 -8 -7 -5 -4 -4 -5 -5 -6 -7 -17 -4 0 -6 -8 -13 -14 -12 -5 -2 -5 -7 -7 -6 -7 -6 -6 4 4 4 5 6 6 7 9 8 12 11 10 10
6 0 -5 -8 -8 -8 -7 -6 -4 -3 -4 -5 -6 -7 -10 -15 0 -0 -6 -13 -16 -15 -10 -7 -5 -5 -6 -6 -7 -7 -9 -8 2 3 4 4 5 7 6 6 6 11 9 9 10
8 5 -3 -8 -8 -8 -6 -4 -3 -2 -4 -5 -6 -8 -12 -9 -5 0 -6 -11 -15 -9 -7 -7 -3 -3 -5 -8 -9 -8 -8 -9 -4 2 3 3 5 3 5 7 6 10 11 12 9
8 8 1 -6 -8 -7 -6 -2 -2 -2 -4 -5 -6 -8 -12 0 1 1 -1 -9 -12 -8 -7 -5 -4 -4 -6 -6 -6 -5 -8 -10 -0 2 2 3 4 3 6 8 9 10 10 11 10
8 8 4 -3 -7 -7 -5 -1 -1 -3 -5 -6 -7 -9 -11 -11 0 -2 0 -2 -10 -10 -8 -5 -5 -3 -4 -4 -4 -4 -9 -4 -1 0 1 2 3 5 7 9 10 10 10 10 9
5 8 7 -0 -6 -7 -5 -1 -1 -3 -6 -6 -8 -10 -14 -12 -2 -3 -3 -2 -2 -4 -6 -6 -4 -4 -4 -4 -3 -4 -8 -5 -2 -1 1 1 6 4 6 6 8 9 10 10 10
8 7 9 3 -4 -7 -4 -1 -2 -5 -7 -7 -8 -1 -8 -7 -4 -5 -3 -4 -1 -1 -2 -3 -3 -4 -4 -2 -1 -4 -4 -2 -4 -4 -0 -1 6 5 6 6 7 9 9 10 10
6 6 9 6 -2 -6 -4 -1 -2 -2 -3 -5 -7 -1 -11 -3 -6 -7 -6 -4 -2 -3 -2 -3 -5 -2 -2 -2 -0 -4 -1 -1 -2 -5 -1 1 3 5 6 5 5 8 8 8 9
6 5 7 8 -1 -6 -3 -0 2 7 4 -9 -7 -11 -9 -4 -3 -6 -6 -4 -4 -3 -2 -3 -3 -1 -2 -2 -2 -3 -4 -3 -3 -4 -5 -3 3 5 4 4 5 5 6 6 7
-2 4 6 8 0 -6 -1 1 5 3 4 2 3 5 -4 -1 -2 -4 -6 -6 -4 -1 -2 -3 -2 -3 -3 -4 -3 -3 -3 -2 -3 -5 -8 -4 4 4 4 4 4 4 4 5 6
0 2 3 8 1 -5 1 3 3 1 4 3 -0 -2 -6 -4 -3 -3 -5 -6 -4 -2 -3 -2 -3 -3 -2 -3 -2 -3 -2 -1 -3 -8 -5 -2 -0 2 3 3 3 5 4 3 4
-3 5 5 8 1 -1 5 7 -1 -5 6 5 4 -0 -4 -5 -4 -5 -6 -6 -6 -4 -2 -2 -3 -3 -2 -1 -2 -1 -4 -1 -2 -3 -3 -5 2 2 1 1 5 3 5 2 4
2 4 5 8 -1 4 7 7 5 6 5 -1 3 -5 -10 -5 -4 -5 -6 -6 -5 -3 -2 -1 -0 -1 -1 -1 -2 -1 -2 -3 -2 0 -1 0 2 0 3 -1 4 5 4 1 4
2 4 7 7 2 2 7 8 8 7 7 3 -2 -3 -3 -4 -4 -6 -7 -7 -7 -5 -5 -4 -3 -3 -2 -3 -3 -3 -3 0 0 1 4 3 1 1 4 0 -3 1 4 4 4
3 6 7 7 5 -4 5 5 9 8 1 1 -1 -2 -2 -2 -2 -5 -5 -5 -5 -3 -1 -2 -4 -2 -1 -3 -3 -2 1 3 2 5 4 3 3 1 -0 1 0 0 1 4 5
4 5 7 7 5 6 3 9 8 5 4 -1 -2 -2 -1 -2 -3 -4 -4 -4 -5 -5 -1 0 2 -0 -1 -2 -2 -1 -1 3 3 6 4 4 6 3 -0 -1 -1 -1 1 4 4
3 5 6 6 5 6 7 9 6 6 -0 -1 -2 -1 -1 -2 -4 -4 -3 -3 -5 -5 -2 2 2 2 -1 1 0 -3 -1 -1 5 6 7 5 2 -5 1 2 1 2 2 3 6
3 5 5 5 6 5 7 5 6 4 2 -2 -0 -2 -0 -2 -3 -4 -3 -4 -5 -6 -2 1 2 3 1 -1 -1 -2 -4 1 4 6 7 1 1 1 1 2 2 4 3 1 6
3 4 5 5 6 5 8 5 4 3 3 3 2 -1 -2 -2 -2 -2 -3 -5 -5 -4 1 3 1 3 2 2 0 1 -1 -2 1 3 4 5 2 -5 -2 -0 0 2 2 1 5
3 5 4 4 5 4 6 4 2 3 3 4 3 3 -2 -1 -1 -1 -1 -2 -0 1 1 3 4 5 3 1 -3 -1 -1 -1 2 -1 4 4 3 -3 -5 -4 -0 2 2 1 4
3 4 5 4 5 4 4 4 2 2 3 4 2 1 -3 -0 -0 -1 -0 0 0 -0 1 2 2 3 3 -0 -0 -1 -3 -1 2 2 2 3 2 -4 -6 -7 -5 -2 1 2 4
3 4 5 5 3 1 3 5 4 1 3 4 4 3 -0 -1 -0 2 4 3 2 1 0 -1 0 -0 3 1 1 1 -0 -2 1 3 2 3 -0 -3 -5 -5 -6 -5 -1 3 5
3 3 3 5 5 2 2 3 4 3 3 3 3 4 2 0 2 1 4 3 3 0 1 1 1 0 -0 1 1 -0 -0 -0 -1 -1 1 -0 -0 -4 -5 -5 -5 -5 -4 -2 3
2 4 4 5 3 4 2 2 2 0 2 3 4 3 1 -1 0 3 4 4 3 3 0 2 2 3 2 2 1 1 -0 -0 -0 -2 -1 -2 -2 -5 -5 -4 -4 -4 -3 -3 -2
2 3 3 3 4 5 4 2 1 -1 1 0 2 3 1 -0 -0 0 1 1 3 3 3 3 4 3 3 1 0 3 -0 -1 -1 -2 -1 -0 -3 -3 -1 -1 -2 -3 -3 -2 -1

GFSSW_850_dewp_021.txt.gz
Dewpoint
-4 -7 -10 -9 -9 -8 -9 -9 -8 -7 -6 -5 -7 -7 -7 -8 -15 -6 -2 -3 -4 -10 -14 -15 -11 -13 -6 -3 -3 -5 -6 -6 -8 7 5 6 6 6 8 8 11 11 12 12 12
3 -1 -6 -9 -9 -8 -9 -9 -7 -6 -5 -5 -7 -7 -7 -10 -10 -0 -4 -7 -5 -14 -15 -6 -12 -8 -4 -5 -5 -6 -5 -5 -8 3 5 6 5 6 8 11 11 12 12 11 12
7 6 1 -7 -9 -8 -8 -8 -6 -5 -5 -6 -7 -7 -7 -13 -7 -0 -7 -9 -7 -14 -11 -3 -6 -7 -7 -6 -6 -7 -5 -8 -1 3 5 5 5 6 8 9 11 12 11 11 11
8 7 6 -1 -8 -8 -9 -7 -5 -4 -4 -6 -7 -7 -8 -15 -1 -2 -6 -14 -12 -15 -8 -4 -4 -4 -6 -6 -7 -6 -8 -7 -6 -1 5 5 6 6 7 7 11 12 11 10 11
7 7 7 5 -4 -8 -8 -7 -5 -3 -4 -6 -7 -7 -9 -11 -7 -0 -5 -13 -14 -12 -7 -6 -4 -3 -4 -7 -8 -8 -8 -8 -9 2 3 5 4 4 7 10 10 9 9 10 10
5 4 7 7 -0 -7 -8 -6 -4 -2 -3 -6 -7 -7 -9 -6 1 1 -3 -9 -11 -8 -7 -6 -5 -4 -3 -5 -6 -5 -4 -6 -4 2 4 4 4 4 9 11 10 11 10 6 7
2 2 3 8 5 -4 -7 -6 -4 -1 -3 -6 -7 -8 -10 -19 0 1 -1 -5 -9 -10 -7 -7 -5 -4 -4 -4 -4 -3 -7 -2 1 2 3 2 3 4 9 11 12 12 10 7 4
3 1 1 7 7 -1 -6 -6 -3 -1 -3 -7 -8 -9 -12 -18 -4 -2 -3 -2 -3 -5 -4 -4 -3 -3 -3 -4 -3 -4 -8 1 -1 0 2 1 6 5 9 10 11 12 11 9 9
3 1 0 4 8 3 -6 -6 -2 -0 -4 -7 -8 -6 -11 -11 -9 -5 -3 -3 -2 -1 -2 -3 -3 -4 -3 -2 -3 -5 -5 -2 -0 -2 2 0 7 5 9 10 10 11 12 10 10
5 -5 1 4 6 6 -6 -6 -2 -3 -0 1 -5 -5 -14 -5 -3 -3 -5 -4 -2 -1 -2 -2 -4 -3 -2 -2 -2 -3 -3 -2 -2 -3 0 2 6 6 7 7 9 10 11 11 9
4 -1 3 4 4 7 -5 -3 -0 5 5 -2 -8 -11 -15 -4 -4 -5 -4 -5 -2 -2 -2 -3 -3 -1 -3 -2 -3 -2 -3 -3 -3 -5 -3 2 5 6 6 6 7 9 10 10 9
-7 2 2 4 4 7 -4 -1 2 4 3 1 0 2 0 2 0 -4 -4 -4 -3 -2 -3 -2 -2 -4 -3 -3 -2 -3 -3 -2 -3 -5 -5 -4 4 5 5 6 7 8 9 9 10
-14 -3 3 2 7 7 -4 4 7 2 2 -0 -1 -1 -2 -1 -2 -3 -4 -5 -4 -2 -1 -1 -4 -4 -3 -3 -2 -2 -2 -2 -1 -6 -4 -0 2 5 4 4 5 6 7 8 8
-27 -3 6 7 5 5 3 7 4 -1 4 3 5 -0 -1 -4 -3 -3 -4 -6 -6 -4 -3 -2 -4 -3 -3 -2 -2 -1 -3 -3 -2 -4 -0 -4 4 2 4 5 3 4 6 6 7
-24 -9 6 7 5 1 7 6 -1 5 1 -5 4 -2 -5 -4 -4 -4 -4 -6 -5 -5 -2 -2 -1 -2 -2 -3 -3 -1 -2 -2 -2 1 -1 -0 1 -1 3 6 4 2 4 5 5
-15 -8 6 7 6 1 7 7 7 5 3 0 1 -4 -4 -5 -4 -6 -4 -5 -7 -5 -4 -4 -3 -3 -3 -3 -3 -3 -3 -0 1 1 3 1 1 1 4 3 4 1 3 3 5
-1 -3 6 6 6 5 4 6 8 7 -2 2 -1 -2 -4 -2 -3 -4 -5 -5 -4 -3 -2 -2 -3 -2 -2 -2 -3 -2 -0 2 1 4 4 3 2 1 -1 -1 -1 -1 -0 2 4
2 3 5 5 6 5 2 8 9 5 4 2 -2 -1 -2 -2 -2 -3 -4 -4 -6 -5 -1 -1 0 -2 -1 -2 -1 -1 -1 3 3 5 2 4 4 1 -1 -1 -1 -1 -2 -2 1
2 2 5 5 7 5 7 9 6 5 3 -2 -2 0 -0 -2 -3 -3 -3 -4 -5 -5 -3 1 0 1 -0 0 -2 -2 -1 -1 5 5 6 3 3 -5 -3 0 1 1 1 1 1
2 2 4 4 6 7 7 6 5 3 3 4 1 -1 1 -1 -2 -3 -2 -4 -4 -5 -5 -0 1 2 1 -0 -1 -2 -2 -0 3 5 5 3 0 -0 0 0 2 3 2 1 3
2 3 2 4 6 5 6 4 3 2 3 5 4 -0 -1 -1 -1 -2 -3 -5 -4 -5 -3 2 -1 -0 1 -0 -1 -0 -1 -1 1 3 3 4 2 -3 -2 -2 -1 -1 2 2 3
2 3 3 2 6 4 5 3 1 0 2 4 4 5 1 -2 -2 -1 -2 -4 -5 -0 -1 1 1 2 -0 -1 -1 -1 -1 -1 3 -0 3 3 2 -3 -5 -5 -4 -3 -2 1 1
1 3 3 2 6 5 3 3 2 1 2 3 4 3 -1 -1 -1 -1 -1 -3 -0 -1 1 2 2 3 2 0 -0 0 -1 0 1 1 3 3 1 -4 -4 -6 -7 -3 -3 -2 1
1 3 4 4 4 3 3 4 5 3 2 2 4 4 3 -0 -1 2 2 2 2 1 -2 -2 1 1 2 1 1 1 0 -1 0 3 2 2 -1 -3 -4 -4 -6 -7 -4 -2 2
2 1 2 4 4 3 2 2 4 4 2 0 3 5 5 3 1 1 4 3 2 1 2 1 1 -1 -2 -2 1 -0 -0 -1 -0 -1 1 -0 1 -1 -4 -5 -6 -6 -4 -1 2
1 3 2 3 2 3 3 3 3 3 3 3 1 2 1 4 1 2 4 3 3 2 1 1 1 1 3 1 1 1 -0 -0 -0 -1 -1 -2 -2 -4 -4 -4 -3 -4 -3 -1 -0
1 2 2 2 2 3 3 2 2 2 2 1 2 3 4 3 0 -2 1 1 1 3 2 2 3 2 2 1 0 2 0 -0 -1 -2 -2 -0 -2 -3 -1 -1 -1 -1 -1 -1 -1

GFSSW_850_dewp_024.txt.gz
Dewpoint
3 1 -2 -4 -8 -10 -9 -9 -9 -9 -7 -7 -7 -8 -9 -10 -14 -4 -2 -4 -4 -10 -14 -13 -8 -8 -5 -5 -4 -6 -5 -5 -7 3 3 6 6 7 9 10 12 11 11 12 12
6 6 5 2 -5 -9 -9 -9 -9 -8 -6 -6 -7 -8 -9 -10 -10 -1 -3 -7 -5 -14 -16 -9 -11 -8 -5 -4 -4 -6 -4 -5 -8 -5 4 6 6 7 9 11 12 12 12 12 12
8 8 7 7 3 -6 -9 -9 -9 -7 -5 -5 -7 -8 -8 -12 -9 -0 -3 -9 -6 -16 -8 -7 -9 -7 -8 -6 -6 -7 -5 -7 -8 -4 5 5 6 7 9 10 11 12 12 12 12
8 9 8 8 7 0 -8 -8 -8 -7 -5 -5 -6 -8 -9 -13 -1 -6 -4 -13 -8 -14 -5 -4 -5 -5 -6 -6 -7 -6 -7 -7 -7 -4 5 5 6 7 7 8 10 11 11 11 11
5 6 7 7 8 6 -4 -8 -8 -7 -5 -4 -7 -7 -8 -14 -9 -0 -4 -13 -12 -13 -5 -5 -5 -3 -4 -6 -8 -7 -8 -8 -8 1 4 5 5 6 11 11 10 11 11 11 10
6 6 2 5 6 7 1 -7 -7 -6 -4 -3 -6 -7 -8 -11 -0 0 -4 -10 -11 -7 -7 -6 -4 -3 -3 -4 -7 -6 -6 -4 -2 3 4 4 5 7 11 11 12 11 11 10 8
4 6 6 5 4 7 5 -4 -7 -6 -3 -3 -6 -7 -8 -12 -4 1 -1 -6 -9 -8 -7 -7 -5 -4 -4 -3 -4 -3 -5 -2 2 3 4 3 4 8 11 11 10 10 9 8 4
-6 4 5 5 5 6 7 -2 -7 -6 -3 -3 -6 -7 -9 -18 -10 1 -1 -2 -3 -7 -7 -6 -3 -3 -3 -4 -4 -5 -6 1 -0 1 2 2 6 8 11 11 11 9 10 8 8
-25 -2 4 6 7 4 7 2 -7 -6 -3 -3 -4 -7 -9 -14 -15 -4 -3 -3 -3 -2 -3 -4 -3 -4 -3 -3 -4 -5 -5 -1 1 0 2 1 7 6 11 11 11 11 9 7 7
-28 -11 1 7 7 6 5 3 -7 -4 -2 -0 1 -4 -13 -7 -4 -4 -4 -3 -2 -2 -1 -2 -4 -3 -3 -4 -1 -2 -3 -2 0 -1 1 2 7 6 9 10 10 11 11 8 8
-28 -17 -1 -1 7 6 4 -1 -2 3 4 2 -8 -9 -13 -7 -3 -4 -3 -4 -2 -2 -2 -3 -3 -1 -4 -3 -3 -2 -3 -3 -3 -5 0 2 7 6 8 8 9 10 11 11 9
-26 -25 -1 1 7 7 6 -2 2 3 4 -3 -1 1 1 2 1 -3 -3 -3 -2 -2 -3 -2 -1 -4 -4 -3 -2 -2 -3 -2 -3 -6 -4 1 5 6 6 7 8 9 10 10 10
-22 -27 -5 4 7 7 6 -0 4 7 5 -1 -2 -0 -2 -2 -2 -3 -4 -3 -3 -2 -2 -1 -3 -4 -3 -3 -2 -2 -2 -2 -2 -5 -2 1 4 7 5 5 6 7 8 9 9
-10 -25 -4 6 7 4 3 5 6 7 2 1 3 1 -0 -2 -2 -5 -4 -5 -5 -4 -2 -2 -3 -3 -3 -2 -3 -2 -3 -3 -2 -4 -1 -3 -0 2 5 5 4 6 7 8 9
-3 -11 -7 6 6 3 5 6 1 3 1 -4 4 0 -1 -3 -4 -4 -3 -5 -5 -5 -4 -4 -2 -2 -2 -3 -3 -3 -2 -2 -2 -0 -0 -0 -0 -1 3 6 5 4 5 7 7
1 -5 -7 5 6 2 7 4 6 5 2 -5 1 1 -1 -4 -4 -4 -3 -5 -6 -6 -3 -4 -4 -3 -3 -4 -3 -3 -3 -1 0 1 3 -0 0 1 3 4 4 4 4 4 5
2 2 -3 5 5 3 5 4 9 6 -3 -2 2 -3 -3 -3 -3 -5 -4 -4 -4 -2 -2 -3 -3 -3 -2 -2 -3 -2 -1 2 2 4 3 2 2 1 -2 -1 2 3 3 3 4
1 2 -1 5 5 6 6 7 8 4 0 1 -1 -3 -3 -4 -4 -3 -4 -3 -6 -4 -1 -0 -0 -2 -2 -2 -2 -1 -0 3 2 4 1 3 3 -1 -2 -2 -2 -2 -1 1 2
1 2 -0 4 5 6 6 7 6 4 3 1 -2 -1 -1 -3 -3 -3 -2 -3 -5 -5 -3 -0 -1 -1 -0 -0 -2 -2 -1 -2 4 5 5 2 1 -4 -5 -1 1 0 -0 -1 -1
-0 1 1 3 5 6 6 5 4 2 3 4 1 -0 1 -0 -2 -2 -2 -4 -5 -5 -5 -2 -1 1 0 -0 -1 -2 -1 1 2 4 5 2 1 -2 -3 -1 1 2 1 1 2
1 1 -0 3 5 6 5 4 3 2 3 5 5 5 -0 -0 -1 -1 -1 -5 -4 -5 -4 -0 -2 -2 2 1 -1 -0 -1 -0 1 2 3 3 1 -2 -3 -2 -3 -2 -1 0 1
1 1 0 2 5 4 3 3 1 2 2 3 4 5 5 -1 -1 -1 -2 -3 -6 -2 -2 0 -0 1 -0 -2 -1 -2 -1 -0 3 1 3 3 1 -4 -5 -5 -6 -5 -4 -2 0
1 1 1 3 4 4 2 2 2 1 1 3 4 4 2 -1 -1 -1 -2 -4 -3 -3 -0 1 -0 1 -1 -2 -1 -0 -1 -0 0 1 3 3 2 -5 -4 -5 -5 -6 -6 -3 -1
1 1 3 3 -1 1 2 3 3 2 2 2 4 4 4 3 -0 -2 -1 1 -0 -3 -2 -3 1 -2 -1 -3 -0 1 -0 0 0 3 2 2 -0 -4 -5 -4 -5 -6 -7 -5 -2
1 0 2 3 2 2 1 1 3 3 2 1 3 4 4 4 1 2 3 3 2 2 0 -1 -0 -1 -2 -2 0 0 -0 1 0 0 1 0 -0 -2 -3 -4 -5 -6 -5 -1 2
1 1 1 2 1 2 3 2 3 2 4 4 3 2 4 5 2 1 3 3 2 2 1 0 1 -1 2 1 1 1 -0 -0 -1 -1 -1 -1 -1 -4 -4 -3 -3 -3 -0 1 1
0 0 2 0 2 2 2 2 2 1 2 1 1 1 3 2 -0 -1 -0 1 2 2 2 1 2 2 2 1 0 2 1 0 -0 -1 -1 0 -2 -3 -2 -1 -1 -1 -0 -1 -1

GFSSW_850_dewp_027.txt.gz
Dewpoint
6 6 6 6 5 1 -7 -9 -8 -9 -8 -8 -8 -8 -10 -10 -14 -4 -3 -6 -5 -10 -12 -7 -8 -7 -5 -5 -5 -6 -4 -5 -6 -3 2 6 6 9 10 11 11 12 12 12 12
9 8 8 7 7 6 0 -8 -9 -9 -8 -7 -7 -8 -10 -10 -13 -1 -3 -7 -7 -13 -15 -14 -10 -8 -4 -4 -4 -5 -3 -5 -8 -8 1 5 6 8 10 11 12 12 12 12 12
8 9 9 9 8 8 7 -2 -8 -9 -8 -6 -6 -7 -10 -10 -10 0 -1 -9 -7 -15 -8 -13 -12 -6 -7 -6 -6 -6 -4 -6 -7 -8 2 6 6 8 10 10 11 12 12 11 11
5 5 8 7 8 8 8 5 -6 -8 -8 -6 -5 -7 -10 -10 -1 -6 -3 -12 -9 -11 -9 -9 -9 -6 -6 -6 -7 -5 -6 -7 -7 -4 5 5 6 7 8 8 9 12 12 11 11
5 6 6 5 4 6 7 7 -1 -7 -8 -6 -5 -6 -9 -9 -16 -1 -3 -13 -11 -7 -4 -5 -5 -4 -3 -5 -7 -6 -7 -7 -7 -2 5 5 6 8 11 11 11 11 11 11 11
1 5 6 7 6 5 4 7 4 -6 -7 -7 -5 -5 -8 -6 -9 -0 -5 -12 -12 -8 -5 -5 -4 -3 -3 -3 -6 -5 -7 -4 -1 5 4 6 8 8 11 11 11 11 11 11 11
-20 -3 3 7 7 4 5 6 6 -3 -6 -6 -4 -3 -7 -12 -13 1 -3 -9 -9 -7 -7 -7 -5 -4 -3 -2 -4 -3 -3 -1 3 4 4 3 6 9 11 10 11 11 11 11 10
-27 -25 -8 3 5 5 5 5 8 1 -7 -6 -4 -2 -8 -13 -13 1 -0 -4 -7 -9 -8 -6 -4 -3 -3 -3 -4 -5 -4 1 1 2 3 2 7 10 11 11 10 10 10 10 9
-26 -26 -21 -4 4 3 6 4 6 3 -6 -5 -3 -3 -8 -12 -15 -7 0 -3 -3 -2 -5 -4 -3 -3 -3 -3 -3 -3 -3 0 1 1 3 2 7 8 11 10 9 10 9 9 8
-23 -25 -26 -4 3 1 5 4 5 -2 -2 -0 1 -1 -6 -10 -8 -7 -3 -5 -2 -1 -2 -2 -3 -3 -2 -3 -1 -1 -2 -1 2 -0 2 3 7 9 11 11 11 10 9 8 7
-24 -20 -25 -8 4 1 6 4 -1 -0 3 1 -3 -4 -11 -9 -2 -3 -3 -2 -0 -2 -1 -3 -1 -0 -2 -2 -3 -2 -3 -3 -3 -4 2 3 6 8 10 10 11 11 11 9 5
-18 -22 -18 -11 3 3 6 6 1 3 5 -0 -3 -1 -0 -4 1 -1 -2 -2 -1 -1 -2 -2 0 -3 -4 -3 -2 -2 -2 -2 -3 -5 -1 0 3 6 8 9 9 10 10 10 8
-2 -19 -18 -10 2 2 4 3 3 6 6 2 -3 -3 -4 -2 -0 -2 -2 -3 -2 -1 -1 0 -2 -3 -3 -2 -1 -1 -1 -1 -1 -3 -2 1 1 7 6 8 8 8 9 10 10
2 1 -10 -8 1 1 1 3 6 5 2 -1 1 0 -0 -2 0 -5 -3 -4 -4 -1 -1 -1 -3 -3 -2 -2 -2 -1 -3 -2 -1 -3 -1 -3 -2 1 6 6 5 6 7 8 9
2 2 -0 -1 5 3 5 6 5 5 2 -3 4 1 1 -2 -5 -3 -4 -5 -3 -3 -2 -2 -2 -1 -1 -2 -2 -2 -2 -1 -1 -1 0 0 -1 -2 3 7 6 5 6 6 8
2 2 0 -0 4 3 6 4 5 6 3 -5 2 3 3 -1 -4 -3 -4 -5 -6 -3 -2 -3 -4 -2 -2 -3 -3 -2 -1 -1 0 1 3 0 -0 -0 1 4 4 5 5 5 6
1 1 2 -3 3 1 6 6 7 8 -2 -3 3 0 -0 -2 -3 -4 -2 -3 -2 0 -0 -3 -3 -3 -2 -2 -2 -2 1 2 2 4 3 2 2 1 -2 -2 0 2 4 4 5
1 1 2 -1 4 -0 5 6 9 3 1 -0 -1 -1 0 -3 -3 -3 -2 -1 -5 -3 -1 -0 0 -2 -1 -2 -1 -0 0 4 3 4 1 2 4 -2 -3 -2 -2 -2 -2 -0 2
1 0 1 1 3 5 6 7 3 3 2 2 -3 -1 -1 -3 -4 -2 -1 -1 -3 -3 -1 1 -1 -3 -1 -0 -2 -0 1 -1 4 5 5 2 -0 -3 -5 -3 0 1 0 -0 -1
1 0 0 1 3 5 6 4 4 2 3 4 3 -0 1 -0 -1 -2 -0 -2 -3 -4 -4 -1 -1 1 0 -0 -1 -1 -1 3 3 5 4 2 2 -0 -3 -4 -2 -0 1 -1 -0
1 1 -1 1 2 4 4 3 2 2 2 5 6 5 1 1 -1 -0 -1 -4 -3 -4 -4 -1 -1 -1 1 1 1 0 1 1 1 3 4 3 0 -2 -2 -3 -2 -3 -4 -1 -1
1 1 -1 -1 2 3 3 2 1 1 2 3 4 6 6 0 0 0 0 -1 -5 -3 -1 -0 2 3 1 -1 -2 -1 0 1 5 2 3 3 2 -4 -2 -3 -3 -4 -5 -2 -1
0 -1 -1 -2 2 3 2 1 1 2 1 3 4 4 3 2 -0 -0 -1 -4 -4 -2 1 1 1 2 -0 -2 -0 1 -0 -0 1 2 4 7 2 -4 -4 -4 -4 -4 -6 -6 -4
1 1 2 2 0 1 2 2 3 1 1 1 3 4 4 3 1 -1 -0 -1 -3 -3 -4 -2 1 1 1 -0 -1 2 1 0 2 4 4 3 1 -2 -3 -4 -4 -4 -5 -6 -3
1 2 1 2 1 1 0 0 2 2 2 1 3 2 5 4 2 2 1 3 1 1 -0 1 1 0 -2 -3 -1 -1 -0 1 0 1 3 1 0 -2 -2 -3 -4 -5 -4 1 3
0 1 0 0 -0 0 1 1 2 2 1 3 2 2 2 5 4 2 2 3 3 3 2 1 2 -0 -0 0 0 1 0 0 0 -0 0 -1 -0 -3 -3 -4 -3 -2 1 2 2
0 -1 -1 -0 1 1 0 1 1 1 1 0 1 1 4 2 2 2 -0 -0 2 2 3 2 4 3 2 1 1 4 2 1 1 -0 0 2 0 -3 -2 -1 -2 1 0 -0 -1

GFSSW_850_dewp_030.txt.gz
Dewpoint
8 9 8 8 7 7 7 5 -5 -9 -9 -9 -8 -7 -8 -11 -12 -7 -3 -4 -7 -11 -13 -10 -8 -4 -5 -6 -5 -7 -7 -5 -6 -7 -5 1 5 8 9 9 10 12 11 12 12
9 9 8 9 9 8 8 7 5 -6 -9 -9 -8 -7 -8 -11 -14 -3 -3 -7 -9 -14 -12 -5 -5 -6 -7 -6 -5 -6 -7 -7 -9 -8 -7 -2 4 7 8 9 11 12 12 12 12
3 4 7 8 8 8 8 7 7 2 -7 -9 -8 -6 -7 -11 -14 1 -2 -8 -9 -16 -8 -8 -8 -7 -7 -6 -6 -6 -6 -7 -7 -7 -7 1 4 7 7 7 9 12 11 11 11
2 2 3 4 6 4 5 6 6 6 -3 -8 -8 -6 -7 -10 -6 -3 -2 -11 -12 -10 -8 -7 -6 -7 -7 -7 -7 -6 -7 -7 -7 -5 -1 4 6 8 7 10 11 12 11 11 11
-10 -5 0 3 4 4 4 3 3 6 2 -6 -8 -6 -6 -3 -9 -8 -2 -12 -13 -8 -5 -5 -4 -4 -5 -5 -5 -5 -6 -6 -5 -4 4 5 5 7 10 12 12 11 11 11 11
-25 -21 -11 -0 4 3 3 0 0 6 5 -4 -8 -7 -2 -4 -13 -2 -5 -12 -13 -4 -4 -4 -3 -3 -3 -4 -4 -4 -5 -4 -3 1 5 5 6 6 11 12 12 12 11 11 10
-27 -28 -24 -14 -1 1 1 0 -0 4 7 1 -7 -6 -3 -5 -13 -1 -6 -10 -12 -5 -4 -5 -4 -3 -3 -3 -3 -4 -3 -3 -2 3 3 4 4 8 10 10 10 11 10 9 10
-25 -26 -27 -25 -20 -3 -0 -4 -1 3 6 5 -6 -5 -0 -9 -13 -4 -3 -8 -9 -8 -6 -5 -4 -2 -2 -3 -4 -4 -5 -2 -0 2 3 3 5 9 10 10 8 8 9 9 10
-20 -24 -26 -27 -27 -10 -1 -8 -1 -0 3 2 -4 -3 -3 -9 -12 -8 0 -2 -5 -7 -8 -4 -2 -2 -3 -5 -5 -4 -4 -2 -1 0 2 3 4 7 10 9 7 7 8 7 8
-10 -10 -20 -25 -25 -11 -4 -5 -1 -2 0 -1 2 1 -4 -8 -7 -12 -1 -1 -1 -2 -2 -3 -2 -3 -5 -6 -4 -4 -4 -4 -1 0 1 2 3 6 9 9 7 6 7 6 6
0 -11 -13 -20 -23 -5 -3 2 4 3 2 2 0 -1 -9 -5 -3 -2 -7 -2 -2 -1 -1 -1 -1 -3 -7 -6 -4 -3 -4 -5 -4 -2 0 0 0 5 8 9 9 8 7 6 6
3 0 -3 -13 -18 -3 -1 5 5 3 3 2 -4 0 -1 -4 -1 -1 -1 -2 -1 -0 -2 -1 -1 -6 -5 -5 -3 -2 -3 -3 -4 -4 -2 -2 -1 3 7 8 8 8 9 7 6
2 3 2 -5 -10 -4 -3 4 3 3 6 2 3 0 -0 -2 -2 -3 -1 -2 -2 -2 -1 -2 -4 -4 -4 -2 -2 -2 -3 -2 -3 -3 -4 -2 -2 2 4 7 8 8 7 8 6
2 2 3 2 -6 1 1 -0 1 6 4 -4 -1 -0 0 -2 -2 -4 -2 -3 -3 -2 -3 -2 -4 -4 -3 -3 -3 -2 -4 -3 -2 -2 -2 -3 -3 -1 1 5 7 7 7 7 6
2 2 2 2 5 5 5 3 4 5 -3 -6 1 2 2 -3 -5 -2 -3 -3 -3 -3 -2 -3 -4 -3 -2 -4 -4 -4 -3 -3 -2 -2 -1 -1 -4 -2 1 3 3 4 5 6 6
2 1 2 2 3 4 5 5 5 6 -0 -5 1 3 2 -0 -4 -3 -3 -4 -5 -5 -4 -5 -5 -4 -5 -4 -4 -3 -2 -1 -1 -1 1 -2 -2 -5 -4 -4 -4 -1 2 4 5
-1 2 1 1 2 5 6 6 6 5 -5 -6 1 2 0 -1 -3 -4 -3 -2 -3 -1 -1 -4 -4 -5 -4 -3 -2 -2 -2 0 1 2 2 0 1 -4 -6 -6 -3 -3 -3 2 4
-4 0 1 -0 1 4 5 7 3 -6 -3 -2 -1 0 0 -4 -4 -3 -4 -3 -5 -5 -4 -2 -1 -4 -3 -3 -2 -1 -3 0 3 3 -1 1 -0 -4 -6 -4 -3 -2 -2 -2 2
-5 -1 1 0 -2 3 5 6 -4 -5 -4 -2 -3 1 1 -4 -5 -3 -3 -4 -4 -4 -3 -2 -3 -4 -2 -2 -3 -1 -0 -3 2 4 1 -2 -3 -5 -6 -7 -2 -1 -0 0 -0
-4 -0 2 1 -0 2 4 3 -5 -5 -3 -4 -2 -3 -0 -1 -4 -3 -2 -4 -4 -5 -6 -3 -2 -3 -0 -1 -1 -1 -2 1 1 3 2 -1 -2 -5 -6 -7 -6 -6 -4 -2 1
-1 0 1 -0 1 2 4 2 -4 -4 -2 2 -1 -3 -2 0 -3 -3 -3 -3 -4 -4 -6 -5 -4 1 1 1 -2 0 -0 -1 -0 1 1 0 -2 -6 -6 -7 -6 -6 -4 -2 -0
-0 1 1 -0 1 1 3 0 -4 -5 -0 1 2 1 2 -1 -1 -3 -3 -4 -4 -5 -2 -4 -3 -1 -3 -2 -1 -3 -2 -1 2 1 2 4 -1 -7 -5 -5 -4 -4 -4 -2 1
-0 1 1 0 2 2 -1 -1 -2 -3 -2 2 2 2 3 3 1 -1 -3 -3 -3 -3 -4 -2 -1 1 -2 -1 -1 -1 -1 -1 0 1 0 6 -1 -4 -5 -4 -4 -4 -4 -4 -3
0 1 2 1 -2 -1 -2 -2 -1 -2 -3 -0 1 2 4 4 2 1 -1 -0 -2 -4 -3 -3 -4 -2 -0 -4 -5 -0 -2 -1 -1 2 -0 -0 -4 -5 -5 -4 -5 -4 -3 -4 0
0 1 1 2 1 -2 -2 -2 -0 -1 -2 -2 1 1 3 4 3 2 -0 3 -0 -1 -3 -1 -2 -3 -5 -6 -6 -5 -5 -3 -2 -2 -1 -3 -3 -3 -5 -4 -4 -3 -2 1 3
0 1 0 0 -2 -3 -2 -3 -1 -3 -4 -0 1 1 1 3 1 4 2 1 3 2 -0 -0 -1 -1 -1 -4 -3 -3 -5 -6 -5 -5 -5 -3 -2 -5 -5 -3 -3 -3 0 2 3
-0 -1 -2 -3 -0 -1 -0 -2 -3 -2 -4 -5 -4 -1 0 1 -0 3 3 2 1 3 2 2 1 1 0 1 0 3 0 -3 -3 -4 -3 -1 -2 -5 -3 -3 -3 -0 1 1 1

GFSSW_850_dewp_033.txt.gz
Dewpoint
8 9 8 8 8 7 7 7 6 5 -1 -8 -9 -9 -8 -9 -13 -7 -1 -1 -5 -9 -15 -4 -4 -5 -6 -8 -8 -9 -8 -4 -7 -7 -6 -4 1 5 7 6 8 12 12 12 12
7 8 8 8 8 7 6 7 6 5 5 -2 -9 -9 -8 -9 -13 -5 -1 -5 -11 -12 -5 -7 -7 -6 -7 -8 -7 -9 -8 -7 -8 -8 -6 -2 1 4 5 7 9 12 11 12 12
3 4 5 3 4 5 3 4 5 4 4 4 -5 -9 -8 -9 -2 -1 0 -7 -12 -17 -5 -9 -7 -8 -8 -9 -8 -8 -6 -8 -7 -6 -5 -1 1 4 5 9 7 11 11 11 12
-15 -6 1 1 2 2 2 0 -0 2 1 3 0 -8 -9 -9 -5 2 -4 -10 -13 -14 -6 -8 -9 -8 -8 -8 -9 -7 -8 -7 -7 -6 -1 2 1 0 7 8 8 11 11 11 11
-25 -22 -17 -12 -4 1 1 0 -1 -1 -0 1 3 -7 -9 -0 -5 -7 -4 -13 -15 -10 -6 -8 -7 -6 -6 -8 -7 -7 -7 -7 -6 -5 1 3 4 4 9 10 12 11 11 12 11
-26 -27 -25 -27 -23 -9 -2 -3 -3 -2 -0 1 4 -3 0 -0 -4 -8 -2 -13 -5 -4 -4 -5 -5 -5 -4 -6 -5 -5 -6 -6 -6 -3 1 3 4 5 9 10 11 11 11 10 10
-25 -26 -27 -27 -30 -26 -15 -10 -5 -0 -2 -0 5 2 1 -2 -4 -0 -1 -4 -4 -3 -4 -5 -5 -4 -4 -5 -5 -6 -5 -6 -5 -2 -1 3 6 6 9 10 10 10 9 8 7
-13 -21 -24 -26 -28 -30 -28 -17 -7 -3 -5 -3 3 0 1 -3 -6 -1 1 -3 -3 -4 -4 -4 -4 -3 -3 -5 -6 -6 -6 -1 0 -2 -1 4 9 8 8 7 7 7 7 8 9
2 -6 -17 -24 -26 -29 -28 -16 -8 -7 -3 -4 1 3 -0 -2 -7 -4 1 -4 -4 -4 -4 -4 -4 -4 -4 -4 -6 -6 -4 2 2 -4 -1 5 8 6 7 6 5 5 6 6 8
3 3 -3 -12 -25 -27 -28 -11 -8 -5 1 -1 4 3 0 -5 -7 -8 1 -2 -4 -4 -5 -4 -4 -4 -6 -6 -4 -4 -6 -4 -0 -1 -2 1 0 5 6 6 5 4 4 4 5
2 3 3 -2 -17 -24 -24 4 5 6 5 -2 -0 -6 -7 -6 -3 -7 -1 -0 -2 -2 -2 -2 -2 -2 -5 -7 -8 -4 -5 -4 -3 -0 -3 -1 2 2 5 5 6 4 5 3 3
3 2 3 2 0 -13 -9 3 1 5 -1 -3 -1 -1 -1 -3 -3 -6 -4 -0 -1 -1 -2 -1 -1 -5 -7 -9 -7 -5 -5 -5 -5 -6 -5 -5 -2 2 3 5 5 4 5 5 3
3 3 2 3 3 -8 -1 2 4 5 2 -3 -4 -3 -4 -3 -4 -6 -3 -3 -2 -2 -3 -2 -4 -6 -6 -6 -5 -5 -5 -3 -4 -4 -6 -5 -3 -3 -1 3 5 4 3 3 4
0 3 2 2 -0 -1 3 2 4 5 2 -7 -2 -1 -2 -3 -3 -6 -5 -4 -4 -3 -4 -3 -5 -5 -6 -5 -6 -4 -7 -4 -4 -4 -2 -5 0 -3 -4 1 3 4 3 3 3
-3 0 2 1 3 4 3 4 5 6 -3 -10 -6 -1 -3 -3 -10 -5 -6 -5 -3 -4 -4 -2 -3 -4 -4 -5 -6 -4 -4 -4 -4 -3 -3 -4 -5 -2 -7 -2 0 2 4 3 3
-2 -3 2 2 2 2 6 7 7 3 -2 -7 -1 -0 0 -3 -9 -7 -6 -5 -5 -5 -5 -4 -6 -6 -6 -7 -6 -6 -3 -3 -3 -2 2 -2 -3 -0 -5 -6 -5 -3 0 3 2
-2 -4 -0 2 2 1 5 6 4 -0 -14 -9 -2 -0 -0 -1 -5 -6 -4 -2 -2 -1 -2 -3 -5 -7 -6 -4 -4 -4 -3 1 2 3 3 -3 -3 -4 -2 -7 -7 -6 -4 -1 2
-1 -3 -3 2 2 2 5 6 -0 -8 -9 -5 -7 -1 1 -3 -2 -4 -3 -3 -5 -5 -3 -2 -1 -5 -5 -4 -3 -3 -3 1 7 8 3 -1 -1 -5 -7 -7 -7 -7 -7 -6 -1
-1 -0 1 0 2 2 3 6 1 -8 -13 -9 -5 0 0 -3 -4 -4 -3 -4 -6 -6 -3 -2 -3 -7 -6 -6 -6 -3 -0 -5 -1 1 3 1 -4 -7 -7 -8 -8 -6 -4 -3 -3
1 1 -0 0 1 2 3 4 -0 -7 -13 -10 -5 -3 -0 -2 -4 -4 -3 -6 -6 -8 -6 -5 -2 -6 -5 -5 -4 -3 -3 0 0 7 5 -1 -3 -3 -6 -8 -8 -9 -6 -5 -2
1 1 -1 2 2 3 3 2 -2 -5 -10 -11 -5 -3 -3 -1 -3 -4 -3 -6 -7 -8 -7 -4 -3 -4 -3 -2 -3 -2 -0 -1 -2 -0 4 3 -1 -6 -6 -7 -7 -7 -8 -7 -4
1 2 -1 -0 3 2 2 0 -5 -5 -9 -6 -3 -2 -4 -4 -0 -4 -4 -5 -7 -7 -4 -4 -3 0 -1 -4 -6 -4 -2 -1 3 3 3 4 1 -7 -7 -7 -6 -7 -7 -5 -3
1 1 0 1 3 3 -0 -3 -5 -8 -4 -6 -4 -0 -0 -3 -1 -1 -4 -6 -4 -4 -4 -3 -2 2 -0 -4 -4 -2 -1 -1 -0 0 5 9 1 -7 -7 -6 -7 -6 -7 -5 -4
1 2 2 2 1 -0 -1 -2 -3 -7 -8 -6 -6 -3 -2 2 -0 -0 -1 -3 -5 -4 -5 -3 -3 -1 2 -2 -4 -2 -3 -3 -1 5 3 2 -2 -4 -6 -6 -7 -7 -6 -5 -4
0 1 2 2 2 0 -2 -4 -4 -6 -10 -7 -5 -1 -0 -2 -2 -0 0 -1 -0 -2 -2 -1 1 -1 -3 -5 -6 -6 -5 -4 -2 -2 2 -0 -2 -6 -7 -6 -8 -3 -3 -3 -2
-0 0 1 0 1 -0 -1 -3 -5 -7 -8 -4 -3 -2 2 4 0 4 2 2 -1 -1 -0 -1 1 -1 -3 -5 -7 -6 -7 -6 -5 -4 -4 -3 -3 -8 -8 -7 -6 -5 -3 -2 1
-0 -1 -2 -2 1 0 0 -2 -5 -6 -8 -7 -6 -4 -2 -2 1 5 4 4 3 3 2 0 3 2 3 -3 -4 1 -4 -5 -6 -7 -6 -3 -5 -8 -8 -6 -5 -5 -2 -0 2

GFSSW_850_dewp_036.txt.gz
Dewpoint
5 7 8 9 9 8 7 6 6 6 5 3 3 -2 -8 -10 -11 -12 -2 1 0 -7 -14 -3 -3 -5 -6 -7 -9 -9 -7 -5 -4 -7 -6 -8 -3 2 4 7 6 11 12 12 13
-7 1 3 6 6 4 4 4 3 4 4 2 -0 2 -5 -10 -10 -10 -4 -2 -8 -13 -13 -6 -7 -7 -6 -8 -9 -9 -7 -4 -8 -7 -6 -6 -2 2 6 6 6 7 11 12 12
-22 -17 -15 -3 -1 -1 -0 -1 -1 -1 -1 -1 -2 -2 -1 -9 -4 1 -3 -3 -11 -15 -4 -6 -8 -8 -8 -8 -9 -9 -7 -7 -8 -7 -6 -4 -1 2 7 7 6 6 10 12 12
-27 -26 -24 -21 -19 -17 -10 -7 -3 -2 -2 -7 -5 -4 -1 -8 -0 -0 -5 -7 -15 -17 -5 -8 -9 -9 -8 -8 -10 -9 -9 -9 -8 -6 -5 -0 2 1 8 5 9 11 11 11 11
-26 -26 -26 -28 -29 -29 -26 -15 -9 -6 -4 -4 -8 -3 -1 1 -0 -1 -6 -8 -16 -16 -2 -8 -9 -8 -5 -7 -9 -9 -9 -8 -8 -7 -3 -1 1 5 9 12 11 12 11 11 11
-14 -24 -25 -27 -29 -30 -30 -24 -17 -12 -7 -6 -7 -4 5 2 -3 -4 -4 -9 -14 -10 -5 -9 -7 -5 -5 -5 -7 -6 -6 -7 -8 -7 -2 0 4 5 9 11 11 11 11 10 10
1 -5 -19 -26 -28 -29 -30 -30 -28 -20 -9 -8 -6 -1 4 2 -4 -4 1 -4 -8 -6 -5 -5 -5 -5 -5 -4 -7 -7 -6 -8 -7 -6 -2 1 1 4 8 9 9 10 9 9 10
3 2 0 -16 -26 -26 -29 -30 -29 -17 -10 -12 -5 -0 4 -13 -2 -2 -2 -1 -4 -5 -4 -5 -5 -5 -4 -4 -5 -6 -7 -4 -4 -3 2 3 8 3 5 8 8 7 7 7 8
3 3 2 1 -14 -23 -28 -30 -29 -14 -10 -6 -3 3 1 -5 -2 -5 -3 -1 -4 -4 -4 -4 -5 -5 -6 -4 -4 -6 -5 -4 -1 -3 3 5 8 4 6 6 6 6 6 8 9
2 3 3 2 1 -17 -24 -30 -24 -5 4 3 4 2 0 -5 -4 -4 -4 -1 -5 -5 -4 -4 -6 -5 -5 -4 -2 -4 -2 -3 0 -2 -2 6 8 8 8 4 4 4 5 6 7
-1 1 3 2 2 -3 -19 -27 2 8 7 3 0 -4 -8 -3 -6 -7 -6 -1 -4 -5 -3 -5 -4 -3 -5 -5 -7 -7 -3 -1 -3 -2 -2 -0 8 10 8 4 4 3 3 3 4
-1 0 2 2 2 1 -7 -0 -1 4 2 -3 -0 -0 -1 -2 -4 -5 -7 -1 -3 -2 -4 -3 -1 -4 -5 -5 -7 -7 -6 -4 -4 -3 -4 -6 4 8 9 5 2 3 4 2 3
-1 -3 1 2 2 -1 -4 -7 2 4 2 -6 -8 -7 -7 -4 -3 -5 -8 -1 -2 -1 -2 -1 -2 -3 -5 -5 -6 -7 -5 -6 -4 -2 -4 -6 -6 5 5 3 3 3 5 4 2
-2 -3 0 3 -1 1 -1 -1 -3 3 2 -11 -11 -4 -7 -6 -5 -4 -6 -5 -3 -2 -3 -3 -4 -4 -4 -5 -7 -5 -8 -5 -3 -3 -3 -3 1 -1 1 1 3 2 3 3 3
-1 -2 -3 2 2 3 5 3 4 6 -2 -17 -14 -5 -4 -4 -6 -5 -6 -5 -3 -3 -4 -2 -3 -4 -3 -6 -8 -6 -4 -3 -4 -4 -2 -2 -0 -4 -4 -2 1 3 3 3 2
-1 -2 -2 -2 2 -1 4 4 4 4 -2 -13 -3 -3 -3 -3 -5 -6 -6 -6 -5 -4 -5 -4 -6 -5 -4 -7 -7 -8 -4 -2 -2 -3 2 1 -2 -3 -3 -4 -3 -0 2 2 2
-2 -1 -2 0 2 1 2 4 5 1 -14 -14 -3 -1 -3 -2 -3 -4 -5 -4 -2 -0 0 -4 -5 -6 -6 -6 -6 -5 -3 1 2 2 5 -1 -1 -1 -3 -1 1 1 0 4 2
-1 -0 -1 1 0 3 3 5 -1 -9 -7 -13 -12 -5 0 -2 -1 -3 -4 -3 -4 -4 -1 -1 -0 -4 -7 -6 -4 -3 -3 3 5 8 6 5 3 -4 -4 -4 -6 -6 1 2 2
-1 0 1 1 -0 3 3 4 -0 -10 -14 -9 -10 -4 -3 -1 -2 -2 -4 -2 -3 -4 -1 -1 -2 -6 -6 -7 -5 -3 -1 -3 0 5 8 9 3 -6 -6 -6 -8 -8 -6 -6 -6
1 1 1 0 -0 3 3 4 0 -9 -13 -12 -9 -10 -5 -1 -1 -2 -3 -5 -4 -5 -4 -3 -0 -4 -6 -6 -5 -4 -5 3 1 5 7 2 1 -1 -2 -6 -8 -8 -7 -6 -3
1 2 1 0 0 3 3 2 -2 -5 -8 -9 -7 -6 -8 -7 -2 -1 -2 -4 -4 -5 -5 -4 -1 -1 -3 -3 -3 -3 -2 0 2 2 8 6 3 -1 -1 -6 -6 -6 -8 -7 -4
2 2 1 0 2 2 3 -1 -3 -5 -7 -7 -8 -8 -8 -6 -2 0 -1 -3 -6 -5 -3 -4 -1 2 -2 -5 -5 -4 -2 -2 4 4 4 9 4 -3 -2 -4 -5 -6 -7 -7 -5
2 1 1 0 2 2 0 1 -4 -4 -5 -5 -5 -7 -7 -1 5 4 2 -2 -5 -3 -3 -3 -2 3 1 -2 -3 -3 -4 -2 1 2 6 10 4 -3 -5 -6 -7 -6 -7 -6 -5
1 2 2 2 -0 0 1 1 -1 -5 -5 -7 -8 -8 -6 -2 2 5 5 -1 -2 -4 -5 -0 -1 0 4 0 -1 -0 -3 -4 1 6 5 6 3 1 -1 -1 -4 -6 -6 -6 -5
1 1 2 2 2 -0 -1 -3 -1 -3 -5 -5 -5 -5 -5 -2 2 4 5 5 2 -0 -3 2 2 -0 -1 -3 -3 -3 -3 -4 -3 4 5 4 4 1 -1 -2 -2 -4 -3 -5 -5
-0 2 0 -2 1 1 -0 0 -3 -4 -4 -5 -4 -7 -6 -4 1 4 6 6 4 2 -0 1 2 1 2 -1 -4 -2 -4 -5 -4 -4 -4 -3 -2 -5 -4 -3 -1 -3 -4 -3 -3
0 0 -0 -1 1 1 1 0 -1 -3 -5 -7 -6 -5 -4 -6 -3 3 6 6 5 5 5 2 3 3 5 1 -1 1 -2 -4 -5 -5 -4 -1 -2 -5 -5 -6 -7 -4 -6 -4 -2

GFSSW_850_dewp_039.txt.gz
Dewpoint
-7 -6 -2 -1 3 1 0 -1 -1 0 1 1 1 0 -3 -2 -3 -7 -10 -4 -0 -2 -13 -11 -5 -8 -6 -6 -6 -8 -7 -5 -6 -4 -5 -3 0 6 8 8 7 9 11 10 11
-22 -21 -22 -21 -15 -7 -3 -4 -4 -5 -7 -6 -5 -7 -6 -4 -5 -7 -7 -6 -2 -6 -15 -7 -5 -6 -6 -6 -6 -8 -6 -6 -7 -6 -6 -5 1 7 6 8 8 11 11 12 11
-23 -26 -27 -28 -27 -22 -23 -21 -14 -11 -11 -10 -9 -12 -13 -7 -5 1 -2 -3 -4 -12 -11 -4 -6 -7 -7 -7 -8 -8 -6 -8 -8 -6 -6 0 3 7 6 6 6 9 11 11 11
-20 -24 -26 -28 -29 -28 -29 -30 -27 -17 -14 -11 -12 -14 -16 -7 0 -0 -3 -6 -8 -16 -10 -7 -9 -9 -8 -7 -8 -9 -9 -9 -8 -7 -5 -0 5 9 6 8 6 10 10 11 11
-6 -15 -24 -27 -29 -28 -29 -31 -31 -26 -21 -14 -12 -9 -15 2 -2 -6 -1 -4 -8 -16 -17 -6 -7 -9 -7 -5 -5 -9 -9 -8 -7 -8 -4 3 8 10 12 11 10 11 11 11 10
3 -2 -13 -22 -27 -29 -29 -30 -31 -31 -27 -21 -8 -8 -2 5 -11 -2 -2 -4 -9 -14 -14 -5 -6 -8 -5 -5 -3 -6 -6 -6 -7 -7 -1 3 6 8 11 10 11 10 11 11 10
2 3 -1 -13 -19 -26 -29 -30 -31 -31 -25 -16 -7 -4 -0 -14 -13 -2 0 1 -7 -11 -7 -5 -6 -5 -5 -3 -4 -4 -4 -6 -6 -7 1 -1 2 8 10 11 10 9 10 10 9
2 2 2 1 -5 -18 -26 -30 -31 -30 -23 -14 -7 -0 3 -29 -16 -16 -4 0 -1 -6 -5 -5 -4 -5 -4 -4 -4 -3 -4 -3 -6 1 2 0 5 4 8 9 9 8 8 9 9
0 1 1 2 1 -6 -20 -28 -31 -30 -21 -3 -3 2 4 -2 -6 -18 -4 -3 -0 -4 -5 -5 -4 -5 -4 -3 -2 -3 -2 -4 -5 -3 4 3 6 4 6 9 8 8 6 8 10
-2 -2 1 1 3 0 -13 -24 -32 -29 -6 6 4 5 -3 -7 -8 -5 -7 -5 -1 -3 -4 -4 -4 -3 -4 -3 1 -0 -3 -2 -0 0 4 7 7 4 5 9 8 7 7 8 9
-1 -1 -1 -0 2 2 -8 -19 -4 4 7 6 2 -8 -7 -6 -3 -4 -5 -4 -1 -3 -2 -4 -2 -1 -3 -4 -4 -4 -4 -3 -2 -0 3 6 7 3 2 8 8 6 7 9 8
0 -2 -2 -0 1 2 -0 -8 -5 2 3 3 3 4 1 -1 1 -2 -6 -5 -1 -0 -3 -2 -0 -3 -4 -4 -3 -3 -3 -5 -5 -1 -0 5 6 4 5 8 5 5 6 8 8
1 -1 -1 -3 -0 0 -3 -9 -18 -3 3 0 -2 -2 -8 -7 -3 -2 -5 -6 -0 -0 -2 -1 -2 -4 -3 -2 -2 -3 -3 -5 -3 -2 -3 -2 9 9 7 6 7 3 3 5 8
0 0 -1 -3 -0 3 1 4 -3 1 6 -1 -9 -8 -8 -9 -5 -7 -3 -6 -0 0 -1 -1 -3 -2 -2 -1 -3 -3 -6 -5 -4 -2 1 -4 2 10 7 7 6 4 3 4 7
0 -0 -1 -2 1 2 4 5 4 4 -3 -9 -11 -12 -11 -7 -6 -5 -7 -4 -1 0 -1 -0 -1 -1 -1 -2 -4 -3 -4 -2 -2 -0 -1 -1 1 -0 6 7 5 4 5 4 5
-1 -0 -0 -1 -1 -2 2 5 5 6 6 -7 -4 -3 -3 -7 -6 -5 -5 -5 -6 -1 -2 -2 -4 -4 -3 -4 -5 -6 -2 -2 -1 0 3 -0 1 2 6 5 4 4 5 4 4
0 -1 0 -1 -3 1 2 3 5 4 -14 -16 -3 -3 -2 -2 -4 -4 -3 -3 -2 -1 0 -2 -3 -5 -5 -2 -4 -4 -2 3 3 4 4 4 4 3 -1 -0 -1 3 3 4 4
1 -0 -0 -0 -3 3 4 4 5 -4 -6 -12 -11 -3 0 -2 -1 -1 -2 -1 -4 -2 -0 1 1 -3 -5 -3 -2 -3 -1 5 4 6 6 5 5 3 0 -0 -3 3 2 2 4
1 1 0 -1 -2 0 3 4 1 -3 -9 -10 -12 -8 -7 -0 -1 -1 -1 -1 -3 -4 -1 1 -0 -5 -6 -5 -5 -3 -0 -2 2 7 7 8 5 3 -1 -2 -2 -2 1 1 -0
2 2 1 -2 -1 1 3 2 0 -3 -7 -7 -7 -8 -7 -5 0 1 0 -3 -2 -5 -5 -1 1 -3 -4 -6 -5 -4 -3 1 3 8 8 7 7 5 0 -2 -4 -6 -1 -1 -0
2 2 1 -1 0 1 3 1 -1 -3 -3 -2 -5 -7 -8 -4 -5 -5 -1 -2 -4 -4 -5 -4 -1 0 -2 -2 -3 -2 -2 0 3 6 7 6 4 1 2 -1 -5 -8 -6 -4 -2
2 2 1 -1 2 1 2 0 -2 -4 -4 -3 -4 -4 -4 -4 -4 -4 4 2 1 -1 -2 -3 -0 1 -1 -2 -4 -4 -2 -1 6 6 6 7 4 -1 -2 -1 -5 -6 -7 -5 -2
2 1 2 0 2 1 -0 0 -1 -1 -3 -3 -3 -5 -5 -4 -3 5 4 3 4 4 3 -2 -1 1 0 -2 -3 -3 -3 -2 0 4 5 6 6 -1 -2 -2 -5 -6 -7 -5 -4
2 1 2 2 -1 -1 -0 0 0 -2 -0 -2 -4 -4 -4 -2 -4 3 5 3 4 4 5 4 -2 -1 1 -0 -0 1 -0 -2 -1 5 5 5 4 2 1 -1 -3 -3 -3 -4 -5
2 0 1 2 1 0 -2 -1 -0 1 -2 -3 -3 -3 -3 -2 -3 0 2 4 3 4 5 6 3 -1 -3 -2 -1 -0 -0 0 -1 1 4 4 4 2 1 -1 -2 -4 -4 -4 -4
-0 0 2 -1 0 1 0 -1 -1 -2 -2 -2 -3 -4 -4 -3 -4 -3 3 6 6 6 6 5 5 2 2 -2 -2 -1 0 -0 -2 -2 2 2 2 -0 -1 -2 0 -3 -4 -3 -3
2 1 -0 0 1 2 1 0 -1 -1 -3 -4 -4 -4 -3 -3 -4 3 2 4 6 5 5 7 6 3 3 1 0 2 1 -1 -1 -2 -2 3 1 -2 -2 -1 -1 -2 -4 -3 -3

GFSSW_850_dewp_042.txt.gz
Dewpoint
-21 -22 -23 -23 -23 -20 -13 -10 -7 -9 -11 -11 -11 -11 -10 -9 -6 -8 -8 -8 -4 -2 -5 -14 -13 -15 -7 -6 -6 -6 -6 -5 -6 -6 -5 -0 3 7 7 7 10 11 11 10 10
-21 -25 -27 -28 -28 -28 -25 -24 -24 -25 -22 -19 -18 -17 -19 -18 -14 -10 -2 -9 -5 -4 -9 -17 -8 -4 -4 -6 -6 -7 -6 -6 -8 -7 -6 2 5 7 7 7 10 11 12 11 12
-15 -21 -24 -26 -29 -27 -29 -29 -31 -32 -29 -25 -23 -22 -22 -19 -15 -5 -2 -4 -5 -5 -12 -10 -5 -3 -4 -6 -7 -8 -6 -8 -8 -7 -4 7 7 7 4 5 7 10 11 11 11
2 -9 -11 -21 -26 -27 -28 -30 -31 -32 -32 -30 -27 -23 -24 -16 -7 1 -3 -2 -5 -8 -15 -7 -5 -8 -9 -8 -8 -7 -7 -8 -9 -6 -3 3 7 9 7 7 5 8 10 10 10
0 2 1 -9 -18 -23 -28 -29 -31 -31 -32 -30 -27 -19 -14 -1 -11 -14 -12 -1 -4 -7 -15 -7 -7 -7 -8 -8 -5 -5 -7 -7 -7 -3 6 6 9 11 11 10 10 10 10 11 11
2 2 1 -4 -4 -19 -22 -28 -29 -30 -30 -30 -20 -16 -2 4 -22 -9 -5 0 -2 -5 -11 -16 -8 -6 -7 -4 -4 -4 -3 -4 -6 -7 6 10 11 9 11 10 11 10 11 11 10
1 1 1 1 -2 -10 -16 -22 -29 -30 -29 -27 -14 -7 3 -9 -29 -7 -1 1 0 -4 -10 -13 -6 -4 -5 -4 -4 -4 -4 -5 -6 -6 2 3 5 9 11 11 11 10 10 10 9
-0 -2 -1 -0 0 -3 -18 -16 -25 -29 -28 -27 -13 -4 1 -30 -26 -22 -8 -2 -1 -0 -7 -8 -5 -5 -4 -4 -4 -3 -4 -3 -6 0 1 -0 4 6 10 11 10 9 9 9 7
-0 -1 -3 -3 -0 -3 -11 -23 -23 -26 -28 -25 -4 2 1 -8 -6 -8 -18 -10 -2 -1 -5 -5 -4 -5 -5 -3 -3 -2 -1 -2 -3 -3 2 2 4 4 11 10 10 8 9 9 9
-1 -1 -1 -3 -3 -3 -8 -20 -26 -28 -26 -9 6 4 -4 -12 -2 -2 -6 -8 -3 -1 -2 -2 -4 -4 -4 -3 -0 -1 -2 -3 -3 2 3 5 4 5 7 9 8 8 7 9 8
1 -0 -0 -2 -4 -2 -4 -12 -8 5 4 5 5 -1 -5 -7 -3 -2 -4 -7 -4 -1 -1 -4 -2 -0 -3 -3 -3 -3 -2 -2 -4 -1 4 5 4 5 7 9 8 7 6 8 9
1 1 0 -2 -4 -3 -2 -1 -2 1 1 -2 2 4 1 2 3 -3 -2 -4 -3 1 -3 -2 -0 -2 -3 -3 -2 -2 -2 -2 -4 -2 0 5 6 4 7 8 9 7 7 7 8
0 1 0 -1 -3 -4 0 -1 4 5 3 -1 -3 -1 -1 -3 3 -2 -2 -4 -1 1 -1 -1 -2 -3 -2 -2 -2 -2 -1 -1 -4 -3 -2 5 6 6 4 7 7 8 6 8 8
0 0 1 -0 -5 -1 2 4 3 5 3 -2 -3 -7 -4 -5 -3 -19 -7 -5 -2 1 1 -2 -4 -3 -1 -1 -2 0 -2 -3 -4 -1 -0 -2 2 8 5 6 6 6 6 8 8
-0 -0 1 -0 -3 1 3 3 4 5 -14 -15 -7 -14 -6 -8 -12 -8 -14 -4 -3 1 -0 1 -0 -1 -1 -1 -2 -0 -1 -3 -2 -1 -1 -1 0 -1 6 6 5 6 5 7 8
1 1 -0 0 -1 -5 -2 0 4 4 1 -5 -8 -6 -6 -8 -6 -5 -6 -5 -4 -0 -0 -0 -3 -2 -2 -2 -2 -3 -4 -2 -1 0 3 0 1 2 7 5 4 5 4 5 7
1 1 1 -0 -1 -3 2 3 6 4 -9 -14 -4 -3 -4 -6 -6 -5 -3 -3 -1 1 1 1 0 -2 -3 -2 -3 -3 -1 2 3 4 5 2 4 3 -0 2 4 5 4 4 6
1 1 1 -1 -1 -2 1 4 6 -3 -7 -10 -8 -10 -2 -3 -5 -4 -2 -1 -3 -3 -1 -0 2 -2 -3 -2 -2 -2 -1 3 5 6 3 5 4 2 -1 -0 1 3 4 4 4
2 2 2 -1 -1 -1 1 4 2 -1 -5 -8 -12 -11 -9 -7 -1 -2 -1 -1 -2 -3 0 1 0 -4 -4 -4 -3 -1 -0 -1 1 5 6 5 4 1 0 -1 -1 -1 3 4 5
2 2 2 -0 -1 -0 2 2 0 -2 -5 -3 -3 -9 -7 -6 -2 0 1 -1 -1 -3 -4 -1 2 -2 -4 -4 -4 -3 -3 1 3 5 7 6 5 3 1 -1 -2 -3 3 3 4
2 2 1 0 0 1 2 1 -1 -3 -3 -2 -2 -1 -5 -5 -4 -3 -2 -0 -0 -2 -4 -3 -1 -1 -2 -1 -2 -2 -2 1 1 5 6 6 5 2 1 -0 -1 -3 -4 2 2
2 2 1 0 1 0 1 -1 -1 -2 -3 -3 -2 -2 -4 -3 -3 -4 -1 -1 3 3 4 2 -1 1 -1 -4 -3 -4 -2 -0 3 5 5 5 4 -0 -1 -0 -2 -3 -5 -5 -3
1 1 1 0 1 1 -1 -1 -1 -1 -2 -2 -2 -2 -4 -3 -1 -2 -0 4 3 4 6 5 6 3 1 -2 -3 -2 -2 -2 2 4 5 6 4 -0 -1 -2 -3 -5 -6 -4 -2
1 1 1 1 -0 -1 -1 -1 -1 -2 -1 -1 -1 -1 -2 -2 -3 -1 0 3 3 5 4 5 7 6 4 0 -2 -0 -2 -2 -1 4 3 4 2 2 0 0 -2 -4 -5 -6 -0
1 -0 1 2 1 0 -1 -2 -1 -1 -1 -1 -0 -1 -1 -0 -2 -2 -2 4 3 5 5 7 8 7 6 3 -2 -2 -1 -0 -0 1 3 1 3 1 -0 0 -0 -2 -3 -4 -4
-0 0 1 -0 1 1 -0 -0 -1 -1 -2 -1 1 -3 -2 -1 -2 -1 -2 -2 4 5 5 5 7 5 5 3 1 -1 -3 -1 -1 0 0 -0 1 0 -1 -1 -1 -2 -3 -3 -4
1 1 1 1 2 2 1 -1 -1 -2 -2 -3 -2 -1 -2 -3 -4 -3 2 3 3 4 5 5 5 6 6 4 2 2 -1 -2 0 -1 -0 2 1 -1 -0 -0 -0 -1 -2 -3 -4

GFSSW_850_dewp_045.txt.gz
Dewpoint
-19 -15 -23 -26 -24 -24 -26 -26 -25 -22 -26 -28 -26 -22 -21 -20 -11 -11 -9 -8 -5 -9 -3 -10 -11 -17 -13 -6 -5 -6 -5 -4 -5 -6 -6 1 4 7 6 7 9 10 11 11 11
-8 -11 -13 -21 -23 -23 -25 -28 -28 -27 -30 -32 -30 -30 -28 -26 -21 -13 -9 -6 -2 -1 -5 -12 -8 -6 -5 -5 -6 -6 -5 -6 -8 -8 -6 0 4 7 8 7 10 10 11 11 11
-16 -9 -4 -5 -17 -12 -25 -26 -28 -28 -30 -31 -32 -32 -31 -29 -21 -9 -2 -4 -5 -3 -4 -14 -5 -4 -4 -5 -6 -7 -5 -7 -7 -8 -7 6 7 6 5 5 6 8 10 10 10
-9 -11 -2 -3 -4 -6 -17 -21 -25 -27 -29 -29 -31 -32 -31 -23 -13 0 -2 -2 -3 -4 -4 -11 -5 -5 -8 -7 -8 -7 -8 -8 -7 -8 1 6 6 8 6 5 5 6 9 10 10
-7 -8 -7 -1 -1 -3 -9 -18 -15 -26 -27 -27 -28 -26 -25 -6 -22 -17 -2 -5 -4 -4 -7 -14 -6 -7 -8 -9 -6 -6 -5 -4 -4 -5 1 6 8 9 10 9 9 9 10 10 10
-10 -10 -10 -2 -2 -1 -5 -19 -10 -21 -24 -25 -25 -22 -7 3 -25 -21 -19 -18 -4 -4 -7 -14 -8 -6 -6 -6 -4 -4 -4 -4 -5 1 7 8 10 10 10 10 9 10 10 10 10
-6 -4 -8 -5 -6 -3 -8 -12 -18 -20 -18 -22 -22 -15 -3 -22 -28 -25 -7 -2 0 -1 -5 -10 -14 -5 -5 -4 -4 -4 -4 -5 -6 -3 6 7 8 10 9 10 10 11 11 11 11
-3 -5 -7 -3 -2 -5 -7 -12 -19 -24 -18 -19 -20 -5 -4 -29 -29 -28 -22 -2 1 0 -2 -7 -9 -5 -4 -4 -5 -4 -4 -3 -5 0 2 -0 4 5 10 11 11 10 10 11 10
1 0 -2 -3 -3 -6 -12 -14 -17 -19 -21 -19 -15 -2 -2 -15 -10 -4 -4 -17 0 -3 -1 -3 -4 -4 -4 -4 -3 -3 -3 -2 -3 -5 1 1 3 4 11 11 10 10 9 8 9
-0 1 0 -0 -3 -5 -12 -15 -15 -14 -16 -16 2 1 -16 -16 -6 -2 -2 -2 -14 -5 -1 -0 -2 -3 -4 -3 -1 -3 -1 -3 -3 -4 3 4 3 5 11 11 10 9 8 7 8
-0 1 1 1 0 -2 -9 -7 -8 3 2 -2 1 -5 -6 -0 -1 -2 -0 -4 -5 -2 0 -3 -2 -1 -2 -3 -4 -3 -2 -2 -3 -5 0 3 4 4 8 10 9 9 8 7 7
0 0 0 0 -0 -1 -4 -0 1 2 2 -1 -3 -1 -5 -2 3 -6 -0 -5 -3 -0 -1 -2 -1 -2 -3 -3 -3 -2 -2 -1 -3 -4 -1 2 4 4 7 9 9 8 7 6 7
0 0 0 0 -0 -2 -3 2 2 2 3 2 -7 -13 -9 -4 1 -5 -4 -3 -3 0 -0 1 -1 -3 -2 -2 -1 -1 -1 -1 -1 -3 1 4 3 6 4 7 9 9 6 6 6
1 -0 -0 -0 0 -1 1 3 2 3 3 -5 -1 -7 -6 -4 2 -8 -7 -3 -3 -1 1 -1 -2 -2 -1 -1 -2 -0 -2 -2 -0 -2 1 -0 3 -1 5 6 7 8 8 7 6
1 1 0 -1 0 -1 -1 1 1 4 -15 -16 -6 -10 -5 -5 -10 -4 -18 -4 -3 1 1 2 -1 -1 -1 -2 -2 -1 -2 -0 -0 -1 -1 -1 -0 -2 6 6 6 6 7 7 7
1 1 1 0 -0 -1 -1 -3 3 5 -3 -7 -8 -3 -2 -5 -7 -5 -5 -6 -4 -3 -0 -0 -2 -3 -2 -3 -3 -2 -1 -2 -1 0 3 -0 -0 1 5 4 3 4 4 5 6
1 2 1 1 0 -1 -2 1 5 4 -7 -12 -7 -5 -5 -4 -6 -4 -4 -2 -1 1 0 -0 1 -1 -2 -1 -2 -2 -1 2 2 4 4 -0 4 2 -2 1 3 3 4 3 5
0 2 2 1 0 -0 -1 3 5 -1 -2 -8 -10 -11 -3 -6 -6 -4 -3 -3 -3 -3 -1 -0 1 -1 -1 -0 -0 -1 -1 3 4 5 2 4 5 2 -1 -2 -2 -0 1 3 4
0 2 1 1 0 0 -0 3 1 1 -3 -2 -6 -12 -8 -6 -2 -4 -3 -1 -4 -3 -1 1 -0 -4 -3 -3 -2 -0 0 -2 1 4 5 4 2 -0 -0 -1 -1 0 3 4 4
1 2 2 1 1 1 1 1 0 -1 -2 -3 -1 -3 -4 -5 -3 -0 0 -1 -1 -3 -4 -1 1 -2 -3 -4 -3 -2 -3 1 2 4 7 4 5 2 -1 -3 -2 -1 -0 3 4
1 2 2 2 1 1 0 -1 -2 -3 -2 -1 -2 -3 -4 -3 -3 -3 -3 2 2 2 -1 -3 -1 -1 -2 -1 -1 -2 -1 -0 0 3 2 3 3 2 -1 -1 -1 -2 -2 -1 3
0 1 2 1 1 1 -0 -3 -3 -3 -2 -3 -2 -1 -1 -3 -4 -5 -3 -4 3 3 5 4 1 2 -1 -4 -4 -3 -2 -0 2 3 5 4 1 -2 -0 -1 -0 -1 -2 -4 -3
-0 0 1 2 2 1 -2 -2 -2 -1 -1 -2 -1 -1 -4 -4 -3 -3 -3 3 4 5 4 3 6 6 2 -1 -3 -2 -3 -3 2 3 2 5 1 -1 -2 -1 -2 -3 -5 -6 -6
-0 1 1 2 1 -1 0 -1 -1 -3 -2 -1 -1 -1 -2 -2 -3 -2 -1 -2 3 4 4 5 6 8 9 7 5 5 2 -2 -0 3 2 2 1 -1 0 -1 -2 -3 -4 -5 -6
-1 -1 1 2 1 0 -1 -2 -1 -1 -2 -2 -2 -1 -1 0 -1 -2 -3 1 2 4 4 5 5 7 6 3 3 3 4 3 -0 -1 1 0 2 -0 -0 -1 -2 -2 -3 -4 -6
-1 0 1 2 1 1 0 -0 -1 -2 -2 -1 0 -0 -1 -1 -2 -2 -3 -3 1 3 3 5 4 5 5 2 2 3 2 2 1 -1 0 -1 0 -1 -1 -1 -1 -2 -2 -3 -4
-1 -0 1 2 2 2 1 -0 -0 -2 -2 -3 -2 -2 -1 -2 -3 -4 -4 -5 -1 3 4 5 5 5 4 3 2 1 3 1 0 -2 -0 1 -0 -2 -0 0 -1 -2 -2 -2 -3

GFSSW_850_dewp_048.txt.gz
Dewpoint
-6 -12 -16 -17 -19 -22 -25 -24 -27 -27 -26 -29 -31 -32 -31 -28 -29 -24 -16 -12 -9 -6 -5 -6 -12 -14 -6 -5 -5 -6 -4 -3 -5 -6 -7 1 3 5 7 7 9 10 11 10 10
-1 -3 -7 -12 -19 -17 -19 -19 -21 -26 -25 -27 -31 -32 -32 -28 -31 -27 -14 -12 -5 -7 -3 -7 -9 -15 -10 -5 -5 -6 -4 -5 -7 -8 -7 -2 2 4 7 7 9 10 10 10 10
-5 -4 -3 -4 -10 -18 -18 -18 -18 -19 -21 -25 -29 -31 -33 -28 -24 -14 -1 -5 -1 -2 -3 -8 -6 -5 -4 -6 -6 -7 -5 -6 -7 -8 -7 -4 6 7 6 5 5 8 10 10 9
-7 -6 -5 -5 -5 -9 -18 -17 -18 -17 -18 -17 -26 -29 -31 -27 -15 -1 -1 -2 -2 -2 -3 -10 -4 -3 -7 -6 -7 -6 -7 -8 -7 -5 -4 5 6 7 5 5 6 6 9 10 10
-6 -8 -7 -6 -10 -9 -14 -15 -17 -18 -18 -15 -18 -26 -27 -8 -20 -15 -1 -5 -5 -2 -3 -10 -6 -6 -8 -8 -7 -7 -6 -4 -4 -5 -4 4 7 8 8 7 8 8 10 10 10
-5 -5 -7 -6 -8 -15 -15 -14 -12 -17 -16 -19 -12 -24 -12 1 -24 -21 -25 -15 -12 -11 -3 -8 -8 -6 -7 -7 -5 -5 -4 -4 -5 -5 7 7 9 10 8 8 9 9 10 11 10
-1 -1 -0 -4 -8 -12 -15 -15 -15 -12 -15 -16 -12 -14 -5 -27 -30 -23 -23 -6 -6 -5 -4 -7 -11 -4 -4 -4 -4 -4 -4 -5 -6 -6 5 7 6 9 8 9 9 10 11 11 10
1 1 0 0 -0 -7 -13 -17 -17 -16 -16 -17 -13 -6 -4 -31 -31 -28 -25 -13 -0 -1 -2 -5 -9 -6 -5 -4 -5 -4 -4 -3 -5 0 1 4 3 2 8 9 10 10 11 10 10
-1 0 -0 1 1 -1 -6 -8 -13 -16 -18 -16 -13 -3 -7 -18 -18 -4 -2 -12 -3 1 -0 -3 -5 -5 -4 -3 -2 -3 -3 -3 -4 -5 1 1 3 4 10 10 10 10 11 11 10
-0 0 -0 0 1 1 -0 -8 -10 2 -6 -10 2 1 -19 -25 -9 -2 0 0 -4 -3 -2 -1 -1 -3 -3 -3 -0 -1 -1 -2 -3 -4 1 3 3 3 10 11 10 9 9 10 9
0 1 0 0 0 0 -0 -5 -6 -1 -2 2 1 -5 -8 -5 -2 0 -0 -1 -4 -2 1 -1 -1 -0 -2 -3 -5 -4 -3 -2 -4 -5 -4 -3 -1 -2 9 11 11 10 9 9 8
0 0 -0 -0 0 0 -0 1 2 2 2 -1 -6 -1 -4 2 2 -14 -5 -3 -3 -1 -1 -2 0 -2 -3 -3 -3 -3 -2 -2 -4 -4 -3 -2 0 2 6 9 10 10 9 8 8
0 -1 -1 -0 -0 -1 -1 2 3 1 3 1 -2 -4 -4 -3 -1 -8 -3 -3 -3 -0 1 0 -1 -3 -3 -2 -2 -2 -1 -2 -2 -2 -2 2 2 3 4 6 8 9 9 8 6
0 -0 -1 0 -0 -1 1 2 1 2 2 -2 0 -3 -5 -6 0 -11 -8 -6 -2 -1 0 1 -1 -2 -2 -1 -2 -0 -2 -2 -1 -1 2 0 4 -1 0 4 7 7 9 8 7
-0 -0 1 1 1 0 -1 -1 -3 3 -13 -15 -4 -6 -4 -6 -9 -4 -9 -6 -2 -1 1 2 0 0 -0 -1 -2 -1 -2 -1 -1 0 -1 -1 1 -1 5 3 4 5 6 6 7
-1 0 1 2 1 0 0 -2 0 3 -1 -10 -7 -2 -1 -2 -6 -3 -2 -4 -4 -1 0 -1 -2 -2 -1 -2 -3 -3 -1 -0 -0 1 4 1 0 0 1 2 1 2 3 3 4
-2 -0 1 2 2 1 0 -2 4 3 -4 -8 -8 -6 -4 -2 -4 -5 -3 -1 -2 -0 0 -1 0 -1 -3 -1 -2 -2 -1 3 3 4 5 0 1 -0 -3 -2 0 -1 -0 1 2
-2 -0 0 2 2 2 1 2 3 -0 -0 -4 -5 -6 -4 -5 -6 -4 -4 -4 -4 -2 0 0 0 0 -1 -0 1 0 0 4 5 5 2 2 4 2 -1 -2 -3 -1 -1 -0 2
-2 -1 0 1 2 2 -0 2 0 -1 -2 -2 -4 -5 -4 -5 -2 -4 -4 -4 -4 -3 -1 0 -0 -4 -2 -1 -1 1 1 -1 1 3 5 2 1 -1 -1 -1 -1 -1 -2 -2 1
-2 -0 -0 1 2 2 1 -0 -0 -2 -2 -1 -2 -3 -2 -4 -3 -2 0 2 -2 -4 -4 -1 1 -2 -3 -3 -3 -2 -2 2 2 4 6 3 4 1 -1 -1 -2 -3 -3 -2 2
-1 0 1 0 2 1 1 1 -3 -5 -4 -1 0 -1 -3 -4 -4 -5 -3 2 3 2 -3 -3 -1 -1 -3 -2 -1 -1 -0 -0 1 3 4 4 2 1 -1 -2 -3 -3 -3 -3 -1
-0 1 1 1 2 -0 1 -2 -5 -4 -3 -2 -2 -1 -1 -2 -3 -6 -4 1 4 4 4 4 1 1 -1 -3 -4 -3 -2 -0 3 2 4 3 1 -3 -1 -2 -1 -1 -2 -3 -2
-0 -0 1 2 2 1 0 -1 -3 -1 -1 -1 -1 -1 -3 -4 -4 -3 -1 1 -1 5 4 4 6 6 2 -1 3 3 0 2 0 1 2 4 2 -2 -2 -2 -3 -2 -3 -4 -6
-1 -0 1 1 1 -0 1 1 -1 -3 -2 -2 -1 -2 -2 -1 -3 -2 -1 -3 -3 4 3 3 6 5 7 6 5 6 3 2 4 3 2 1 0 -2 -2 -1 -2 -3 -3 -5 -5
-1 -1 1 1 1 1 -0 -1 -0 -1 -3 -2 -1 -1 -0 0 -1 -2 -3 -2 -3 2 3 3 4 6 6 5 4 3 2 2 2 3 4 2 0 -2 -2 -2 -2 -4 -4 -3 -4
-1 -1 0 1 0 1 1 1 -1 -2 -3 -1 -0 -0 -1 -0 -1 -1 -3 -3 -3 -2 3 4 3 5 5 4 4 2 1 1 2 2 2 1 1 -3 -3 -3 -2 -2 -2 -2 -3
-1 -1 0 -1 2 2 1 0 0 -2 -3 -4 -2 -1 -1 -2 -3 -3 -3 -4 -3 -1 1 4 4 5 4 3 2 3 1 1 0 -1 1 3 1 -2 -2 -2 -1 -2 -2 -2 -2

GFSSW_850_dewp_051.txt.gz
Dewpoint
-6 -2 -3 -3 -4 -6 -9 -18 -18 -20 -21 -25 -30 -32 -33 -33 -34 -33 -26 -18 -14 -9 -4 -7 -9 -14 -4 -4 -4 -5 -4 -3 -4 -5 -6 -2 1 3 5 7 7 8 10 10 10
-8 -8 -7 -6 -6 -4 -4 -5 -17 -18 -20 -22 -26 -30 -33 -32 -34 -32 -17 -20 -16 -5 -2 -6 -11 -12 -6 -5 -5 -5 -3 -4 -6 -7 -7 -7 0 1 7 7 8 8 9 9 9
-7 -8 -8 -8 -8 -9 -9 -4 -10 -16 -18 -19 -22 -27 -31 -32 -29 -12 -0 -2 -6 -3 -3 -6 -11 -15 -5 -5 -5 -5 -4 -6 -7 -7 -8 -7 -1 5 6 5 6 8 7 9 9
-7 -8 -8 -8 -8 -8 -11 -12 -12 -15 -14 -17 -19 -23 -28 -31 -19 -1 -2 -2 -2 -1 -1 -7 -7 -4 -4 -4 -6 -5 -6 -7 -7 -6 -5 -4 4 6 6 5 5 5 7 9 9
-6 -7 -4 -6 -8 -8 -9 -11 -14 -15 -12 -10 -17 -22 -23 -17 -28 -31 -16 0 1 1 -1 -9 -3 -5 -5 -7 -7 -6 -7 -7 -6 -5 -4 2 5 6 7 5 6 7 9 10 10
-1 -0 0 -0 -1 -2 -6 -9 -12 -15 -15 -12 -13 -18 -16 -0 -27 -26 -23 -16 -6 -6 -1 -4 -9 -5 -7 -8 -7 -5 -6 -4 -4 -5 2 4 7 10 8 8 8 8 10 10 10
-2 -1 0 1 0 -0 -1 -5 -9 -12 -15 -15 -13 -12 -14 -24 -28 -30 -31 -27 -12 -9 -4 -2 -8 -6 -6 -4 -6 -4 -3 -4 -5 -6 1 7 6 8 8 8 9 9 10 10 10
-1 -1 -1 -0 -0 0 0 -2 -4 -13 -16 -17 -15 -5 -12 -27 -30 -27 -30 -29 -16 -1 -3 -5 -8 -5 -5 -4 -4 -3 -3 -2 -6 -1 3 4 -1 -0 8 9 9 10 10 9 9
-2 -1 -1 0 -0 0 -0 -1 -6 -11 -9 -11 -8 -5 -13 -21 -24 -13 -6 -9 -24 -1 -3 -3 -6 -6 -4 -2 -2 -2 -3 -3 -5 -4 3 2 2 1 9 10 9 10 9 9 9
-1 -2 -0 0 0 0 -0 -2 -8 -1 -1 -5 0 -5 -18 -17 -5 -1 -0 1 -5 -4 -1 -2 -2 -3 -3 -2 -2 -2 -2 -2 -4 -3 1 2 2 1 9 10 9 9 10 9 9
-4 -2 -1 -0 0 -1 -1 -3 -4 -1 -2 -0 0 -1 -9 -10 -3 -0 -1 -0 -3 -7 1 -0 -0 -1 -3 -2 -4 -4 -4 -3 -4 -5 -4 -3 -3 -3 1 10 10 10 9 9 8
-4 -1 -1 -0 -0 -1 -1 1 2 0 2 0 -6 -4 -6 -2 0 -0 -0 -2 -2 -2 -0 -0 2 -2 -3 -3 -3 -3 -3 -3 -4 -5 -4 -3 -2 -1 3 8 9 9 9 9 9
-3 -2 -0 -0 0 -1 1 1 2 -1 3 1 1 1 -0 -4 -1 -7 -2 -2 -3 -1 0 1 -0 -2 -3 -2 -2 -2 -1 -1 -3 -3 -3 0 0 -2 0 4 7 9 9 9 8
-3 -2 -0 1 0 -0 -0 0 -0 -1 3 -1 1 -2 -3 -5 -2 -8 -9 -2 -2 -2 0 -0 -2 -2 -2 -2 -2 0 -2 -3 -2 -2 -3 -0 2 -0 -2 -0 3 4 8 9 9
-3 -2 -0 1 2 1 1 -1 -2 2 -5 -12 -3 -6 -3 -3 -8 -4 -7 -5 -1 -1 -0 0 1 -1 -1 -2 -3 -2 -2 -2 -2 -1 0 0 2 0 -1 -0 -1 0 4 7 7
-4 -4 -1 1 2 1 1 -2 -1 3 -0 -6 -5 -1 -1 -3 -4 -2 -3 -4 -6 -1 0 -2 -1 -2 -2 -2 -3 -2 -2 -0 1 1 4 1 1 0 -2 -2 -2 -2 -0 1 7
-5 -3 -2 0 1 1 1 -2 2 2 -4 -4 -4 -6 -6 -3 -2 -3 -2 -2 -2 -0 2 1 -0 -2 -3 -1 -2 -2 0 2 3 5 4 1 1 -0 -2 -3 -2 -2 -3 -2 2
-4 -4 -3 -1 0 1 1 1 2 -2 0 -3 -3 -4 -6 -5 -4 -4 -2 -3 -3 -2 -2 0 2 0 -0 -0 0 -0 -0 3 4 5 2 1 2 -1 -1 -3 -3 -3 -2 -2 -0
-3 -4 -3 -2 -0 1 0 1 0 -1 -1 -1 -2 -4 -4 -6 -4 -3 -3 -4 -5 -2 0 1 -1 -3 -1 -1 -1 1 1 -1 2 3 4 2 0 -2 -2 -1 -1 -1 -1 -2 -3
-3 -2 -3 -3 -1 1 1 0 -1 -2 -2 -2 -1 -3 -2 -4 -5 -5 -0 3 2 -2 -3 -0 1 -2 -3 -3 -2 -1 -1 2 3 3 4 2 3 0 -1 -2 -2 -1 -2 -4 -4
-1 -1 -3 -1 0 1 2 -0 -2 -5 -5 -2 -0 -0 -1 -1 -3 -5 -4 -1 1 4 -3 -2 -0 -0 -2 -1 -1 -0 0 0 1 3 3 4 2 1 -0 -1 -1 -2 -3 -3 -3
-2 -2 -2 1 1 0 2 1 -4 -5 -3 -3 -1 -1 -1 -2 -3 -4 -3 2 -1 4 4 4 1 2 -2 -3 -3 -3 -1 0 3 2 4 4 2 -2 -1 -0 -1 -2 -2 -3 -3
-2 -2 -3 1 1 0 2 1 -3 -2 -2 -1 -0 -1 -1 -2 -3 -4 -2 -2 -3 4 5 4 5 5 3 0 3 4 4 3 3 2 3 4 1 -3 -2 -2 -2 -1 -4 -6 -4
-2 -0 -1 -0 -0 0 2 0 -0 -3 -3 -2 -1 -1 -1 -1 -2 -2 -2 -3 -5 0 3 3 4 4 5 4 4 5 2 1 2 5 4 3 2 -1 -1 -1 -2 -3 -3 -3 -3
-2 -1 -2 1 -0 1 1 2 -0 -1 -3 -3 -1 -1 -0 0 -1 -1 -3 -3 -4 -4 3 3 3 4 1 2 4 3 1 0 1 1 3 0 2 1 -0 -1 -2 -3 -3 -3 -4
-1 -1 -1 -1 -0 1 1 2 -0 -1 -2 -2 -1 -1 -1 -0 -2 -2 -2 -3 -3 -3 3 0 3 5 5 4 3 3 1 0 0 -0 0 2 2 -1 -1 -2 -2 -2 -2 -2 -3
-2 -1 -1 -1 -2 0 -0 0 1 -2 -2 -4 -2 -1 -0 -1 -2 -2 -2 -3 -3 -2 -1 -0 4 4 3 3 2 2 2 0 -1 -3 -2 -1 -4 -0 -0 -1 0 -1 -2 -2 -4

GFSSW_850_dewp_054.txt.gz
Dewpoint
-11 -11 -13 -13 -11 -7 -6 -6 -5 -5 -11 -20 -20 -22 -27 -30 -34 -34 -24 -19 -24 -14 -6 -3 -2 -5 -5 -5 -5 -6 -7 -8 -10 -5 -7 -6 -4 -2 3 1 7 8 7 9 10
-10 -11 -10 -12 -12 -12 -10 -8 -10 -8 -7 -16 -16 -20 -23 -27 -32 -30 -11 -7 -23 -13 -6 -2 -3 -6 -7 -6 -6 -7 -7 -8 -10 -8 -7 -7 -6 -6 -0 0 4 7 9 10 10
-10 -10 -10 -11 -12 -14 -14 -11 -12 -14 -14 -14 -13 -15 -20 -25 -17 -12 -1 -0 -2 -12 -2 -3 -7 -8 -9 -8 -7 -8 -7 -10 -8 -8 -6 -6 -5 -4 -2 -1 1 4 7 10 9
-8 -7 -9 -8 -8 -11 -11 -11 -11 -13 -16 -15 -13 -10 -13 -20 -17 -14 -5 -1 -5 -1 -2 -4 -7 -10 -11 -8 -9 -7 -9 -10 -9 -7 -5 -5 -4 -1 0 0 5 6 7 9 9
-2 -5 -4 -5 -4 -5 -5 -10 -12 -11 -13 -15 -14 -11 -8 -4 -13 -25 -26 -14 0 -1 -3 -3 -6 -10 -10 -9 -7 -6 -9 -8 -8 -7 -5 -5 -2 -1 0 3 6 8 9 9 10
-3 -1 -3 -3 -3 -3 -4 -6 -10 -9 -10 -13 -13 -14 -4 -3 -8 -21 -27 -23 -6 1 1 -3 -6 -8 -8 -8 -7 -8 -8 -8 -7 -6 -5 -2 -5 5 -1 6 8 9 9 10 10
1 -2 -2 -2 -1 -1 -2 -3 -6 -8 -12 -12 -13 -12 1 -4 -5 -2 -26 -26 -28 -8 -3 -1 -3 -6 -8 -7 -8 -9 -6 -7 -6 -7 -7 -2 -3 3 -0 7 7 8 9 9 9
-2 -2 -2 -1 -1 -1 -1 -2 -3 -6 -12 -12 -8 -3 -2 -14 -3 -5 -11 -28 -28 -8 -7 -5 -4 -5 -5 -6 -5 -6 -6 -4 -8 -8 -5 0 -3 -6 2 6 6 7 8 8 8
-2 -2 -3 -1 -1 -2 -2 -4 -5 -9 -5 -5 -2 1 -5 -15 -18 -8 -13 -12 -14 -14 -4 -3 -4 -5 -6 -4 -5 -4 -4 -4 -6 -7 -5 1 -3 -3 4 6 4 7 7 7 7
-2 -6 -3 -1 -2 -1 -2 -5 -6 -4 1 -2 3 1 -9 -12 -5 -2 -1 1 -4 -9 -1 -2 -3 -5 -6 -5 -2 -4 -4 -6 -6 -7 -4 -3 -1 -5 -0 4 5 5 7 7 7
-6 -6 -2 -1 -1 -1 -3 1 -2 0 -1 -2 -3 -2 -3 0 -3 -1 -4 -2 -1 -6 -2 -1 -1 -2 -6 -6 -6 -7 -6 -7 -9 -8 -5 -5 -5 -6 -4 1 4 5 6 7 7
-6 -4 -2 -1 -2 -1 1 1 1 1 1 -0 -1 -1 -2 -2 -1 -3 -0 -1 -1 -4 -5 1 1 -4 -5 -6 -6 -6 -5 -6 -8 -6 -6 -8 -6 -6 -4 -0 3 4 5 7 7
-7 -4 -2 -1 -2 -0 1 2 1 1 1 -1 -0 -0 -0 -2 -4 -5 1 -2 -2 -1 -7 -1 -4 -4 -3 -3 -3 -4 -5 -5 -5 -5 -6 -5 -4 -5 -5 -1 2 4 4 6 7
-7 -4 -2 -1 1 1 1 1 -1 -1 4 -5 -5 -2 -1 -2 -4 -8 -7 -3 -4 -3 -3 -4 -7 -3 -2 -3 -4 -3 -5 -4 -4 -3 -6 -5 -2 -5 -5 -5 -2 0 5 5 6
-7 -4 -3 -1 1 2 2 -1 -2 2 -3 -11 -5 -3 -2 -4 -6 -3 -5 -9 -6 -3 -3 -1 -4 -3 -2 -3 -6 -4 -6 -3 -4 -3 -4 -4 -2 -6 -6 -4 -6 -7 -1 4 5
-6 -4 -4 0 0 0 1 -1 1 3 -4 -8 -7 -6 -3 -5 -5 -3 -3 -8 -9 -3 -2 -4 -4 -5 -5 -5 -5 -5 -3 -3 -2 -3 1 -4 -4 -5 -7 -4 -6 -8 -6 -0 4
-5 -4 -3 -0 2 -1 1 1 2 -4 -7 -4 -3 -5 -5 -6 -4 -3 -2 -4 -6 -5 -2 -2 -3 -2 -3 -5 -4 -4 -2 0 1 1 1 -4 -1 -4 -4 -5 -6 -6 -7 -1 3
-4 -4 -5 -1 1 0 -1 0 0 -6 -4 -4 -3 -5 -6 -6 -5 -5 -2 -3 -6 -7 -8 -5 -1 -2 -2 -2 -2 -2 -2 -1 1 2 -1 -0 1 -2 -5 -5 -5 -6 -5 -2 2
-5 -2 -2 -1 -2 -1 0 1 -6 -6 -4 -2 -5 -5 -6 -6 -6 -4 -3 -3 -6 -4 -5 -5 -5 -4 -2 -2 -4 -1 1 -3 -1 2 3 0 -1 -3 -5 -5 -5 -5 -4 -4 -1
-4 -1 -2 -1 -2 1 1 -2 -4 -4 -2 -3 -2 -3 -3 -4 -6 -6 -1 -0 2 -5 -4 -3 -1 -4 -2 -2 -2 -1 -3 2 1 3 3 -1 0 -1 -3 -4 -6 -6 -5 -5 -4
-2 -1 -2 -2 -1 1 1 -2 -4 -6 -4 -3 -1 -1 -2 -3 -4 -7 -2 -2 -1 3 -1 -4 -1 -0 -2 -0 -0 0 1 -1 -1 0 2 2 0 -3 -3 -1 -1 -3 -5 -4 -3
-1 -1 -3 -1 1 -0 1 -3 -4 -5 -5 -5 -4 -3 -2 -3 -3 -4 -6 -2 -3 -1 1 -4 -1 1 -2 -2 -3 -3 -1 -1 1 2 1 4 0 -3 -2 -3 -4 -3 -3 -3 -2
-3 -3 -2 0 1 0 -1 -1 -2 -4 -5 -4 -3 -2 -3 -2 -2 -5 -5 -4 -4 -1 3 3 -1 -1 -2 -2 -2 0 0 0 1 1 2 5 1 -4 -4 -4 -4 -3 -3 -3 -4
-2 -1 -2 -1 -1 -0 -2 -1 -2 -3 -4 -4 -4 -2 -2 -2 -3 -4 -4 -6 -5 -4 -1 2 2 0 -3 -2 -1 3 1 -0 1 4 2 1 -0 -1 -3 -3 -4 -4 -3 -3 -3
-2 -2 -4 -0 -1 -2 -1 0 -2 -2 -4 -4 -4 -3 -2 1 -2 -2 -4 -4 -6 -5 -0 2 3 0 -1 -1 -2 -0 0 -1 0 0 2 -0 -1 -3 -5 -6 -4 -3 -3 -3 -3
-2 -3 -2 -4 -4 -2 -2 -1 -2 -2 -2 -3 -3 -3 -2 0 -1 -2 -3 -3 -3 -4 -1 -0 -1 -1 -1 -3 -0 1 -2 -3 -2 -3 -2 -2 -1 -5 -7 -7 -6 -6 -5 -3 -2
-3 -2 -2 -5 -4 -3 -2 -2 -4 -2 -2 -4 -3 -3 0 -1 -2 -3 -3 -2 -2 -2 -1 -1 3 0 -2 0 -2 -2 -2 -2 -3 -4 -5 -4 -7 -8 -7 -6 -5 -5 -2 0 0

GFSSW_850_dewp_057.txt.gz
Dewpoint
-9 -11 -11 -12 -12 -12 -12 -13 -12 -10 -9 -8 -7 -14 -21 -22 -27 -28 -8 -9 -6 -14 -13 1 2 -1 -5 -7 -7 -7 -6 -7 -9 -10 -9 -8 -7 -8 -4 -4 -0 2 4 5 10
-11 -12 -13 -11 -14 -12 -9 -14 -16 -15 -12 -14 -14 -13 -16 -16 -23 -19 -8 -9 -8 -18 -12 -1 0 -3 -6 -7 -7 -7 -8 -9 -11 -13 -9 -9 -8 -8 -7 -5 -3 -0 3 8 9
-8 -9 -10 -11 -12 -12 -10 -14 -12 -16 -15 -12 -15 -17 -16 -12 -5 -9 -2 -13 -3 -2 -10 -3 -2 -3 -6 -8 -8 -8 -7 -10 -11 -11 -9 -9 -8 -8 -7 -6 -4 -2 0 7 9
-3 -5 -8 -8 -8 -6 -7 -11 -14 -17 -13 -13 -13 -15 -17 -8 -10 -7 -17 -24 -9 -7 -1 -3 -3 -5 -6 -8 -9 -7 -9 -10 -12 -11 -9 -8 -7 -7 -6 -5 0 2 4 6 7
1 -3 -2 -5 -6 -6 -8 -10 -11 -14 -11 -10 -14 -16 -16 -3 -3 -9 -11 -16 0 0 -0 -3 -4 -6 -6 -10 -10 -9 -9 -11 -11 -12 -9 -7 -6 -6 -6 -5 2 3 6 6 6
-5 1 -1 -4 -4 -5 -9 -11 -12 -9 -9 -12 -14 -13 -1 -2 -6 -8 -5 -6 -8 1 -0 -3 -4 -6 -9 -11 -11 -11 -8 -9 -10 -10 -10 -7 -6 -7 -5 -3 2 4 6 6 6
-5 -4 -4 -3 -4 -4 -7 -11 -8 -10 -9 -11 -12 -9 -1 -7 -8 -6 -1 -1 -12 -13 -5 -0 -3 -7 -8 -8 -8 -9 -7 -8 -9 -9 -9 -8 -7 -6 -7 -4 1 4 6 7 7
-3 -3 -4 -5 -4 -4 -7 -10 -8 -9 -9 -10 -9 2 -2 -8 -9 -7 -5 -0 -2 -10 -8 -4 -3 -2 -6 -7 -7 -6 -7 -5 -8 -9 -9 -8 -4 -8 -5 -0 0 3 5 6 7
-2 -4 -7 -6 -3 -5 -7 -8 -6 -7 -7 -5 1 2 -3 -7 -10 -10 -5 -2 -2 -9 -10 -6 -5 -4 -4 -4 -3 -4 -3 -4 -5 -8 -8 -6 -3 -8 -2 -0 -1 1 4 5 6
-1 -5 -8 -7 -4 -4 -6 -2 -1 -1 2 3 1 3 -1 -11 -6 -2 -1 -3 2 -6 -9 -10 -5 -4 -4 -4 -1 -2 -3 -4 -4 -7 -8 -8 -5 -6 -4 -2 -1 0 2 4 5
-2 -6 -7 -6 -3 -4 -2 0 -2 1 -2 -4 -5 -2 -5 -3 -4 -3 2 2 1 -2 -8 -9 -5 -4 -3 -3 -5 -5 -4 -4 -6 -9 -8 -6 -7 -7 -7 -7 -4 1 1 4 5
-1 -8 -8 -7 -3 -3 2 0 1 1 1 -2 -2 -2 -3 -4 -3 -4 0 -1 2 2 -6 -5 -4 -8 -8 -7 -6 -6 -4 -4 -6 -9 -7 -8 -9 -9 -9 -7 -6 -2 1 2 5
-2 -7 -9 -8 -3 0 1 1 1 2 0 -3 -4 -3 -2 -2 -4 -6 -3 -3 3 3 2 -2 -6 -5 -5 -5 -5 -4 -3 -4 -4 -7 -6 -7 -8 -8 -9 -8 -6 -3 -2 -0 3
-2 -3 -8 -7 0 1 0 1 2 2 2 -8 -7 -3 -2 -3 -4 -6 -7 -2 -2 2 1 1 -7 -4 -3 -3 -3 -1 -5 -5 -5 -4 -2 -7 -4 -7 -8 -7 -5 -5 -4 -2 1
-2 -2 -8 -5 0 1 0 2 2 2 1 -14 -6 -4 -3 -4 -6 -6 -8 -9 -2 -3 -2 -1 -4 -5 -3 -3 -4 -3 -5 -5 -4 -3 -3 -4 -4 -5 -7 -7 -6 -7 -6 -3 0
-2 -2 -6 -3 0 1 1 3 3 5 -2 -10 -9 -7 -7 -6 -5 -6 -3 -6 -8 -5 -6 -3 -4 -4 -3 -5 -6 -6 -5 -4 -3 -2 1 -2 -3 -5 -6 -7 -6 -8 -9 -6 -0
-3 -2 -5 -1 -1 2 2 2 2 -1 -10 -6 -6 -7 -7 -6 -5 -4 -2 -3 -5 -2 -3 -7 -3 -4 -5 -4 -6 -5 -3 1 2 2 2 -3 -3 -4 -6 -6 -7 -7 -8 -6 -3
-3 -3 -3 -2 -2 1 2 -0 0 -9 -8 -7 -6 -8 -7 -6 -4 -5 -2 -1 -5 -4 -2 -4 0 -3 -4 -4 -4 -4 -2 0 3 5 1 -3 -1 -4 -6 -6 -6 -7 -8 -6 -2
-3 -3 -3 -2 -1 -0 1 2 -7 -9 -9 -7 -9 -10 -9 -6 -5 -5 -4 -0 -4 -6 -3 -5 -8 -8 -5 -4 -4 -2 -1 -5 -0 1 4 -1 -2 -4 -5 -6 -7 -7 -7 -6 -4
-4 -2 -3 -2 -1 0 1 -1 -7 -8 -6 -8 -8 -7 -5 -4 -4 -5 -2 -0 0 -3 -7 -5 -4 -10 -6 -4 -4 -3 -4 -1 -0 4 5 1 1 1 -4 -5 -5 -6 -6 -6 -5
-3 -1 -4 -1 -0 1 2 -3 -7 -9 -6 -6 -7 -4 -5 -3 -4 -4 -2 -1 -1 -1 -3 -5 -2 -3 -4 -1 -2 -2 -0 0 -1 0 3 4 1 -4 -1 -1 -2 -3 -5 -3 -3
-3 -1 -3 0 1 -1 1 -4 -7 -7 -8 -7 -6 -4 -3 -4 -3 -4 -4 -4 -2 -1 4 -2 -1 -0 1 -4 -4 -3 -1 1 2 4 1 4 2 -3 -2 -3 -3 -4 -4 -4 -4
-4 -3 -4 0 1 0 -3 -5 -6 -6 -7 -6 -6 -6 -6 -4 -3 -4 -5 -5 -5 -2 2 2 -0 1 1 -1 -2 -2 -2 -1 0 1 5 7 3 -4 -4 -4 -4 -4 -4 -4 -3
-2 0 -4 -0 -1 -2 -3 -2 -3 -5 -6 -8 -7 -7 -4 -4 -5 -3 -4 -6 -6 -5 -3 2 3 -1 -0 -0 -3 0 0 -1 0 4 3 4 1 -2 -3 -3 -5 -6 -4 -3 -3
-2 -2 -3 -1 -3 -2 -3 -1 -4 -3 -6 -7 -6 -6 -5 -3 -4 -3 -3 -5 -6 -6 -4 3 5 3 -3 -1 -1 -1 0 -0 0 0 2 0 0 -3 -4 -5 -7 -7 -7 -6 -5
-2 -3 -5 -5 -5 -5 -4 -1 -2 -3 -4 -5 -5 -6 -5 -4 -4 -2 -3 -2 -2 -5 -4 2 5 2 3 -2 -2 -0 -1 -2 -3 -3 -3 -3 -3 -6 -6 -6 -7 -7 -8 -6 -4
-3 -3 -2 -4 -5 -3 -3 -6 -6 -7 -4 -3 -5 -5 -3 -4 -4 -2 -2 -0 -2 -2 -1 -1 0 4 4 -0 -1 -0 -1 -2 -2 -3 -2 -1 -4 -8 -7 -8 -7 -5 -3 -2 -0

GFSSW_850_dewp_060.txt.gz
Dewpoint
-16 -16 -14 -12 -12 -10 -11 -14 -16 -15 -15 -16 -13 -11 -12 -14 -13 -21 -6 -11 -9 -7 -7 -10 1 -0 -1 -5 -7 -8 -5 -4 -6 -7 -9 -8 -7 -7 -9 -5 -5 -1 1 5 9
-9 -13 -16 -14 -11 -16 -16 -16 -17 -18 -18 -16 -17 -14 -11 -16 -13 -14 -10 -8 -8 -8 -11 -8 -1 0 -1 -4 -6 -7 -4 -5 -8 -10 -11 -10 -8 -8 -9 -6 -4 -4 -1 5 9
-5 -3 -7 -13 -12 -12 -13 -14 -18 -17 -15 -15 -18 -18 -13 -14 -4 -5 -4 -18 -19 -19 -2 -9 -3 -1 -1 -4 -7 -7 -5 -7 -9 -11 -11 -11 -10 -9 -9 -7 -8 1 -2 7 9
-2 -5 -4 -2 -8 -11 -14 -13 -14 -11 -10 -10 -13 -18 -18 -14 -3 -4 -9 -10 -17 -2 0 -5 -3 -3 -3 -4 -7 -7 -8 -8 -9 -10 -11 -11 -10 -9 -8 -7 -6 -1 1 2 7
-3 -9 -8 -7 -8 -12 -13 -12 -12 -13 -7 -5 -8 -10 -15 -5 -4 -5 -4 -8 -8 1 -1 -2 -2 -4 -3 -4 -7 -8 -9 -9 -9 -10 -11 -11 -9 -8 -8 -7 -5 1 3 4 5
-2 -9 -9 -11 -12 -14 -14 -12 -13 -11 -8 -8 -7 -7 0 -1 -9 -6 -6 -8 -12 -0 1 -1 -4 -5 -5 -6 -7 -9 -10 -10 -10 -10 -10 -11 -10 -9 -8 -8 -6 1 3 5 6
-0 -2 -5 -8 -13 -17 -16 -15 -14 -10 -9 -8 -7 -5 1 -6 -9 -8 -7 -4 -5 -13 -13 -7 -3 -2 -5 -5 -8 -9 -9 -10 -9 -8 -9 -10 -9 -8 -8 -8 -7 -1 2 5 6
-1 -2 -6 -8 -14 -17 -14 -18 -12 -7 -6 -6 -6 -0 1 -10 -7 -8 -8 -8 -6 -3 -8 -15 -8 -3 -2 -4 -6 -7 -6 -5 -8 -8 -9 -9 -5 -8 -9 -8 -6 -2 2 5 6
-1 -3 -8 -11 -15 -15 -16 -17 -7 -1 -0 -1 -1 3 -0 -6 -7 -7 -9 -4 -3 -1 -5 -9 -11 -5 -4 -1 -1 -4 -3 -3 -5 -8 -8 -8 -5 -8 -9 -4 -2 -3 -0 4 6
-1 -2 -7 -12 -14 -13 -13 -2 -3 -1 2 3 4 1 1 -6 -6 -4 -2 -4 -2 0 -3 -3 -9 -6 -3 -2 1 -2 -2 -3 -4 -6 -6 -6 -6 -7 -6 -4 -2 -3 -3 2 5
-0 -2 -5 -10 -13 -12 -2 1 -2 2 1 -1 -4 -0 -3 -5 -5 -5 0 -2 1 3 0 -3 -7 -7 -2 -3 -3 -3 -4 -3 -4 -6 -6 -5 -6 -8 -9 -7 -4 -3 -2 -1 4
-2 -2 -7 -12 -13 -8 1 1 -1 1 1 -1 -2 -3 -4 -4 -5 -5 -1 0 2 6 4 3 -3 -11 -9 -4 -3 -3 -2 -2 -4 -7 -7 -7 -7 -9 -10 -8 -7 -6 -2 -0 2
-2 -3 -5 -12 -13 1 1 0 -0 1 1 -2 -6 -6 -5 -4 -4 -6 -7 0 -1 2 6 5 -2 -7 -7 -8 -5 -4 -2 -3 -4 -5 -6 -6 -4 -5 -10 -10 -9 -6 -6 -1 1
-2 -2 -3 -11 -3 1 0 -0 1 2 2 -1 -5 -4 -2 -4 -4 -6 -7 -4 -3 2 4 6 3 -1 0 -4 -5 -2 -5 -6 -4 -3 -2 -6 -1 -5 -8 -8 -9 -8 -5 -4 -2
-2 -3 -2 -8 -8 -2 1 -0 1 2 4 -12 -6 -5 -4 -5 -5 -8 -8 -6 -3 0 5 7 3 3 1 -1 -3 -2 -3 -3 -3 -2 -1 -3 -2 -4 -7 -7 -7 -6 -5 -4 -4
-3 -3 -3 -8 0 1 1 2 3 5 5 -10 -9 -7 -8 -7 -5 -7 -5 -8 -10 -7 1 1 -0 1 -2 -6 -4 -5 -3 -2 -2 -1 2 -1 -1 -2 -4 -6 -7 -8 -7 -5 -4
-3 -3 -3 -2 -1 -1 -0 2 5 4 -11 -9 -7 -9 -9 -9 -7 -5 -2 -3 -6 -4 -3 -2 -2 -5 -2 -0 -4 -3 -2 2 3 4 5 -1 -1 -1 -4 -7 -6 -7 -9 -8 -3
-3 -4 -4 -2 -2 -1 0 2 3 -7 -8 -10 -9 -9 -10 -8 -5 -4 -2 -2 -5 -6 -3 3 3 -4 -4 -1 -2 -2 -1 2 6 7 3 -2 0 -2 -5 -8 -6 -7 -7 -6 -3
-4 -3 -2 -2 -3 -1 0 4 -4 -6 -11 -10 -9 -12 -14 -9 -7 -5 -4 -1 -3 -5 -1 1 0 -5 -3 -2 -3 -0 3 -2 2 2 5 4 -1 -4 -6 -5 -7 -7 -7 -7 -5
-2 -2 -4 -3 -2 -1 1 -0 -4 -8 -11 -7 -8 -14 -8 -8 -6 -6 0 1 0 -5 -5 -4 1 -4 -6 -4 -3 -1 -2 2 1 5 7 4 1 -0 -2 -3 -6 -5 -5 -6 -4
-2 -2 -5 -3 -1 -1 1 -2 -5 -7 -10 -7 -6 -10 -7 -7 -6 -4 -4 2 -0 -0 -0 -4 -2 -1 -4 -4 -1 -1 0 2 2 1 6 7 6 2 1 -0 -1 -1 -2 -3 -3
-2 -1 -4 -1 0 -1 1 -2 -5 -7 -9 -9 -7 -6 -5 -5 -5 -5 -4 -4 -4 -2 3 2 -1 1 1 -2 -5 -3 -1 -0 5 6 3 6 5 1 1 -2 -1 -2 -3 -3 -4
-1 -4 -6 -1 2 -0 -4 -4 -6 -6 -8 -8 -7 -8 -8 -7 -5 -6 -5 -6 -5 -4 1 0 1 3 1 1 -0 -1 -1 -1 1 5 10 9 7 -0 -3 -3 -4 -3 -4 -3 -3
-2 -1 -6 -1 -2 -2 -1 -3 -4 -8 -8 -7 -8 -8 -8 -6 -7 -5 -5 -6 -6 -6 -3 -3 4 4 3 5 5 5 0 2 3 8 9 9 6 4 2 -0 -4 -4 -6 -6 -6
-2 -2 -5 -0 -2 -3 -3 0 -2 -5 -6 -8 -6 -7 -8 -5 -6 -6 -7 -7 -7 -5 -2 2 7 4 2 2 1 1 3 1 3 6 8 5 3 4 3 3 -4 -7 -7 -7 -5
-2 -3 -7 -7 -4 -2 -4 -3 -3 -2 -5 -5 -6 -8 -7 -7 -6 -5 -5 -0 -3 -3 -3 3 5 4 5 2 -1 -1 1 6 5 -1 -1 2 5 0 -1 -6 -6 -6 -6 -4 -1
-2 -3 -1 -3 -3 -4 -1 -4 -7 -7 -5 -2 -4 -4 -7 -3 -1 -1 -2 1 0 1 -0 1 3 6 5 2 1 2 -1 2 2 -3 -3 -1 -3 -3 -6 -7 -6 -4 -3 1 2

GFSSW_850_dewp_063.txt.gz
Dewpoint
-8 -13 -16 -20 -22 -22 -23 -23 -22 -22 -22 -21 -22 -21 -18 -16 -10 -9 -10 -11 -11 -9 -9 -8 -9 -3 -2 2 -0 -2 -3 -3 -5 -4 -5 -8 -6 -7 -8 -6 -3 -3 -4 -1 8
-10 -13 -16 -16 -19 -21 -19 -18 -20 -23 -23 -22 -22 -23 -22 -19 -13 -10 -5 -9 -8 -10 -9 -9 -12 -0 0 -1 -1 -4 -4 -5 -7 -7 -7 -9 -7 -8 -9 -5 -5 -3 4 7 7
-6 -10 -12 -16 -18 -13 -17 -19 -20 -21 -23 -23 -22 -21 -19 -16 -12 -4 -8 -11 -6 -10 -13 -12 -7 -6 1 -1 -1 -4 -3 -6 -7 -7 -7 -7 -10 -9 -8 -7 -5 2 6 5 5
-4 -6 -11 -11 -12 -15 -13 -17 -21 -22 -23 -21 -20 -17 -16 -11 -2 -5 -6 -4 -5 -10 -3 1 -7 -8 -3 0 -1 -3 -5 -6 -7 -8 -8 -8 -10 -9 -9 -7 -4 -1 3 6 8
-1 -3 -6 -9 -12 -13 -17 -20 -21 -22 -20 -15 -13 -9 -7 -1 -8 -17 -6 -5 -5 -6 1 -1 -5 -5 -1 -2 -2 -3 -5 -7 -8 -8 -8 -8 -10 -9 -8 -8 -3 -0 0 5 6
-1 -2 -4 -10 -13 -16 -21 -21 -22 -20 -15 -8 -8 -6 1 2 -15 -7 -7 -5 -6 -10 -4 -1 -3 -3 -3 -4 -3 -4 -5 -6 -8 -9 -10 -9 -10 -9 -10 -8 -8 1 2 3 5
0 -1 -4 -10 -17 -21 -22 -24 -23 -22 -8 -3 -5 -3 3 -10 -15 -13 -8 -7 -7 -4 -12 -10 -10 -10 -4 -1 -4 -5 -5 -7 -8 -10 -10 -8 -7 -9 -11 -10 -8 0 3 4 5
-0 -1 -3 -9 -18 -19 -21 -22 -25 -22 -4 0 0 1 2 -10 -5 -7 -10 -8 -7 -6 -6 -7 -10 -11 -5 -3 -2 -2 -4 -4 -7 -8 -8 -8 -4 -8 -10 -10 -8 -8 3 5 5
-2 -0 -2 -9 -21 -19 -21 -11 -2 -3 -4 -0 1 3 4 -2 -5 -6 -6 -10 -6 -5 -3 -4 -8 -10 -7 -2 1 -1 -0 -2 -4 -7 -7 -7 -5 -8 -9 -9 -7 -6 2 4 5
-1 -2 -3 -8 -19 -19 -18 -0 -4 -4 0 2 3 5 2 -3 -5 -6 -5 -2 -6 -2 -0 -2 -5 -8 -5 -1 3 2 -1 -3 -3 -5 -6 -6 -6 -7 -9 -6 -2 -2 -2 4 6
-1 -2 -4 -13 -18 -15 -1 0 -1 -1 -1 -0 2 3 -1 -2 -5 -6 -4 -2 -1 2 3 -1 -3 -4 -7 -3 -2 -1 -1 -0 -3 -4 -2 -3 -6 -7 -6 -6 -1 -2 -2 2 5
-2 -3 -5 -16 -18 -2 1 1 1 1 1 -0 -2 -2 -4 -6 -4 -5 -6 0 2 5 5 4 2 -2 -6 -8 -2 -2 -1 -1 -2 -4 -3 -3 -5 -7 -8 -8 -5 -1 -2 -2 5
-3 -3 -3 -15 -18 -1 0 1 1 0 1 -0 -2 -2 -2 -3 -3 -4 -6 0 1 4 6 6 3 -1 -1 -5 -7 -2 -0 -0 -1 -3 -5 -4 -5 -5 -6 -7 -8 -6 -3 -2 5
-3 -2 -3 -12 -9 -1 -1 1 0 0 3 -0 -3 -5 -4 -4 -4 -5 -6 -7 0 1 5 6 3 2 2 4 -3 -5 -6 -4 -4 -3 -1 -4 0 -3 -5 -5 -7 -8 -4 -1 5
-2 -3 -3 -7 -7 -5 0 0 1 2 5 -2 -5 -4 -3 -4 -5 -7 -7 -7 -4 3 5 5 5 5 4 1 -0 2 -3 -2 -2 -0 -1 -1 -0 -2 -4 -4 -7 -8 -5 -3 4
-3 -3 -3 -8 -1 -1 -0 0 1 4 4 -8 -5 -4 -3 -4 -4 -5 -7 -7 -7 -5 2 2 2 5 5 3 2 0 2 0 -0 0 4 1 -0 -0 -2 -4 -5 -7 -5 -5 1
-3 -3 -4 -4 -11 -3 -1 -0 3 4 -5 -8 -7 -7 -8 -7 -3 -4 -3 -6 -6 -5 -4 -2 1 -0 3 4 2 1 4 5 5 5 5 -0 1 -1 -2 -4 -4 -5 -5 -5 -3
-5 -5 -4 -6 -10 -3 -1 1 3 -2 -2 -9 -8 -9 -7 -9 -6 -3 -2 -1 -6 -6 -3 -2 5 -1 -2 -2 4 2 2 6 7 7 4 -0 2 -1 -4 -5 -6 -6 -5 -4 -2
-5 -5 -5 -6 -3 -2 0 1 -0 -5 -8 -6 -7 -7 -8 -12 -7 -5 -2 -1 -2 -4 -2 1 1 -2 -4 -2 -1 3 3 -1 4 6 7 6 3 -3 -4 -5 -6 -7 -2 -1 -0
-4 -5 -5 -6 -3 -1 1 -2 -3 -5 -5 -5 -5 -7 -8 -7 -6 -5 -0 2 4 -0 -5 -2 1 -2 -2 -2 -0 1 -1 5 7 9 10 5 5 5 2 -3 -2 -4 -3 -2 -1
-3 -2 -8 -4 -4 -1 0 -1 -5 -6 -6 -6 -6 -4 -5 -5 -6 -5 -0 2 0 0 -0 1 0 -1 -3 -1 1 2 4 7 7 6 7 8 7 4 1 1 -0 -1 -2 -3 -3
-3 -2 -3 -2 -1 -0 -1 -3 -6 -5 -5 -4 -5 -5 -4 -4 -3 -3 -4 0 -4 -3 2 1 5 2 -2 -5 -4 -0 1 6 9 9 7 6 8 4 1 -2 -2 -2 -3 -1 1
-2 -3 -8 -4 1 -1 -2 -4 -4 -4 -4 -4 -5 -6 -6 -5 -3 -5 -4 -2 -5 -3 0 -2 4 5 3 -0 -1 2 -1 3 4 5 9 10 7 5 4 3 -3 -5 -6 -1 2
-3 -2 -3 -4 -3 1 0 -1 -3 -5 -5 -5 -6 -7 -5 -4 -5 -4 -3 -4 -3 -2 -3 -3 3 6 7 5 6 7 4 -0 2 7 7 9 8 7 6 6 3 -6 -4 1 2
-3 -2 -4 -0 -2 -2 -2 -2 -2 1 -4 -6 -7 -6 -4 -3 -4 -3 -4 -4 -5 -3 -0 3 5 5 4 3 4 5 5 3 4 4 9 8 8 6 7 6 2 -4 0 2 3
-3 -3 -5 -3 -5 -1 0 -1 -2 -4 0 -1 -1 -5 -6 -4 -3 -1 1 1 2 0 1 2 4 4 4 3 2 4 4 2 5 6 5 7 8 7 6 5 4 -0 2 3 3
-3 -3 -3 -3 -3 -2 -2 -1 -1 -3 -5 -1 -1 1 0 1 0 -0 -1 0 0 1 2 4 4 5 6 2 5 4 1 5 6 6 5 8 5 6 6 4 1 2 1 2 2

GFSSW_850_dewp_066.txt.gz
Dewpoint
-6 -7 -7 -9 -12 -17 -19 -23 -22 -23 -24 -24 -24 -27 -27 -27 -30 -28 -20 -7 -7 -13 -9 -9 -8 -8 -1 1 -1 -1 -0 -0 -2 -3 -4 -7 -6 -7 -7 -1 -1 -1 2 -2 5
-4 -8 -10 -9 -14 -17 -19 -20 -23 -22 -23 -23 -20 -23 -27 -25 -27 -32 -8 -9 -9 -9 -13 -12 -8 -9 0 0 2 -0 0 1 -4 -6 -6 -7 -7 -7 -8 -3 -3 1 -0 3 6
-3 -11 -14 -19 -20 -20 -19 -19 -19 -19 -17 -17 -15 -19 -25 -23 -25 -13 -11 -5 -5 -9 -6 -4 -15 -6 -1 0 -0 -2 1 -3 -6 -6 -7 -7 -7 -7 -8 -7 -5 4 6 8 7
-3 -7 -12 -16 -16 -23 -19 -18 -20 -18 -14 -14 -10 -12 -21 -20 -24 -4 -7 -7 -5 -7 -2 0 -0 -4 -7 1 0 -0 -2 -3 -4 -5 -6 -7 -7 -8 -9 -8 -6 -3 2 5 5
0 -3 -8 -13 -21 -23 -23 -21 -22 -20 -17 -13 -5 -7 -11 -7 -21 -16 -6 -7 -5 -5 -7 0 -1 -5 -5 -4 -2 0 -1 -1 -3 -5 -6 -7 -7 -7 -9 -9 -5 1 4 4 5
-0 -2 -6 -11 -21 -23 -23 -24 -23 -23 -19 -10 -2 -3 -5 -1 -24 -10 -8 -7 -6 -6 -7 -10 -3 -9 -4 -2 -2 -3 -2 -2 -3 -5 -6 -8 -9 -9 -9 -9 -1 2 5 6 6
-4 -4 -7 -9 -20 -24 -25 -25 -25 -15 -1 -4 -1 0 0 -14 -22 -15 -10 -8 -7 -5 -4 -8 -8 -10 -9 -2 -2 -3 -2 -4 -5 -6 -7 -8 -8 -8 -9 -10 -9 0 3 5 6
-2 -4 -9 -12 -16 -24 -26 -27 -15 -2 -1 -5 -2 1 -3 -13 -4 -7 -8 -10 -8 -7 -6 -6 -7 -7 -10 -4 -3 -1 -2 -1 -5 -7 -8 -8 -5 -8 -9 -9 -10 -7 -0 4 5
-1 -2 -4 -13 -21 -23 -25 -16 -17 -5 -3 -2 -0 1 2 -3 -4 -5 -4 -5 -10 -7 -8 -6 -5 -7 -10 -3 -0 -0 1 -1 -3 -6 -6 -6 -4 -7 -8 -9 -9 -10 -2 4 5
-3 -3 -6 -15 -23 -22 -8 -7 -7 1 2 2 4 4 -0 -4 -3 -5 -6 -2 -4 -6 -2 -1 -3 -8 -7 -2 3 2 1 -2 -2 -5 -4 -3 -3 -5 -8 -8 -8 -8 -7 3 5
-1 -3 -5 -14 -22 -7 -0 -1 1 -1 -1 -1 2 2 -2 -2 -1 -4 -6 -1 -3 1 3 -1 -1 0 -7 -5 -2 -1 -1 0 -1 -3 -2 -2 -3 -2 -4 -8 -6 -4 -3 4 5
-2 -3 -4 -13 -21 -4 1 2 2 3 1 -1 -2 -3 -2 -2 -1 -8 -5 -2 2 3 4 4 3 -1 -5 -6 -5 -2 -0 1 -1 -3 -2 -2 -1 -5 -6 -7 -6 -2 -2 4 6
-3 -2 -3 -9 -21 -4 -1 1 1 1 1 -1 -2 -1 -3 -4 -2 -4 -4 -0 2 5 5 5 4 2 -1 -1 -3 -4 -3 0 0 -2 -3 -1 -1 -4 -6 -7 -7 -5 -3 -1 5
-4 -3 -3 -8 -11 -5 -1 0 0 -0 3 -0 -1 -2 -4 -4 -2 -4 -4 -3 1 3 5 6 4 4 4 2 0 4 -6 -6 -3 -1 3 -1 3 -2 -4 -5 -6 -7 -5 -2 5
-4 -4 -3 -5 -9 -5 -2 -2 -2 2 -0 -4 -4 -5 -4 -4 -5 -6 -5 -6 -4 3 4 4 5 6 5 3 1 2 2 3 2 2 1 1 1 -1 -4 -3 -4 -6 -7 -5 1
-5 -3 -3 -4 -7 -5 -1 -3 -0 3 1 -3 -4 -3 -2 -4 -4 -7 -7 -7 -7 -3 3 2 4 4 3 2 2 3 3 3 1 2 5 2 2 2 -2 -3 -4 -5 -6 -6 3
-4 -4 -4 -5 -7 -8 -3 -1 1 3 -7 -4 -3 -3 -2 -1 -2 -3 -4 -5 -4 -4 -3 -4 1 3 3 5 3 4 6 6 6 6 7 2 3 2 -2 -3 -3 -3 -5 -5 3
-2 -4 -5 -7 -8 -6 -1 1 2 -3 -2 -6 -6 -7 -6 -8 -5 -2 -2 -4 -6 -7 -3 -2 1 -1 3 4 5 4 6 7 10 9 6 1 3 0 -3 -4 -5 -5 -5 -4 5
-3 -4 -5 -10 -4 -3 -1 -1 -2 -4 -5 -4 -4 -6 -8 -9 -7 -2 -1 -0 -3 -7 -3 -1 1 -2 0 0 2 5 8 4 7 6 8 6 3 0 -1 -3 -5 -5 -2 1 6
-4 -4 -10 -9 -4 -2 -1 -3 -3 -6 -6 -6 -2 -4 -3 -4 -4 -5 -1 2 4 2 -5 -2 2 -2 -2 -1 -0 2 4 8 9 10 9 6 4 5 2 1 -1 -1 -0 4 6
-4 -3 -11 -6 -4 -1 -1 -3 -5 -8 -8 -4 -2 -2 -3 -3 -4 -3 2 3 1 3 0 2 1 -0 -1 0 3 4 8 7 7 7 10 8 8 7 4 1 1 2 3 3 4
-3 -4 -7 -1 -2 -1 -1 -3 -5 -6 -6 -5 -3 -2 -3 -4 -3 -4 -2 -0 -4 -2 2 0 4 6 2 -3 -3 3 6 6 9 8 7 8 9 7 5 2 -1 2 3 4 4
-2 -3 -8 -6 -1 -2 -3 -3 -4 -4 -5 -6 -3 -5 -4 -4 -4 -3 -3 -2 -4 -1 -0 -3 3 6 3 0 -2 2 2 5 6 7 9 10 9 7 6 6 5 1 3 4 4
-3 -3 -6 -3 -4 -1 -0 -1 -2 -4 -4 -5 -4 -4 -4 -3 -4 -4 -4 -2 -3 -2 -3 -2 3 5 7 7 6 7 5 4 7 9 8 8 7 8 8 7 4 2 3 4 4
-3 -4 -4 -2 -1 -1 -2 -2 -2 -1 -2 -3 -3 -4 -4 -3 -2 -2 -2 -1 -1 -0 1 1 2 5 4 4 2 3 6 6 6 6 8 6 6 7 8 6 6 4 3 3 3
-3 -4 -3 -3 -4 -4 -3 -2 -2 -0 -3 -2 0 1 0 -0 -3 -1 1 -1 3 1 2 3 3 4 4 2 0 3 5 6 7 7 4 5 6 6 8 7 5 4 3 3 3
-3 -3 -4 -5 -4 -4 -3 -4 -3 -6 -1 -3 -1 1 1 0 1 0 -0 -0 -0 0 2 3 3 3 4 2 2 5 3 4 4 6 7 9 6 7 6 6 5 3 3 3 3

GFSSW_850_dewp_069.txt.gz
Dewpoint
-7 -9 -11 -14 -15 -19 -21 -21 -21 -22 -23 -23 -23 -24 -25 -24 -27 -29 -30 -20 -7 -8 -10 -15 -8 -5 -2 -2 -1 -1 -1 0 -1 -2 -4 -6 -6 -7 -7 -7 -4 2 1 -0 5
-1 -2 -4 -8 -16 -18 -21 -23 -25 -25 -25 -25 -24 -26 -26 -21 -25 -33 -11 -8 -9 -9 -11 -11 -10 -6 -1 -0 0 1 1 -1 -3 -5 -5 -6 -6 -6 -7 -7 -7 1 4 -0 5
-1 -2 -4 -6 -9 -17 -21 -22 -23 -25 -26 -23 -21 -25 -27 -19 -19 -13 -6 -6 -6 -8 -6 -3 -7 -5 -2 -0 1 -0 1 -2 -3 -4 -4 -6 -6 -6 -7 -6 -7 -0 1 0 6
-4 -0 -3 -5 -9 -19 -23 -24 -24 -25 -25 -24 -19 -13 -19 -11 -24 -9 -8 -8 -6 -6 -7 1 2 -4 -8 -0 -0 0 -2 -2 -1 -2 -4 -5 -5 -6 -7 -7 -7 -8 -3 3 6
-6 0 -3 -7 -12 -21 -25 -27 -27 -26 -24 -19 -10 -8 -2 -4 -18 -28 -7 -7 -7 -6 -6 -4 2 -1 -6 -6 -2 1 -0 -1 -1 -1 -2 -4 -5 -5 -6 -6 -7 -9 3 4 4
-2 -4 -5 -8 -15 -21 -25 -27 -28 -27 -17 -3 -1 -4 2 1 -24 -12 -16 -12 -6 -6 -6 -6 -5 -6 -5 -3 -2 -2 -2 -1 -1 -1 -2 -3 -5 -7 -7 -7 -9 -6 6 4 3
-3 -1 -2 -5 -14 -23 -25 -28 -28 -22 -5 -3 -1 -3 3 -5 -14 -21 -13 -9 -7 -6 -6 -5 -7 -8 -9 -5 -3 -2 -1 -3 -3 -4 -5 -6 -6 -7 -8 -8 -9 0 6 5 3
-3 -5 -6 -9 -16 -23 -26 -28 -27 -17 -14 -5 -2 -2 2 -10 -10 -6 -6 -14 -10 -7 -6 -6 -6 -6 -9 -8 -3 -1 -2 0 -3 -5 -5 -7 -2 -7 -8 -9 -9 -1 7 5 4
-1 -2 -4 -10 -20 -24 -25 -19 -14 -7 -2 -2 -0 1 0 -4 -5 -5 -5 -4 -8 -10 -7 -7 -4 -5 -8 -5 -0 -0 2 0 -1 -5 -6 -7 -4 -6 -7 -7 -8 -8 5 5 4
-1 -2 -5 -12 -19 -22 -9 -14 -6 1 1 2 4 3 -3 -3 -3 -5 -5 -5 -3 -6 -6 -4 -3 -6 -8 -2 1 2 2 -0 -1 -3 -3 -2 -2 -4 -5 -5 -6 -7 -8 3 5
-3 -4 -5 -12 -17 -14 -3 -8 -2 0 -1 -1 -0 2 -1 -1 -2 -3 -5 -3 -3 -2 1 1 0 1 -4 -4 -2 -0 0 0 -1 -2 -2 -2 -2 -3 -4 -4 -6 -7 -7 -2 2
-5 -5 -6 -13 -16 -9 -0 1 -0 0 2 -1 -4 -4 -3 -1 0 -7 -5 -4 1 2 4 4 3 0 -2 -4 -5 -5 -2 0 -1 -2 -2 -2 -2 -4 -4 -5 -6 -6 -7 -6 1
-5 -6 -5 -12 -18 -6 -2 0 -0 1 2 -2 -4 -2 -2 -2 -1 -4 -8 -5 2 4 5 4 3 2 1 -0 -0 -2 -3 -1 0 -2 -2 -1 -1 -1 -3 -6 -6 -7 -7 -6 -4
-5 -5 -4 -11 -7 -13 -1 -0 -2 1 2 -2 -1 -2 -2 -2 -2 -9 -5 -2 1 3 4 5 4 4 5 4 2 2 -3 -1 -5 -3 2 -1 4 0 -1 -3 -5 -6 -4 -2 2
-5 -5 -5 -6 -6 -9 -6 -5 -4 2 -1 -8 -2 -4 -3 -4 -5 -4 -5 -4 2 3 4 3 5 6 5 4 2 2 4 4 3 3 2 1 3 1 -3 -2 -4 -5 -6 -6 -3
-6 -4 -5 -6 -8 -7 -8 -5 -1 2 -2 -5 -3 -2 -2 -3 -4 -6 -5 -6 -6 -2 3 2 3 3 3 3 2 2 4 4 4 3 5 1 2 3 1 -1 -3 -5 -6 -6 -6
-6 -4 -4 -6 -7 -8 -9 -3 -0 3 -8 -3 -4 -4 -1 -1 -2 -5 -5 -5 -4 -3 -3 -4 -1 2 3 4 3 4 7 7 6 6 5 2 3 1 -0 -2 -2 -3 -4 -5 -5
-6 -5 -6 -7 -7 -7 -5 -0 -0 -8 -3 -5 -5 -5 -1 -2 -2 -3 -4 -4 -6 -7 -4 -2 -3 1 3 3 4 3 7 8 8 8 7 3 5 1 1 -1 -1 -3 -4 -5 -5
-5 -5 -8 -8 -8 -5 -1 -0 -6 -5 -5 -4 -5 -3 -4 -5 -5 -1 -2 -3 -5 -7 -4 -2 0 -3 3 2 4 7 7 6 8 8 8 6 3 1 1 1 2 -2 -5 -5 -3
-4 -6 -9 -6 -6 -3 -3 -4 -3 -6 -7 -7 -2 -2 -2 -3 -3 -4 -1 0 3 -4 -6 -3 1 -3 -1 2 3 6 6 8 9 10 9 6 7 9 5 3 4 4 4 4 6
-5 -6 -7 -3 -5 -3 -3 -4 -4 -7 -6 -5 -2 -2 -3 -2 -4 -3 0 3 3 2 -3 1 -0 -1 -1 3 5 7 8 7 8 8 9 9 10 7 8 6 4 4 5 5 7
-4 -6 -6 -6 -2 -2 -3 -4 -5 -5 -6 -5 -4 -2 -2 -3 -2 -4 -2 0 -3 -1 3 0 4 6 4 -1 1 4 6 7 9 9 8 10 9 7 7 5 3 4 5 5 7
-3 -3 -7 -6 -6 -1 -3 -3 -4 -4 -5 -4 -4 -4 -3 -3 -0 -3 -4 -2 -3 -1 -2 -2 3 6 3 1 3 5 6 6 7 7 8 9 8 7 6 5 4 4 4 5 6
-4 -5 -7 -3 -4 -3 -3 -2 -3 -2 -2 -2 -3 -4 -3 -2 -3 -1 -2 -3 -3 -2 -2 -2 2 4 5 6 5 7 5 6 7 9 8 8 9 8 7 7 5 6 4 5 5
-3 -4 -4 -7 -2 -4 -4 -3 -1 -1 -2 -2 -2 -1 1 1 -2 -1 -2 -1 0 1 1 -1 1 4 3 3 3 4 5 6 8 7 9 5 5 6 7 7 6 6 3 4 3
-3 -4 -3 -3 -4 -3 -3 -2 -4 -3 -6 -0 -1 -0 -0 2 0 2 -1 -1 0 1 2 2 2 3 3 3 1 0 0 4 6 6 7 6 5 6 6 6 6 7 4 4 3
-3 -3 -4 -5 -5 -5 -6 -6 -3 -5 -6 -5 -3 0 1 -0 -0 1 1 0 0 -0 1 2 3 3 3 2 1 3 3 1 5 5 5 8 6 7 7 6 6 6 5 4 2

GFSSW_850_dewp_072.txt.gz
Dewpoint
-9 -12 -16 -15 -18 -24 -25 -23 -22 -23 -24 -25 -24 -24 -27 -29 -30 -32 -33 -31 -16 -12 -14 -13 -12 -6 -3 -2 -1 -2 -2 -1 -3 -3 -5 -6 -6 -7 -7 -7 -7 -6 -0 4 5
-9 -9 -9 -12 -16 -19 -22 -24 -23 -23 -24 -25 -23 -22 -23 -24 -28 -29 -14 -8 -7 -8 -9 -8 -8 -7 -2 -1 -0 -0 1 -4 -4 -5 -5 -6 -5 -5 -6 -6 -6 -7 -3 1 8
-9 -12 -10 -12 -14 -18 -21 -24 -24 -24 -24 -25 -23 -21 -19 -22 -22 -8 -6 -6 -8 -8 -8 -7 -6 -6 -2 -0 1 1 0 -3 -3 -4 -4 -4 -5 -5 -6 -5 -6 -7 -7 -7 -4
-9 -10 -11 -11 -19 -23 -24 -24 -26 -26 -25 -24 -22 -12 -8 -15 -26 -8 -7 -7 -6 -7 -7 1 1 -5 -6 -2 -2 1 -1 -2 -3 -3 -2 -3 -3 -4 -5 -5 -6 -6 -6 -7 -4
-6 -5 -6 -9 -14 -21 -25 -24 -25 -27 -26 -24 -8 -2 -2 -5 -21 -23 -8 -7 -7 -7 -6 -3 2 -2 -7 -7 -5 0 0 -1 -1 -2 -2 -2 -3 -3 -5 -3 -4 -5 -7 -9 -2
-4 -7 -8 -9 -14 -22 -25 -27 -27 -28 -25 -18 -6 -1 1 -0 -18 -19 -13 -14 -9 -8 -6 -4 -4 -2 -3 -5 -5 -5 -3 -2 -2 -1 -1 -1 -2 -3 -3 -3 -5 -6 -7 -9 -3
-2 -4 -4 -5 -10 -21 -27 -29 -28 -22 -20 -18 -9 -1 2 -9 -15 -15 -18 -14 -9 -7 -6 -5 -5 -7 -9 -8 -6 -2 -1 -2 -2 -2 -1 -2 -3 -5 -5 -5 -7 -8 -8 -9 -2
-1 -1 -3 -6 -10 -23 -27 -28 -18 -12 -10 -7 -5 -0 -0 -13 -9 -11 -5 -10 -10 -8 -6 -6 -4 -6 -6 -8 -5 -1 -1 1 -2 -3 -4 -5 -0 -4 -5 -6 -7 -8 -8 -8 -0
-2 -2 -3 -8 -10 -22 -27 -25 -10 -5 0 0 -0 1 -1 -4 -4 -4 -4 -5 -7 -9 -8 -7 -7 -5 -7 -7 -3 -1 2 1 -0 -4 -4 -5 -2 -6 -7 -6 -6 -6 -7 -5 1
-3 -4 -6 -11 -15 -21 -24 -16 -4 0 1 2 3 3 -4 -2 -2 -3 -5 -5 -5 -7 -4 -2 -3 -5 -7 -3 -0 1 2 1 0 -3 -4 -3 -3 -3 -4 -5 -5 -4 -5 -7 -4
-5 -6 -9 -13 -19 -21 -13 -11 -7 -1 -4 -4 -4 1 -5 -6 -3 -2 -3 -3 -3 -2 -2 -0 0 -0 -3 -5 -5 -2 -0 1 -1 -2 -1 -1 -2 -3 -4 -4 -4 -4 -4 -6 -6
-5 -7 -9 -12 -17 -9 -1 -0 -1 -2 -1 -3 -3 -1 -4 -4 -0 -6 -4 -5 0 0 3 3 3 -0 -1 -3 -4 -4 -4 -4 -3 -2 -1 -1 -1 -3 -4 -4 -5 -5 -5 -6 -6
-5 -7 -8 -13 -14 -14 -2 -1 -2 -0 1 -1 -5 -3 -3 -2 -1 -2 -7 -5 1 2 4 3 1 2 2 2 1 0 -0 -1 -2 -3 -3 -1 -1 -2 -4 -4 -5 -5 -5 -6 -7
-5 -8 -7 -12 -10 -14 -2 -4 -5 1 1 -3 -2 -2 -2 -2 -1 -5 -5 -6 2 2 4 4 3 4 5 5 3 3 -1 -1 -2 -1 0 -2 3 -1 -2 -2 -3 -4 -5 -5 -5
-7 -7 -5 -7 -9 -8 -11 -10 -4 2 -14 -12 -1 -2 -3 -2 -4 -4 -4 -2 2 3 4 3 4 5 6 5 3 4 2 4 4 4 3 2 3 -0 -1 -1 -2 -3 -4 -5 -5
-8 -7 -7 -7 -7 -8 -13 -10 -1 -6 -16 -7 -3 -2 -2 -3 -4 -5 -4 -5 -4 0 3 3 2 4 4 2 3 2 4 4 3 4 7 3 2 1 0 -0 -1 -4 -5 -5 -6
-9 -10 -8 -7 -6 -8 -14 -3 -8 -9 -11 -4 -3 -5 -5 -1 -2 -5 -4 -5 -4 -2 -2 -5 -3 2 2 3 3 4 6 7 7 7 7 1 2 0 -3 -3 -0 1 -1 -3 -4
-10 -11 -9 -7 -8 -10 -12 -4 -12 -11 -5 -5 -6 -5 -3 -3 -3 -3 -4 -3 -5 -6 -5 -4 -3 1 3 2 3 5 4 6 8 7 6 3 4 2 1 0 3 4 4 -1 -3
-11 -10 -9 -8 -8 -9 -4 -5 -13 -5 -5 -5 -6 -2 -3 -4 -4 -3 -3 -4 -5 -6 -3 -3 -1 -3 3 2 1 5 8 6 8 9 8 5 3 3 5 5 4 4 5 5 -0
-7 -8 -8 -3 -6 -4 -5 -5 -5 -6 -6 -7 -4 -2 -1 -2 -3 -4 -2 -1 -0 -6 -7 -4 0 -3 2 3 4 5 6 8 8 9 8 6 8 9 8 6 5 5 6 7 7
-6 -7 -4 -4 -4 -4 -6 -4 -5 -7 -6 -4 -3 -3 -2 -3 -2 -2 -3 2 3 2 -5 -3 0 -1 3 3 5 5 6 7 7 7 10 10 10 7 7 5 5 5 7 8 9
-6 -7 -5 -5 -3 -4 -5 -4 -6 -5 -7 -6 -4 -3 -2 -2 -0 -2 -1 -1 1 1 5 2 5 6 4 -0 1 5 7 6 8 9 9 9 9 7 6 5 4 5 6 6 7
-5 -4 -5 -6 -9 -5 -2 -2 -4 -4 -4 -4 -4 -5 -5 -3 -0 1 0 -1 -0 1 2 1 5 5 1 2 3 5 6 6 6 7 9 9 8 7 6 6 6 4 5 4 4
-5 -6 -7 -4 -4 -5 -4 -3 -3 -2 -2 -2 -2 -2 -2 -2 -4 0 1 -0 -0 1 -1 -2 2 2 1 2 4 5 3 3 6 8 8 7 8 8 7 7 6 4 3 2 2
-4 -5 -4 -7 -4 -4 -4 -4 -3 -1 -1 -3 -1 -0 1 1 -1 -0 -1 1 0 -0 0 -2 0 3 2 2 2 3 3 2 5 6 8 7 7 6 7 7 7 4 3 2 0
-3 -4 -4 -3 -5 -4 -4 -4 -3 -3 -5 -5 -1 -1 -2 1 -1 2 1 1 3 0 3 2 4 2 1 2 0 -1 -4 -1 1 5 6 6 6 4 7 7 7 5 3 2 0
-4 -3 -4 -5 -5 -6 -6 -6 -5 -5 -5 -5 -4 -3 -2 -1 -1 -1 0 2 2 2 2 2 2 2 1 0 0 -2 0 -3 1 5 6 6 4 6 7 6 6 5 3 2 0

GFSSW_850_dewp_075.txt.gz
Dewpoint
-20 -19 -21 -23 -24 -27 -27 -26 -27 -27 -29 -29 -28 -29 -29 -29 -31 -30 -32 -31 -31 -25 -14 -8 -8 -5 -3 -2 -3 -4 -4 -4 -5 -5 -6 -6 -7 -7 -7 -6 -7 -6 -6 1 3
-17 -19 -18 -13 -22 -24 -26 -26 -26 -28 -28 -28 -27 -26 -25 -26 -22 -32 -17 -21 -22 -11 -15 -11 -11 -8 -2 -1 -0 -2 -2 -4 -6 -7 -7 -7 -6 -6 -6 -6 -6 -6 -7 -4 -2
-14 -13 -13 -17 -20 -25 -27 -26 -26 -26 -28 -28 -27 -26 -18 -16 -19 -14 -6 -8 -7 -7 -7 -7 -7 -5 -2 1 1 0 -2 -3 -4 -5 -6 -5 -5 -5 -6 -5 -6 -5 -5 -5 -3
-10 -10 -13 -15 -17 -23 -25 -25 -26 -26 -27 -28 -26 -22 -9 -8 -20 -11 -6 -6 -6 -7 -6 -4 -4 -7 -5 -4 -2 -1 -0 -2 -4 -4 -3 -3 -3 -4 -4 -4 -5 -5 -5 -4 -4
-5 -7 -11 -17 -24 -26 -26 -26 -27 -28 -29 -24 -18 -13 -6 -3 -12 -24 -7 -7 -7 -7 -6 1 -1 -5 -5 -7 -6 -2 -4 -3 -3 -2 -2 -3 -3 -3 -4 -3 -5 -3 -3 -5 -6
-3 -4 -5 -12 -17 -24 -26 -28 -29 -29 -24 -17 -14 -9 -2 1 -16 -16 -19 -10 -8 -8 -6 -2 -3 -1 -3 -5 -5 -5 -4 -4 -4 -4 -3 -3 -3 -2 -3 -3 -4 -3 -5 -6 -7
-3 -5 -6 -12 -20 -24 -26 -29 -30 -28 -23 -14 -9 -4 -1 -15 -14 -13 -15 -16 -14 -12 -8 -5 -5 -4 -7 -8 -7 -5 -3 -3 -3 -3 -3 -1 -0 -0 -2 -2 -3 -4 -5 -7 -8
-5 -4 -7 -14 -18 -25 -27 -29 -25 -23 -11 -4 -1 -0 -4 -15 -11 -10 -7 -6 -12 -11 -7 -6 -6 -6 -7 -7 -7 -4 -2 -1 -2 -2 -3 -3 -4 -5 -4 -4 -5 -5 -6 -8 -8
-7 -7 -10 -15 -19 -26 -28 -23 -15 -6 -0 -1 1 2 -2 -5 -4 -3 -4 -5 -7 -9 -8 -7 -6 -5 -7 -6 -5 -2 -1 0 -1 -4 -3 -3 -1 -4 -5 -5 -5 -6 -5 -5 -5
-5 -7 -10 -12 -24 -27 -26 -14 -4 -1 -0 1 4 3 -4 -2 -1 -2 -4 -5 -6 -8 -4 -4 -4 -4 -6 -4 -3 -2 -0 1 1 -2 -3 -2 -2 -4 -4 -4 -4 -4 -4 -5 -5
-5 -8 -12 -18 -25 -21 -19 -12 -8 -4 -8 -7 -5 -1 -6 -7 -5 -3 -4 -3 -4 -3 -4 -1 -2 -1 -3 -3 -3 -4 -3 -3 -4 -4 -3 -3 -2 -2 -3 -3 -4 -4 -4 -5 -5
-5 -9 -12 -16 -18 -17 -5 -3 -3 -3 -1 -6 -4 -3 -6 -5 -2 -5 -3 -4 -0 1 2 3 2 -1 -3 -3 -4 -3 -2 -2 -3 -5 -5 -5 -4 -2 -3 -3 -3 -4 -4 -4 -6
-6 -9 -12 -15 -15 -17 -4 -6 -4 -2 -0 -3 -5 -4 -3 -2 -0 -2 -6 -5 0 1 3 1 -0 1 0 2 2 2 2 2 2 -1 -2 -2 -2 -4 -5 -4 -4 -4 -4 -4 -5
-8 -11 -12 -13 -13 -15 -7 -12 -6 0 0 -8 -3 -2 -2 -2 -1 -3 -4 -5 1 -1 2 3 1 2 3 4 4 4 1 1 1 2 2 -3 1 -2 -3 -3 -3 -4 -4 -4 -4
-12 -11 -11 -10 -11 -12 -15 -14 -4 2 -20 -15 -1 -2 -2 -2 -3 -4 -5 -3 -0 2 3 0 4 5 4 2 3 3 2 3 3 4 4 3 3 -0 -2 -2 -3 -3 -3 -4 -4
-13 -11 -10 -9 -9 -12 -17 -10 -2 -12 -22 -12 -4 -5 -7 -3 -4 -5 -4 -5 -1 2 3 2 1 3 3 2 2 2 3 3 3 4 6 3 3 1 -1 -2 -2 -1 0 0 -1
-13 -11 -9 -9 -11 -14 -17 -3 -14 -20 -13 -5 -4 -8 -6 -4 -2 -5 -3 -4 -3 -0 -1 -4 -3 1 2 2 2 1 3 5 6 6 4 1 3 2 -1 -1 3 4 4 4 1
-15 -13 -9 -10 -9 -13 -12 -12 -23 -13 -7 -6 -7 -7 -3 -4 -4 -3 -4 -2 -5 -6 -4 -4 -2 -2 2 -0 0 3 3 6 6 6 5 3 3 2 5 4 4 5 5 5 3
-14 -12 -8 -6 -9 -12 -11 -8 -16 -3 -6 -6 -9 -2 -3 -4 -4 -5 -2 -3 -4 -6 -3 -3 -3 -4 2 1 -1 4 6 4 9 6 8 3 2 5 4 5 5 6 7 8 7
-11 -9 -5 -6 -7 -7 -7 -8 -7 -7 -6 -6 -6 -2 -1 -8 -4 -6 -4 1 2 -6 -6 -4 -1 -3 3 3 3 4 5 8 8 7 7 4 5 8 7 6 6 6 7 8 9
-11 -8 -4 -4 -5 -8 -6 -6 -6 -7 -5 -5 -3 -4 -6 -12 -8 -9 -3 0 0 3 -4 -4 0 -0 3 4 4 5 5 7 7 6 7 9 10 6 7 6 6 6 6 6 7
-9 -6 -5 -6 -5 -4 -4 -5 -6 -6 -8 -8 -5 -5 -4 -5 -1 -2 -2 -1 -1 1 3 3 4 3 1 -0 1 3 4 6 7 7 8 8 7 7 6 5 5 5 4 5 5
-7 -6 -5 -7 -5 -3 -4 -3 -4 -4 -5 -4 -4 -4 -5 -5 -3 -3 -0 -1 0 1 4 2 6 6 4 4 3 4 5 7 7 6 7 8 8 7 6 4 3 3 3 3 4
-6 -7 -5 -5 -4 -5 -4 -4 -5 -3 -2 -1 -2 -3 -2 -2 -3 -4 -0 -0 0 1 2 1 1 5 3 0 2 3 1 1 6 6 6 8 8 7 6 7 3 2 2 1 2
-6 -5 -4 -4 -3 -4 -4 -4 -3 -2 -3 -3 -0 -1 -1 0 -2 -2 -4 -2 -0 1 2 3 2 3 1 1 2 0 -0 -2 -1 4 6 4 4 5 6 6 6 2 0 0 -0
-4 -4 -4 -3 -4 -5 -5 -7 -5 -5 -7 -6 -2 -4 -5 -1 -2 0 -0 -1 1 1 3 4 3 3 1 2 -1 -2 -5 -3 -0 -1 1 4 5 3 3 6 5 3 1 -0 -1
-5 -4 -5 -5 -5 -6 -6 -7 -6 -6 -6 -5 -5 -5 -5 -1 -0 -0 -1 0 1 3 3 3 3 1 -0 -0 -2 -5 -3 -5 -1 1 3 5 4 5 7 6 5 3 1 0 -1

GFSSW_850_dewp_078.txt.gz
Dewpoint
-18 -18 -20 -22 -24 -25 -28 -29 -30 -30 -30 -31 -31 -31 -31 -33 -33 -28 -22 -22 -30 -30 -24 -3 -0 -0 -5 -7 -4 -5 -4 -4 -6 -6 -7 -10 -10 -11 -10 -10 -10 -8 -5 -2 3
-18 -20 -22 -24 -26 -26 -27 -29 -29 -29 -29 -29 -31 -32 -32 -32 -30 -26 -17 -20 -23 -20 -16 -3 -5 -2 -3 -4 -4 -6 -5 -6 -7 -7 -7 -9 -9 -10 -8 -8 -7 -8 -8 2 4
-18 -20 -22 -24 -25 -27 -27 -27 -27 -28 -29 -29 -29 -30 -30 -29 -17 -13 -8 -8 -8 -12 -3 -6 -8 -5 -6 -4 -3 -4 -4 -7 -6 -6 -7 -8 -9 -9 -9 -7 -9 -8 -9 -7 -5
-12 -15 -20 -22 -26 -27 -28 -28 -28 -29 -29 -28 -29 -28 -27 -19 -17 -8 -7 -7 -7 -7 -3 -4 -5 -6 -7 -7 -6 -2 -4 -5 -7 -6 -6 -6 -7 -7 -8 -7 -8 -8 -8 -7 -6
-11 -13 -19 -22 -25 -26 -27 -28 -29 -30 -30 -24 -22 -21 -12 -1 -6 -17 -8 -7 -7 -6 -1 -3 -6 -7 -7 -9 -9 -5 -7 -9 -7 -6 -7 -8 -8 -8 -8 -7 -7 -8 -8 -6 -6
-6 -10 -18 -25 -27 -27 -27 -28 -31 -31 -30 -21 -19 -13 -1 -4 -14 -16 -17 -8 -4 -1 -2 1 -2 -3 -4 -5 -6 -7 -6 -6 -6 -6 -6 -5 -6 -7 -7 -6 -6 -6 -6 -7 -6
-8 -15 -22 -25 -27 -27 -29 -29 -31 -31 -29 -22 -14 -5 1 -5 -17 -16 -15 -15 -8 -4 -4 -2 -1 -3 -5 -5 -6 -6 -5 -6 -6 -5 -5 -6 -5 -5 -5 -5 -5 -6 -7 -8 -7
-10 -17 -20 -26 -27 -28 -29 -30 -30 -29 -22 -9 -4 0 -0 -15 -14 -12 -11 -11 -14 -13 -5 -5 -3 -4 -6 -7 -6 -5 -6 -4 -8 -4 -4 -3 -3 -9 -8 -5 -5 -5 -6 -8 -8
-7 -10 -19 -26 -28 -29 -29 -29 -25 -14 -3 -3 1 3 -2 -6 -2 -0 -4 -3 -3 -8 -8 -5 -4 -5 -5 -5 -5 -5 -5 -5 -5 -6 -5 -4 -2 -5 -5 -5 -5 -5 -6 -7 -7
-7 -12 -18 -25 -27 -27 -27 -24 -12 -8 -2 2 3 2 -1 -2 0 -0 -1 -5 -4 -5 -4 -5 -6 -5 -5 -4 -4 -6 -5 -5 -3 -4 -4 -4 -3 -4 -5 -5 -4 -5 -5 -6 -6
-6 -11 -17 -19 -21 -23 -24 -11 -6 -3 -4 -9 -8 -2 -6 -7 -5 -3 -3 -3 -4 -5 -6 -7 -5 -5 -7 -6 -7 -6 -4 -4 -7 -7 -6 -5 -5 -6 -7 -5 -4 -4 -4 -6 -6
-7 -12 -14 -19 -19 -18 -13 -5 -4 -8 -4 -6 -4 -3 -4 -3 -5 -7 -2 -4 -2 -2 -3 -1 -2 -7 -7 -6 -4 -5 -4 -4 -4 -4 -3 -3 -3 -5 -6 -7 -6 -4 -4 -5 -6
-8 -15 -15 -19 -17 -18 -10 -9 -7 -4 -2 -6 -3 -2 -2 -1 -2 -3 -4 -4 -3 -3 -1 -2 -6 -1 -2 -2 -2 -2 -0 -0 1 -0 -1 -0 -1 -4 -5 -5 -6 -5 -5 -4 -5
-12 -15 -16 -16 -14 -15 -4 -13 -9 -1 -4 -14 -2 -2 -1 -1 -1 -2 -4 -6 -4 -4 -4 -3 -4 -2 -1 -1 -0 0 -1 0 1 1 -1 -2 -0 -3 -4 -4 -6 -7 -5 -5 -5
-13 -14 -14 -17 -15 -7 -14 -16 -5 -0 -18 -11 -2 -2 -4 -2 -3 -3 -4 -6 -6 -4 -2 -4 -1 2 -0 -2 -1 -1 -0 -0 1 3 3 1 2 -2 -3 -2 -4 -5 -5 -4 -4
-13 -13 -13 -14 -15 -16 -19 -12 -1 -6 -21 -12 -6 -9 -11 -7 -5 -4 -4 -4 -3 -2 -1 -2 -3 0 0 0 -1 -2 -1 -2 -1 2 5 1 1 -1 -2 -1 -2 -2 -3 -1 -1
-13 -13 -12 -14 -9 -18 -20 -2 -12 -20 -20 -9 -6 -11 -14 -7 -6 -4 -3 -3 -3 -1 -1 -4 -3 -2 -1 0 -1 -0 -2 -3 2 5 3 -1 1 0 -2 2 2 2 2 3 3
-15 -11 -10 -11 -15 -18 -10 -12 -20 -17 -12 -9 -10 -12 -13 -8 -10 -6 -4 -3 -4 -4 -4 -4 -3 -5 -2 -1 -4 -1 -2 0 2 1 0 0 2 0 3 3 3 4 5 6 6
-11 -10 -7 -9 -14 -17 -10 -11 -14 -7 -9 -8 -11 -12 -13 -6 -8 -8 -7 -6 -5 -5 -3 -3 -3 -5 -1 -1 -2 3 4 1 5 3 5 0 -1 2 2 3 3 5 5 6 8
-9 -3 -4 -8 -11 -9 -12 -11 -9 -8 -8 -10 -11 -8 -8 -7 -10 -8 -6 0 2 -1 -5 -4 -2 -4 0 0 0 2 2 6 6 7 5 -0 1 4 6 6 5 6 6 6 7
-9 -6 -4 -8 -7 -7 -7 -10 -10 -11 -8 -10 -9 -9 -12 -11 -12 -9 -8 -1 -0 1 -0 -4 -3 -1 2 2 0 4 4 5 7 6 5 4 10 7 7 6 6 5 5 6 6
-9 -4 -6 -11 -5 -5 -7 -8 -7 -8 -8 -8 -9 -8 -9 -10 -12 -11 -10 -7 -0 0 3 -1 1 1 -2 -4 -2 -1 1 3 5 6 8 9 7 6 4 4 4 3 3 4 4
-5 -6 -7 -6 -3 -6 -7 -6 -6 -6 -5 -6 -6 -7 -8 -7 -7 -10 -10 -12 -1 2 4 4 4 3 0 2 1 2 2 6 5 7 7 8 9 6 6 3 3 2 2 2 3
-4 -3 -5 -5 -6 -5 -4 -7 -6 -4 -3 -5 -4 -3 -4 -5 -5 -7 -8 -6 -2 -3 1 2 3 2 -1 5 1 3 1 1 3 5 3 2 4 5 6 5 5 1 2 1 1
-3 -4 -4 -3 -5 -7 -6 -7 -6 -4 -5 -6 -0 -2 -2 -3 -4 -4 -7 -9 -8 -2 1 2 6 1 1 2 2 -2 -3 -3 0 0 2 -3 -3 -2 1 4 4 1 1 1 0
-3 -5 -5 -6 -6 -7 -7 -9 -8 -7 -8 -8 -3 -7 -8 -5 -3 1 -2 -3 -3 -1 1 2 5 1 2 1 -1 -1 -4 -7 -5 -2 -2 -2 -0 -0 3 5 3 2 2 1 -0
-5 -5 -5 -6 -8 -8 -8 -9 -8 -9 -8 -7 -8 -6 -5 -5 -2 -3 -3 -4 -2 -0 3 3 4 2 1 -1 -3 -3 -6 -5 -4 -4 1 3 1 2 4 5 4 3 1 1 -1

GFSSW_850_dewp_081.txt.gz
Dewpoint
-20 -19 -19 -21 -23 -26 -27 -29 -29 -30 -31 -31 -32 -32 -33 -33 -33 -24 -4 -6 -7 -24 -26 -1 -1 -4 -6 -6 -3 -4 -2 -2 -5 -7 -8 -10 -10 -12 -12 -13 -13 -10 -8 -7 1
-17 -19 -21 -23 -25 -26 -28 -28 -28 -29 -29 -30 -32 -31 -31 -31 -32 -9 -7 -12 -17 -24 -26 -5 -3 -3 -4 -6 -6 -5 -3 -4 -8 -9 -9 -9 -10 -10 -10 -10 -9 -11 -11 -9 0
-18 -20 -22 -23 -24 -26 -28 -29 -30 -31 -31 -30 -31 -32 -32 -31 -4 -11 -13 -12 -12 -21 -3 -10 -6 -7 -5 -7 -7 -6 -4 -7 -10 -10 -9 -8 -8 -9 -10 -9 -10 -8 -9 -9 -6
-17 -19 -21 -22 -23 -26 -27 -28 -30 -31 -31 -32 -32 -31 -28 -17 -11 -4 -18 -13 -10 -8 -1 -6 -9 -10 -8 -8 -8 -5 -6 -7 -8 -8 -8 -7 -8 -9 -10 -9 -9 -9 -9 -9 -8
-16 -20 -19 -22 -24 -27 -27 -28 -30 -31 -32 -32 -30 -29 -14 -2 -6 -9 -15 -8 -5 -5 -2 -4 -7 -9 -9 -11 -11 -10 -10 -9 -8 -10 -10 -8 -8 -8 -9 -9 -9 -8 -8 -8 -9
-11 -18 -20 -23 -25 -27 -28 -29 -30 -31 -31 -31 -29 -21 -3 -4 -8 -8 -11 -6 -4 -2 -4 -4 -6 -7 -8 -8 -9 -11 -10 -9 -9 -10 -10 -8 -9 -9 -9 -9 -9 -8 -8 -8 -8
-8 -18 -21 -25 -27 -28 -29 -30 -30 -30 -29 -27 -23 -12 0 -5 -6 -7 -7 -9 -10 -7 -4 -5 -4 -4 -6 -6 -7 -7 -6 -8 -9 -9 -8 -8 -6 -6 -8 -7 -7 -8 -7 -7 -7
-9 -15 -22 -26 -28 -29 -30 -31 -31 -30 -22 -17 -12 2 -2 -4 -6 -5 -6 -6 -8 -8 -8 -8 -6 -4 -5 -7 -8 -7 -7 -7 -10 -10 -8 -6 -4 -8 -9 -9 -7 -6 -6 -6 -7
-8 -12 -22 -26 -28 -29 -31 -31 -30 -18 -12 -10 2 3 -3 -5 -2 -2 -3 -6 -7 -5 -7 -8 -7 -6 -6 -5 -5 -7 -6 -8 -9 -9 -7 -6 -4 -7 -7 -6 -7 -7 -6 -6 -7
-6 -13 -20 -27 -30 -30 -30 -27 -14 -10 -1 3 3 2 -1 -5 -3 -2 -3 -3 -5 -5 -6 -7 -8 -6 -6 -5 -2 -9 -8 -7 -7 -8 -6 -4 -5 -7 -7 -7 -6 -6 -6 -6 -7
-6 -11 -17 -25 -30 -28 -22 -3 1 1 -1 -8 -9 -5 -9 -10 -9 -8 -5 -5 -4 -6 -6 -7 -5 -5 -6 -6 -6 -7 -7 -7 -8 -10 -8 -7 -7 -8 -10 -9 -7 -5 -5 -5 -5
-6 -10 -20 -27 -22 -17 -7 -6 -6 -5 -8 -8 -6 -5 -4 -3 -5 -8 -9 -5 -5 -4 -6 -5 -4 -8 -10 -9 -8 -7 -5 -5 -7 -8 -4 -3 -3 -6 -7 -8 -9 -8 -6 -5 -5
-8 -14 -20 -21 -17 -3 -6 -8 -10 -4 -3 -8 -4 -3 -3 -2 -4 -5 -8 -6 -7 -4 -4 -3 -5 -4 -5 -5 -5 -6 -5 -5 -4 -4 -5 -4 -3 -4 -6 -5 -6 -7 -8 -7 -4
-12 -17 -17 -17 -7 -7 -5 -5 -4 -2 0 -8 -3 -2 -3 -2 -2 -4 -5 -8 -7 -5 -5 -5 -6 -5 -6 -4 -5 -3 -6 -3 -1 -2 -2 -5 -0 -4 -7 -7 -6 -6 -6 -7 -5
-14 -17 -16 -11 -2 -7 -5 -6 -1 2 -5 -13 -4 -4 -10 -5 -5 -3 -5 -7 -6 -6 -5 -5 -5 -3 -3 -4 -5 -2 -3 -1 -1 -2 -3 -3 -2 -5 -6 -4 -5 -5 -6 -7 -5
-15 -16 -15 -4 -2 -4 -9 -13 1 3 -11 -10 -8 -9 -15 -10 -8 -6 -4 -5 -6 -4 -6 -5 -7 -5 -3 -4 -2 -5 -2 -1 -3 -3 1 -2 -2 -4 -5 -1 -2 -2 -3 -5 -4
-15 -16 -13 -7 -3 -15 -18 -0 -1 -12 -22 -10 -8 -12 -15 -19 -13 -8 -6 -4 -4 -1 -2 -3 -4 -5 -2 -3 -3 -2 -0 -2 -4 1 2 -3 -1 -3 -4 1 1 1 0 2 2
-17 -15 -10 -3 -11 -17 -1 -4 -11 -19 -16 -11 -13 -14 -17 -20 -12 -14 -10 -10 -10 -7 -5 -6 -5 -6 -5 -2 -2 -3 -1 -1 1 0 3 1 1 2 1 0 1 2 3 4 6
-14 -6 -2 -12 -17 -6 -5 -7 -10 -9 -10 -10 -14 -17 -18 -16 -8 -12 -11 -13 -13 -8 -4 -6 -7 -6 -4 -3 -3 -1 0 -4 0 0 1 -2 -5 0 2 2 2 3 4 5 6
-4 -3 -4 -16 -17 -2 -8 -9 -12 -11 -12 -13 -13 -16 -11 -13 -9 -12 -10 -7 -4 -3 -5 -6 -4 -5 -3 -3 -2 -2 -0 5 3 5 3 -1 -1 9 6 5 5 5 5 5 6
-4 -5 -4 -16 -5 -8 -4 -11 -12 -13 -11 -11 -13 -12 -12 -13 -14 -14 -14 -11 -3 -2 -1 -0 -4 -6 -6 -1 -2 1 2 2 4 5 5 5 9 6 6 5 5 4 4 4 4
-5 -3 -6 -8 -6 -8 -8 -10 -10 -10 -9 -10 -10 -10 -10 -11 -9 -10 -11 -15 -10 -3 2 2 5 -1 -6 -7 -6 -5 -0 1 6 3 4 6 7 5 4 4 3 3 3 3 3
-8 -7 -7 -2 -1 -7 -9 -9 -9 -8 -8 -9 -8 -9 -8 -7 -7 -10 -11 -13 -13 -10 3 2 3 2 -2 -3 -5 -3 -3 -1 3 5 5 7 8 5 4 4 4 3 2 2 2
-6 -2 -7 -8 -8 -5 -6 -8 -7 -6 -6 -7 -6 -6 -5 -6 -8 -6 -7 -11 -11 -7 -2 -0 0 3 1 1 3 5 -2 0 3 6 4 4 0 6 4 5 4 3 2 1 1
-4 -3 -5 -3 -6 -7 -6 -8 -8 -6 -6 -8 -2 -3 -6 -5 -7 -6 -6 -5 -6 -12 -7 0 1 -1 -0 -3 -1 3 5 0 2 1 1 -2 -4 -4 -0 4 4 2 2 1 0
-4 -6 -7 -7 -7 -7 -8 -9 -10 -9 -9 -8 -5 -8 -9 -7 -8 -4 -4 -4 -4 -6 -1 1 1 -0 2 1 -0 1 2 -4 -5 -7 -6 -5 -4 -0 3 4 3 2 2 1 -0
-4 -4 -5 -7 -8 -8 -8 -9 -9 -10 -10 -10 -9 -8 -7 -7 -7 -7 -7 -7 -6 -4 -3 0 2 2 1 2 0 2 -1 -4 -7 -6 -5 0 2 3 5 5 3 2 1 0 -1

GFSSW_850_dewp_084.txt.gz
Dewpoint
-22 -22 -20 -20 -21 -23 -25 -26 -28 -29 -30 -30 -31 -32 -32 -32 -32 -31 -6 -7 -5 -7 -8 -24 0 -2 -6 -5 -2 -1 -0 0 -2 -4 -5 -8 -9 -11 -12 -13 -13 -13 -12 -9 0
-19 -17 -18 -21 -23 -24 -24 -25 -27 -29 -30 -31 -31 -31 -31 -32 -32 -30 -8 -7 -10 -11 -10 -12 -4 -3 -5 -6 -7 -4 1 -1 -4 -6 -6 -9 -10 -9 -10 -11 -11 -12 -12 -10 -4
-18 -18 -18 -20 -22 -23 -24 -26 -27 -29 -30 -31 -32 -32 -31 -30 -9 -4 -12 -19 -17 -16 -23 -13 -9 -4 -4 -5 -7 -8 -3 -4 -6 -8 -9 -9 -9 -9 -8 -8 -10 -9 -9 -10 -7
-16 -18 -19 -19 -21 -23 -24 -25 -27 -28 -30 -31 -32 -32 -30 -25 -6 -7 -11 -15 -17 -12 -12 -3 -10 -8 -8 -7 -7 -7 -9 -9 -9 -8 -8 -8 -8 -8 -8 -7 -10 -10 -9 -8 -8
-13 -16 -18 -19 -20 -23 -25 -27 -28 -29 -30 -31 -32 -30 -25 -0 -2 -4 -8 -15 -12 -9 -1 -3 -7 -10 -10 -12 -11 -10 -11 -10 -9 -9 -9 -9 -9 -9 -9 -9 -9 -9 -9 -9 -8
-11 -12 -13 -18 -21 -23 -25 -27 -28 -29 -30 -30 -29 -25 -12 -3 -8 -8 -9 -8 -5 -2 -3 -5 -6 -7 -9 -9 -9 -11 -11 -11 -12 -11 -11 -11 -11 -12 -11 -11 -10 -11 -10 -9 -8
-7 -11 -12 -19 -21 -24 -27 -30 -30 -30 -30 -28 -25 -15 1 -5 -8 -7 -8 -10 -11 -8 -4 -5 -6 -5 -5 -6 -7 -7 -6 -7 -8 -9 -9 -10 -9 -9 -10 -10 -9 -9 -8 -9 -9
-5 -11 -14 -18 -24 -27 -30 -31 -32 -31 -30 -21 -11 -3 -0 -6 -5 -7 -7 -7 -7 -10 -9 -7 -6 -6 -5 -5 -5 -6 -8 -7 -10 -12 -12 -11 -6 -10 -10 -10 -8 -8 -8 -8 -8
-7 -10 -11 -18 -26 -29 -31 -31 -30 -26 -17 -11 0 4 -1 -2 -4 -3 -3 -5 -8 -9 -10 -10 -9 -8 -7 -4 -4 -6 -4 -6 -8 -12 -11 -10 -6 -8 -8 -8 -7 -7 -8 -7 -6
-7 -8 -12 -19 -27 -31 -30 -19 -10 -9 -2 3 2 3 -0 -5 -4 -3 -3 -4 -5 -6 -6 -7 -9 -8 -7 -6 -3 -5 -6 -7 -8 -11 -9 -9 -7 -7 -8 -9 -8 -7 -6 -6 -6
-6 -7 -11 -21 -31 -26 -25 -0 3 5 4 1 -3 -1 -8 -10 -9 -10 -10 -4 -5 -6 -4 -6 -6 -5 -6 -7 -7 -6 -5 -5 -7 -10 -9 -8 -8 -9 -10 -11 -10 -10 -9 -6 -5
-4 -5 -11 -24 -28 -17 -7 -3 -5 -4 -7 -6 -10 -7 -5 -4 -5 -7 -11 -6 -6 -4 -6 -6 -4 -6 -8 -8 -8 -7 -7 -6 -8 -9 -7 -7 -7 -6 -5 -5 -7 -9 -10 -8 -5
-4 -7 -16 -19 -22 -10 -5 -5 -6 -4 -3 -8 -6 -4 -3 -3 -4 -6 -10 -10 -6 -5 -4 -4 -6 -7 -4 -5 -5 -6 -6 -6 -6 -8 -7 -4 -4 -6 -7 -8 -7 -7 -7 -9 -7
-8 -13 -18 -18 -9 -6 -2 -6 -4 -3 1 -7 -6 -4 -3 -3 -2 -5 -5 -8 -7 -6 -7 -6 -7 -7 -6 -5 -6 -3 -7 -7 -4 -3 0 -4 1 -5 -8 -7 -6 -5 -5 -5 -7
-12 -16 -15 -12 -3 -3 -4 -6 -2 2 -0 -8 -4 -4 -8 -6 -8 -3 -5 -7 -7 -7 -6 -5 -7 -6 -4 -4 -8 -7 -7 -4 -3 -0 0 -1 -2 -5 -8 -7 -7 -5 -5 -5 -6
-13 -14 -9 -7 -6 -2 -6 -14 1 5 -2 -10 -6 -7 -15 -13 -10 -7 -6 -6 -6 -7 -7 -7 -9 -8 -8 -7 -6 -5 -3 -4 -2 -1 3 0 -4 -4 -4 1 1 -0 -0 2 -3
-14 -17 -14 -4 -1 -3 -19 1 4 0 -16 -11 -9 -11 -15 -17 -21 -18 -11 -5 -4 -3 -3 -5 -5 -7 -7 -3 -5 -3 -1 0 -0 -1 2 3 6 -1 3 2 1 1 4 5 6
-16 -16 -9 -2 -8 -15 -1 -0 -1 -18 -13 -12 -14 -15 -15 -19 -21 -19 -14 -12 -13 -13 -8 -7 -6 -8 -5 -2 -3 -3 -1 2 1 3 1 -0 9 5 2 4 5 5 5 5 6
-15 -8 -0 -1 -18 -10 -0 -0 -5 -8 -11 -11 -16 -18 -18 -19 -14 -10 -10 -13 -15 -15 -10 -3 -5 -6 -6 -6 -5 -3 -2 -4 1 -0 1 -1 2 7 6 4 4 4 4 5 5
-2 -2 -3 -18 -19 -1 -1 -5 -10 -12 -14 -14 -13 -19 -14 -13 -12 -12 -12 -14 -7 -4 -2 -1 2 -7 -6 -5 -4 -4 -4 4 7 5 3 -2 2 9 7 6 4 4 4 4 4
-3 -3 -3 -21 -3 0 0 -8 -13 -13 -12 -12 -13 -13 -13 -12 -13 -13 -15 -16 -15 -5 -6 -3 1 2 -1 1 -0 -2 1 -0 2 4 6 8 9 6 6 5 4 3 3 3 3
-3 -1 -6 -6 -1 -6 -7 -10 -12 -12 -10 -11 -11 -11 -11 -11 -10 -10 -11 -12 -14 -13 -12 -4 4 4 -0 -5 -4 -4 -3 0 5 3 4 5 6 5 4 4 3 3 3 2 2
-4 -6 -17 -1 2 -5 -9 -11 -10 -10 -9 -9 -9 -10 -9 -8 -8 -10 -10 -11 -11 -12 -7 -4 0 2 -1 -4 -6 -2 -2 2 4 5 6 7 6 5 4 3 4 3 2 2 1
-4 -0 -6 -6 -7 -5 -7 -8 -8 -8 -8 -8 -8 -8 -7 -7 -9 -9 -9 -10 -8 -7 -3 -3 -3 -0 3 1 1 4 4 2 1 7 4 4 4 2 5 4 4 3 2 1 0
-3 -0 -4 -1 -6 -7 -7 -9 -8 -7 -8 -9 -5 -5 -5 -6 -8 -8 -9 -8 -9 -9 -8 -5 -2 -4 -2 -3 -3 0 5 2 3 6 4 1 -2 4 5 5 3 2 1 1 -0
-7 -3 -6 -6 -7 -7 -7 -9 -10 -9 -11 -7 -6 -8 -9 -8 -9 -5 -7 -7 -6 -8 -6 -1 -0 -4 -3 -4 -4 0 -1 2 3 6 5 4 -1 5 5 3 3 2 1 0 -0
-4 -4 -3 -7 -7 -8 -7 -9 -10 -10 -10 -11 -11 -9 -9 -9 -10 -8 -8 -8 -7 -6 -3 -2 1 1 -1 -5 -2 3 -2 -3 -1 2 -1 2 5 2 4 3 2 1 1 -0 -2

GFSSW_850_dewp_087.txt.gz
Dewpoint
-16 -19 -21 -20 -20 -21 -22 -24 -25 -24 -24 -25 -27 -30 -31 -31 -31 -31 -28 -25 -17 -9 -7 -7 -17 -1 -5 -6 -2 -0 2 4 2 0 -2 -5 -5 -7 -9 -11 -13 -13 -13 -8 0
-15 -18 -19 -19 -20 -22 -23 -24 -24 -25 -26 -28 -30 -31 -32 -31 -30 -29 -15 -9 -6 -6 -7 -7 -13 -1 -3 -6 -5 -5 0 2 -2 -2 -3 -4 -6 -8 -8 -8 -8 -11 -13 -3 -1
-15 -17 -17 -18 -20 -21 -22 -23 -24 -24 -25 -28 -29 -31 -32 -29 -22 -6 -9 -21 -21 -19 -16 -11 -16 -10 -3 -6 -6 -6 -5 -6 -3 -3 -4 -5 -8 -8 -8 -6 -7 -7 -9 -10 -4
-13 -16 -16 -17 -20 -21 -22 -22 -23 -25 -27 -29 -29 -30 -30 -27 -6 -6 -8 -8 -10 -19 -16 -11 -8 -10 -7 -4 -5 -5 -7 -7 -8 -7 -7 -8 -8 -7 -8 -8 -9 -9 -9 -9 -9
-13 -14 -15 -17 -19 -20 -21 -22 -23 -25 -27 -28 -28 -28 -23 -5 -8 -17 -5 -8 -17 -16 -11 -4 -3 -6 -9 -9 -9 -9 -10 -10 -9 -9 -10 -8 -9 -9 -9 -9 -10 -11 -10 -10 -10
-12 -12 -14 -17 -18 -20 -21 -21 -24 -27 -28 -28 -27 -23 -14 0 -12 -8 -8 -9 -12 -3 -3 -1 -2 -5 -9 -10 -10 -11 -9 -9 -8 -8 -8 -8 -9 -9 -10 -10 -11 -12 -12 -12 -10
-9 -8 -13 -16 -18 -20 -20 -23 -27 -30 -30 -29 -23 -13 -8 -19 -12 -6 -5 -7 -10 -9 -6 -4 -4 -5 -6 -4 -5 -6 -5 -7 -8 -8 -9 -9 -7 -8 -10 -10 -10 -10 -10 -10 -10
-5 -6 -9 -14 -18 -19 -22 -27 -30 -31 -30 -24 -12 -3 -6 -22 -5 -8 -8 -7 -8 -8 -11 -10 -9 -8 -7 -6 -5 -4 -4 -4 -7 -9 -11 -10 -7 -10 -11 -11 -11 -11 -11 -10 -10
-2 -3 -9 -14 -17 -20 -27 -30 -29 -26 -22 -13 -7 -1 3 -2 -3 -4 -3 -6 -7 -7 -8 -10 -10 -9 -8 -5 -2 -3 -2 -4 -5 -8 -9 -10 -7 -9 -11 -9 -8 -8 -9 -8 -8
-1 -4 -7 -12 -17 -24 -30 -27 -10 -5 -3 -2 4 4 2 -5 -5 -3 -3 -3 -4 -6 -8 -9 -9 -7 -7 -5 -0 -2 -4 -5 -5 -7 -8 -8 -8 -9 -10 -11 -11 -11 -11 -11 -10
-2 -4 -4 -8 -18 -27 -28 -11 1 4 5 3 2 -1 -4 -7 -10 -8 -9 -7 -4 -5 -4 -6 -5 -5 -6 -6 -6 -5 -6 -5 -6 -7 -8 -8 -8 -9 -10 -11 -11 -10 -10 -10 -11
-0 -2 -4 -11 -22 -19 -6 -1 -5 -4 -4 -5 -2 -0 -7 -9 -5 -5 -8 -10 -5 -3 -5 -4 -3 -5 -6 -6 -6 -5 -5 -5 -7 -8 -8 -8 -7 -8 -6 -7 -8 -8 -8 -9 -10
-0 -2 -8 -16 -21 -9 -5 -5 -6 -11 -2 -5 -10 -2 -7 -4 -4 -7 -10 -11 -6 -4 -3 -2 -4 -6 -6 -5 -4 -4 -4 -4 -5 -7 -7 -6 -5 -4 -5 -6 -7 -9 -8 -7 -9
-0 -6 -12 -16 -11 -4 -2 -5 -11 -12 2 -2 -9 -5 -3 -3 -2 -4 -6 -9 -8 -5 -5 -4 -5 -5 -5 -3 -4 -2 -5 -5 -6 -4 1 -2 3 -1 -3 -5 -8 -1 -3 -8 -7
-5 -10 -15 -13 -1 -2 -3 -4 -10 1 3 -7 -7 -4 -4 -3 -7 -4 -6 -7 -5 -5 -6 -3 -5 -5 -4 -5 -5 -4 -5 -4 -4 -2 -0 -1 1 -1 -3 -4 -7 6 6 -2 -6
-8 -14 -12 -9 -4 -1 -4 -14 1 5 3 -5 -4 -5 -7 -9 -10 -4 -5 -7 -6 -5 -6 -6 -8 -8 -7 -7 -6 -5 -2 -1 -1 -1 2 -0 3 3 1 -1 5 7 6 6 6
-11 -14 -4 -2 -0 -1 -7 1 5 4 -10 -9 -6 -11 -13 -14 -12 -15 -5 -3 -2 -1 -1 -4 -5 -7 -9 -6 -5 -4 -0 4 2 2 2 -0 2 5 8 7 6 6 5 5 5
-12 -16 -10 -1 -1 -4 -1 1 3 -6 -10 -13 -14 -14 -13 -15 -16 -16 -12 -11 -11 -9 -9 -9 -6 -9 -6 -6 -2 -2 -0 4 5 4 3 -1 2 6 6 5 4 5 5 5 4
-14 -10 -3 -2 -14 -4 1 2 -3 -8 -11 -12 -16 -15 -15 -16 -14 -10 -8 -8 -9 -1 2 2 -1 -3 -5 -4 -3 -1 -0 -2 2 2 3 -0 -2 6 5 6 5 4 3 4 4
-2 -1 -2 -5 -17 -1 1 -1 -7 -13 -14 -14 -14 -15 -12 -11 -11 -12 -11 -13 -13 -7 -10 -3 2 -1 -3 -3 -4 -3 -2 3 5 7 7 2 7 9 6 5 5 4 3 3 3
-2 -1 -2 -18 -4 1 2 -4 -12 -12 -11 -11 -11 -11 -11 -11 -10 -10 -12 -11 -11 -10 -11 -7 2 1 -1 -0 -0 -1 0 1 3 5 7 7 7 6 6 5 5 4 3 2 2
-2 0 -6 -6 1 1 -2 -8 -13 -11 -11 -10 -10 -11 -11 -8 -8 -9 -9 -10 -7 -7 -6 -2 1 0 -2 -4 -5 -1 1 2 4 4 5 6 8 5 5 5 3 3 2 1 1
-2 -5 -12 -2 1 -1 -8 -10 -10 -10 -9 -9 -9 -7 -7 -7 -7 -8 -7 -9 -8 -6 -1 -2 -0 2 -3 -4 -1 2 3 4 6 6 7 7 6 6 5 5 3 2 1 1 0
-1 -0 -7 -5 -7 -3 -6 -7 -7 -8 -6 -8 -8 -7 -6 -6 -8 -6 -8 -8 -9 -7 -4 -4 -1 0 1 -1 -2 3 2 0 5 7 7 7 4 4 5 5 3 2 1 0 -0
-3 -0 -3 -1 -3 -4 -5 -8 -5 -6 -8 -7 -5 -5 -4 -4 -6 -6 -6 -6 -7 -8 -6 -3 -1 -2 -3 -5 -5 -4 1 -1 2 5 7 6 5 7 5 4 3 1 0 -0 -1
-3 -1 -5 -5 -7 -5 -6 -8 -9 -9 -10 -5 -5 -6 -8 -6 -6 -5 -5 -4 -4 -5 -4 -1 -0 -0 -2 -3 -2 -4 -5 -4 -1 4 5 5 6 5 4 3 1 1 0 -0 -2
-5 -4 -3 -6 -6 -5 -6 -8 -9 -8 -10 -11 -10 -8 -6 -6 -7 -7 -7 -7 -6 -5 -4 -4 -1 1 -2 -3 -1 0 -1 -2 1 3 3 5 6 3 2 1 1 0 -1 -2 -3

GFSSW_850_dewp_090.txt.gz
Dewpoint
3 1 -4 -5 -12 -14 -17 -21 -22 -23 -21 -21 -23 -25 -28 -31 -31 -31 -28 -23 -24 -15 -6 -5 -8 -11 -0 -11 -5 -1 2 4 3 3 1 -1 -2 -3 -5 -8 -8 -8 -8 -7 1
3 3 -1 -5 -10 -14 -18 -21 -23 -23 -22 -22 -22 -25 -29 -31 -31 -29 -15 -9 -11 -8 -8 -8 -8 -9 0 -5 -7 -4 0 2 1 -0 -1 -2 -2 -3 -6 -7 -8 -8 -8 5 9
4 2 1 -3 -10 -14 -18 -21 -22 -22 -21 -21 -24 -27 -29 -30 -25 -15 -14 -25 -15 -14 -17 -11 -8 -10 -4 -3 -6 -5 -2 -4 -5 -6 -5 -3 -3 -3 -5 -6 -8 -8 -9 -10 -1
3 2 -1 -3 -9 -14 -18 -21 -22 -21 -21 -23 -26 -28 -27 -27 -13 -5 -7 -8 -7 -16 -15 -19 -10 -10 -10 -3 -4 -5 -6 -6 -7 -7 -7 -7 -8 -7 -8 -7 -8 -9 -9 -10 -11
3 3 -2 -8 -10 -11 -18 -20 -21 -21 -21 -24 -26 -27 -22 -15 -19 -23 -24 -8 -9 -18 -12 -10 -3 -3 -6 -9 -8 -5 -5 -5 -6 -6 -7 -8 -8 -8 -8 -10 -10 -11 -11 -11 -11
3 2 -4 -9 -9 -12 -17 -19 -21 -20 -22 -27 -27 -21 -12 -2 -16 -8 -7 -8 -9 -6 -6 -5 -2 -2 -4 -8 -9 -10 -11 -9 -8 -8 -7 -7 -8 -8 -9 -9 -10 -10 -10 -10 -11
2 -0 -2 -6 -6 -12 -17 -19 -19 -21 -26 -28 -24 -8 -5 -21 -18 -7 -7 -6 -7 -10 -7 -5 -5 -4 -7 -5 -5 -4 -4 -5 -7 -8 -8 -9 -9 -9 -11 -13 -12 -12 -12 -12 -11
3 2 -1 -4 -7 -13 -16 -18 -20 -26 -27 -24 -15 2 -3 -27 -12 -10 -9 -7 -6 -6 -10 -10 -10 -9 -9 -7 -7 -4 -4 -2 -6 -8 -8 -9 -5 -9 -11 -11 -11 -10 -11 -11 -11
3 3 -1 -2 -5 -10 -12 -15 -26 -28 -17 -11 -2 1 2 -8 -2 -6 -7 -7 -9 -7 -7 -8 -10 -10 -9 -6 -4 -3 -1 -2 -4 -7 -7 -8 -6 -9 -10 -10 -10 -10 -10 -10 -11
3 2 0 -1 -4 -8 -13 -23 -24 -14 -4 0 -0 4 -3 -7 -5 -4 -3 -4 -5 -5 -7 -7 -9 -8 -7 -6 -2 -1 -1 -3 -4 -7 -8 -7 -7 -9 -10 -10 -10 -10 -11 -11 -11
2 2 0 -1 -3 -3 -4 -5 -8 1 2 -0 -3 -2 -1 -5 -10 -9 -4 -3 -4 -4 -6 -6 -5 -4 -7 -6 -6 -5 -4 -4 -6 -8 -7 -7 -8 -9 -9 -10 -9 -8 -8 -8 -9
2 1 -1 -2 -0 -2 -10 -5 -4 -4 -4 -1 -4 2 -2 -2 -6 -12 -9 -9 -8 -2 -5 -4 -3 -5 -7 -7 -6 -5 -4 -4 -6 -8 -8 -8 -7 -8 -9 -9 -9 -8 -6 -7 -7
1 0 -0 -2 -4 -15 -9 -4 -4 -5 -5 -10 -12 1 1 -7 -4 -4 -7 -8 -5 -2 -3 -2 -3 -5 -5 -5 -4 -4 -4 -4 -3 -5 -6 -6 -4 -4 -5 -5 -5 -5 -3 4 4
1 0 -0 -5 -15 -9 -2 -4 -6 -11 -3 -5 -5 -7 -4 -4 -3 -4 -9 -10 -9 -6 -5 -4 -5 -4 -4 -3 -5 -3 -4 -4 -3 -3 -2 -3 2 -3 -3 -4 -5 -5 6 5 5
0 -1 -5 -14 -1 -3 -3 -3 -7 -1 2 -5 -9 -6 -3 -3 -4 -4 -6 -7 -6 -5 -6 -3 -5 -5 -5 -5 -6 -4 -4 -3 -4 -2 -0 -2 1 -3 1 8 7 6 6 6 4
-2 -7 -14 -11 -5 -2 -2 -4 -5 5 2 -5 -4 -3 -2 -3 -8 -5 -6 -7 -7 -6 -6 -6 -7 -7 -6 -7 -7 -6 -3 -1 -1 0 3 -1 -0 2 8 7 5 5 6 6 5
-1 -10 -11 -2 -0 -0 -2 0 5 6 -6 -3 -2 -4 -4 -7 -7 -3 -3 -4 -3 -2 -2 -4 -4 -6 -7 -6 -7 -5 -1 3 4 2 3 -2 1 2 6 5 4 5 6 5 5
-10 -15 -9 -3 -0 -0 -4 1 6 -8 -8 -12 -13 -13 -11 -14 -16 -17 -9 -8 -2 -2 -4 -5 -4 -7 -4 -5 -5 -3 -1 3 6 4 -1 -1 2 6 5 4 4 6 5 4 5
-14 -15 -12 -5 -4 -4 1 3 -3 -7 -12 -12 -14 -14 -13 -12 -12 -9 -10 -9 -8 -8 0 -1 1 -4 -2 -3 -5 -1 1 -2 2 1 4 2 5 5 4 4 5 6 5 3 2
-13 -2 -1 -2 -7 -1 1 1 -10 -12 -13 -14 -12 -10 -9 -11 -10 -11 -10 -11 -9 -10 -11 -5 -3 -1 -3 -4 -3 -2 -1 0 3 5 6 3 2 7 6 5 5 5 4 2 1
-1 -0 -2 -9 -2 2 0 -4 -10 -11 -12 -10 -10 -9 -10 -9 -9 -9 -9 -7 -9 -8 -8 -4 -0 -2 -6 -1 -3 -3 -0 3 3 4 5 5 4 6 6 5 6 3 2 1 1
-1 -0 -3 -2 1 1 -3 -7 -11 -10 -10 -9 -9 -7 -6 -6 -7 -8 -7 -5 -7 -6 -3 -2 -1 1 -4 -6 -6 -5 2 5 7 6 4 4 4 5 5 4 3 2 1 0 -0
-2 -7 -12 -2 -1 -2 -8 -7 -7 -8 -7 -7 -7 -6 -6 -6 -6 -6 -7 -8 -8 -6 -4 -5 -2 -1 -8 -7 -2 -0 -2 -0 3 5 6 7 5 5 5 3 2 1 0 -0 -1
-1 -3 -7 -4 -4 -3 -5 -7 -6 -8 -7 -7 -4 -4 -5 -5 -7 -6 -5 -6 -7 -5 -4 -4 -2 -2 -1 -3 -3 -2 -5 -5 1 5 5 4 6 5 5 4 2 1 0 -0 -1
-2 -2 -3 -2 -3 -5 -5 -5 -4 -5 -6 -7 -5 -4 -4 -3 -5 -6 -5 -5 -6 -6 -5 -3 -1 -2 -2 -2 -3 -2 -2 -4 -3 -1 4 5 6 6 5 3 2 0 -0 -1 -1
-3 -3 -4 -6 -6 -5 -5 -8 -6 -8 -6 -5 -6 -6 -8 -6 -6 -4 -5 -5 -4 -6 -5 -3 -2 -3 -6 -5 -4 -3 -2 -3 -4 -4 -2 1 5 2 3 2 1 0 -0 -1 -2
-4 -4 -4 -5 -7 -5 -7 -7 -7 -8 -9 -9 -8 -8 -7 -6 -7 -8 -8 -7 -6 -5 -5 -4 -4 -1 -4 -4 -2 -1 -1 -3 -5 -1 3 5 5 3 1 -0 -1 -1 -2 -3 -3

GFSSW_850_dewp_093.txt.gz
Dewpoint
5 5 5 5 4 3 2 -3 -8 -16 -20 -21 -20 -19 -18 -18 -19 -22 -23 -24 -25 -24 -17 -18 -10 -6 -3 -7 -3 0 3 4 1 1 0 -2 -1 -1 -2 -3 -5 -5 -8 -8 7
7 6 5 5 4 3 1 -3 -8 -15 -21 -21 -20 -18 -20 -20 -20 -18 -12 -14 -8 -18 -13 -7 -5 -5 -4 -1 -10 -4 2 1 0 -1 0 -0 -1 -1 -3 -3 -3 -5 -8 -8 -8
9 8 6 4 4 2 0 -4 -9 -16 -21 -21 -20 -20 -22 -22 -22 -17 -19 -13 -10 -12 -12 -7 -6 -7 -8 -4 -6 -5 -0 -2 -3 -3 -4 -5 -5 -4 -5 -4 -6 -7 -8 -8 -9
10 10 8 5 3 -0 -2 -4 -9 -18 -21 -21 -21 -21 -24 -24 -15 -5 -10 -11 -15 -11 -15 -9 -7 -10 -11 -2 -2 -4 -6 -6 -6 -6 -6 -6 -7 -7 -7 -7 -8 -8 -9 -9 -10
10 10 10 7 4 2 -4 -5 -7 -18 -20 -21 -21 -23 -25 -22 -20 -17 -18 -18 -10 -9 -15 -13 -6 -8 -7 -9 -7 -6 -6 -6 -6 -6 -5 -7 -7 -7 -8 -8 -9 -9 -9 -10 -10
10 10 9 9 4 1 -3 -5 -7 -18 -20 -20 -22 -26 -19 -8 -15 -10 -12 -17 -8 -9 -10 -9 -3 -3 -3 -4 -8 -9 -10 -9 -8 -7 -8 -7 -7 -8 -9 -9 -11 -11 -11 -12 -13
9 9 8 8 6 0 -3 0 -10 -18 -19 -23 -25 -21 -4 -16 -17 -15 -7 -7 -8 -9 -6 -3 -3 -7 -7 -6 -6 -5 -3 -5 -5 -6 -8 -8 -7 -8 -10 -9 -10 -11 -11 -10 -10
8 7 6 3 3 5 -3 -5 -13 -17 -21 -23 -20 -8 1 -20 -25 -22 -14 -7 -7 -6 -7 -9 -11 -10 -9 -8 -7 -5 -4 -2 -5 -7 -7 -8 -6 -8 -9 -10 -10 -10 -11 -11 -11
8 6 5 3 3 1 -1 -4 -12 -17 -22 -14 -7 1 0 -15 -12 -13 -11 -14 -9 -7 -7 -7 -7 -10 -9 -6 -4 -5 -2 -2 -4 -6 -7 -8 -5 -8 -9 -9 -10 -10 -10 -10 -10
6 5 4 3 4 1 -0 -4 -13 -14 -7 -2 1 0 -6 -9 -4 -4 -6 -7 -6 -8 -7 -7 -8 -8 -7 -6 -1 -2 -3 -3 -3 -6 -7 -7 -6 -8 -9 -10 -10 -10 -10 -9 -10
6 5 4 3 3 2 -0 -2 -2 -1 1 -2 -2 -6 -9 -7 -6 -9 -3 -4 -4 -5 -5 -8 -7 -5 -8 -7 -6 -5 -4 -4 -6 -7 -6 -6 -6 -8 -9 -9 -9 -9 -9 -8 -7
5 5 3 3 2 -0 -0 -3 -3 -3 -2 -2 -5 -0 -7 -3 1 -10 -8 -5 -7 -2 -5 -4 -3 -6 -6 -7 -6 -6 -5 -4 -6 -7 -6 -6 -6 -7 -8 -8 -8 -7 -1 6 5
5 3 3 1 -0 -0 -0 -2 -6 -5 -6 -8 -8 0 -2 -2 2 -4 -8 -9 -7 -6 -3 -2 -3 -4 -5 -4 -4 -4 -4 -4 -3 -5 -5 -6 -5 -6 -7 -4 5 5 5 5 6
3 2 1 -0 -1 -2 -9 -8 -4 -6 -11 -9 -6 -6 -1 -3 -2 -8 -6 -8 -8 -6 -3 -2 -4 -4 -3 -3 -4 -2 -5 -4 -3 -3 -1 -5 0 -3 -5 6 5 5 5 4 3
1 1 1 0 -6 -6 -3 -4 -4 -7 -5 -9 -5 -9 -4 -4 -3 -4 -5 -9 -8 -7 -6 -4 -5 -3 -3 -3 -4 -3 -4 -3 -3 -2 -0 -1 -0 -3 3 6 5 3 4 5 4
0 0 0 -2 -6 -1 -3 -4 -5 3 -2 -4 -4 -3 -2 -3 -4 -4 -7 -7 -7 -7 -6 -6 -8 -7 -6 -7 -6 -6 -3 -2 -1 0 2 -3 -0 -1 7 6 5 4 5 5 4
-0 -1 -7 -12 -5 -1 -2 -6 2 3 -7 -1 -1 -2 -1 -1 -2 -4 -4 -3 -2 -1 -2 -4 -5 -6 -7 -5 -6 -5 -3 1 1 3 3 -2 0 -0 5 5 5 5 6 4 3
-0 -2 -13 -3 -0 -1 -2 2 4 -7 -8 -12 -5 -3 -0 -12 -11 -9 -4 -2 -10 -2 -2 -2 -3 -3 -3 -2 -2 -3 -3 1 3 4 -1 -2 2 1 5 4 5 6 4 3 3
-4 -5 -13 -2 0 -1 -0 3 -1 -7 -11 -11 -12 -8 -9 -11 -12 -10 -10 -8 -9 -10 -1 -3 -0 -6 -3 -7 -3 -2 -1 -3 0 0 3 1 1 5 5 4 5 5 3 2 2
-13 -9 -9 -3 -2 -2 2 2 -7 -9 -9 -8 -8 -9 -9 -10 -10 -10 -9 -8 -9 -10 -9 -6 -6 -3 -7 -5 -5 -5 -2 2 3 6 6 2 2 3 5 4 5 4 2 1 1
-5 -2 0 0 -5 1 2 0 -9 -9 -9 -7 -9 -9 -8 -8 -8 -8 -6 -5 -8 -8 -5 -4 -4 -4 -10 -4 -4 -5 -2 2 4 4 6 5 3 4 4 4 4 2 1 0 -0
-1 -1 -2 -5 1 1 1 -5 -9 -8 -8 -8 -6 -5 -6 -6 -7 -6 -5 -5 -6 -6 -5 -4 -2 0 -5 -7 -6 -5 3 3 5 5 3 5 4 4 4 3 2 1 0 -0 -1
-2 -4 -3 -1 1 -1 -7 -6 -5 -7 -6 -6 -6 -5 -6 -6 -5 -6 -5 -5 -7 -5 -6 -6 -3 -3 -10 -7 -5 -3 -4 -4 -1 2 4 5 4 2 3 2 1 1 0 -1 -2
-2 -4 -5 -4 -1 -3 -5 -6 -5 -7 -6 -5 -4 -5 -6 -4 -6 -6 -4 -5 -7 -4 -3 -5 -3 -4 -3 -5 -3 -2 -3 -3 -2 1 2 2 1 3 4 4 2 0 -0 -1 -2
-2 -3 -4 -2 -3 -4 -5 -5 -5 -5 -7 -6 -5 -4 -4 -3 -6 -4 -4 -5 -6 -6 -3 -4 -2 -2 -2 -3 -5 -5 -4 -5 -3 -3 -0 -2 0 -0 4 2 1 -0 -1 -1 -2
-3 -3 -4 -5 -6 -6 -5 -5 -4 -6 -5 -5 -4 -6 -7 -5 -6 -5 -5 -6 -6 -6 -5 -4 -2 -4 -4 -8 -8 -4 -4 -4 -4 -4 -4 -5 -4 3 2 1 -0 -1 -2 -2 -3
-4 -3 -5 -5 -6 -6 -6 -6 -6 -7 -8 -9 -8 -7 -6 -5 -7 -8 -8 -8 -7 -5 -4 -4 -4 -3 -4 -5 -3 -3 -2 2 -3 -5 -2 -1 1 2 1 -1 -2 -2 -3 -3 -4

GFSSW_850_dewp_096.txt.gz
Dewpoint
9 8 7 7 6 5 5 4 2 -2 -5 -11 -15 -18 -18 -16 -13 -13 -11 -13 -14 -19 -24 -17 -10 -6 -6 -5 -2 0 2 2 -0 0 -2 -2 -1 -1 -1 -2 -3 -3 -4 -6 -8
10 10 9 9 8 7 5 4 3 1 -5 -8 -15 -19 -19 -16 -13 -8 -9 -12 -9 -13 -15 -14 -10 -8 -6 -0 -9 -1 2 -0 -1 -3 -1 -1 -0 -1 -3 -3 -3 -5 -9 -9 -9
10 10 10 10 9 9 7 5 2 0 -2 -10 -16 -18 -20 -17 -13 -13 -19 -9 -9 -12 -12 -7 -5 -5 -5 -3 -7 -5 -1 -2 -2 -1 -2 -4 -4 -4 -4 -4 -6 -7 -9 -9 -9
10 10 10 10 10 9 8 6 6 1 -4 -7 -17 -20 -20 -18 -7 -8 -12 -8 -19 -11 -11 -9 -6 -8 -11 -5 -4 -5 -5 -5 -4 -4 -4 -6 -6 -6 -6 -7 -9 -9 -9 -9 -10
10 10 10 10 10 10 8 5 1 -1 -3 -9 -18 -20 -20 -20 -16 -11 -11 -14 -12 -20 -10 -13 -9 -9 -11 -10 -6 -4 -4 -4 -5 -6 -6 -6 -5 -6 -7 -8 -8 -9 -10 -10 -11
7 9 10 10 10 9 6 5 -1 -5 -4 -13 -18 -20 -18 -16 -8 -13 -10 -14 -18 -10 -10 -12 -8 -9 -5 -4 -7 -8 -8 -9 -8 -7 -7 -8 -7 -8 -8 -8 -9 -10 -10 -10 -11
4 9 9 9 9 7 6 3 3 -3 -5 -15 -18 -17 -12 -15 -7 -13 -17 -9 -11 -8 -9 -4 -8 -2 -5 -7 -7 -6 -3 -5 -5 -5 -5 -8 -7 -8 -8 -9 -9 -9 -10 -11 -11
7 7 7 8 7 7 6 6 3 -2 -8 -16 -13 -2 -1 -7 -12 -13 -15 -8 -7 -8 -9 -8 -5 -6 -9 -9 -7 -6 -5 -2 -5 -6 -6 -7 -5 -9 -9 -9 -9 -10 -10 -9 -9
6 7 7 8 6 6 5 5 3 3 -7 -12 1 0 -1 -8 -11 -13 -22 -19 -6 -7 -7 -6 -8 -9 -9 -7 -5 -5 -2 -3 -4 -6 -7 -8 -5 -8 -9 -8 -9 -9 -9 -9 -8
7 7 7 7 6 6 5 5 2 1 -4 -1 2 0 -3 -6 -3 -4 -8 -13 -15 -9 -7 -6 -8 -8 -7 -5 -3 -2 -2 -3 -3 -6 -7 -7 -6 -7 -8 -9 -9 -9 -9 -8 -5
6 7 7 7 6 5 4 3 1 1 -1 0 0 -3 -7 -2 -5 -8 -4 -5 -5 -6 -5 -7 -6 -5 -7 -7 -6 -5 -4 -3 -5 -7 -7 -6 -6 -7 -8 -9 -9 -6 2 4 4
7 8 7 6 5 4 3 2 1 1 1 1 -1 -1 -5 -5 -2 -7 -4 -4 -4 -2 -5 -5 -4 -6 -8 -8 -7 -6 -5 -5 -6 -7 -6 -6 -5 -6 -7 -8 1 5 5 4 3
7 7 7 4 3 2 2 1 -0 -1 -1 -3 -3 -4 -2 -2 -2 -2 -7 -4 -6 -2 -3 -3 -4 -5 -5 -4 -4 -4 -4 -4 -4 -5 -5 -5 -4 -6 -7 2 5 4 3 4 5
7 6 4 3 2 1 -0 0 -3 -2 -3 -8 -5 -4 -3 -0 1 -11 -5 -8 -7 -4 -3 -3 -4 -4 -3 -3 -3 -2 -4 -4 -3 -2 -1 -5 -0 -6 -0 3 4 3 3 5 5
3 2 2 1 -0 -2 -1 -7 -3 -3 -0 -11 -5 -8 -2 -2 -6 -3 -5 -9 -7 -6 -4 -2 -4 -3 -2 -3 -4 -2 -3 -3 -3 -2 -1 -2 -1 -3 3 4 4 3 5 5 4
1 1 0 0 -1 -0 -2 -3 -2 -0 -1 -7 -5 -1 1 -2 -3 -5 -6 -8 -8 -7 -6 -5 -7 -7 -5 -5 -5 -6 -4 -2 -1 -0 1 -2 -2 -2 -0 5 4 4 5 4 3
0 0 0 0 -0 -0 -1 -2 -2 -1 -6 -2 -2 -2 -2 -3 -2 -4 -5 -3 -3 -2 -3 -5 -5 -7 -6 -6 -6 -5 -4 -0 -0 2 1 -2 -0 -1 -0 4 4 5 5 3 2
-0 0 -1 -2 -0 0 -1 0 -2 -9 -11 -11 -6 -2 -0 -2 -6 -4 -3 -5 -11 -3 -2 -2 -3 -3 -3 -2 -2 -2 -3 0 2 3 1 -2 1 -0 3 4 5 5 3 2 1
-0 -3 -9 -2 0 -0 -1 1 -4 -6 -9 -7 -0 -1 -9 -11 -9 -10 -8 -8 -10 -10 -2 -0 0 -5 -7 -8 -4 -2 -1 -2 -0 1 2 -0 -1 -1 4 5 5 3 2 1 0
-2 -2 -9 0 0 -1 1 -1 -4 -6 -7 -5 3 -2 -9 -8 -9 -8 -7 -7 -9 -7 -8 -6 -8 -4 -7 -6 -7 -6 -3 3 3 5 4 2 1 2 4 4 4 2 1 1 -0
-9 -1 -5 -1 -1 0 1 -1 -6 -6 -7 -5 -5 -5 -7 -7 -7 -6 -5 -5 -7 -6 -5 -5 -6 -6 -9 -5 -7 -8 -2 2 3 4 6 5 2 5 5 4 3 1 1 -0 -1
-1 -1 -3 -1 -0 -0 0 -2 -7 -5 -6 -5 -3 -3 -4 -5 -5 -4 -4 -4 -6 -6 -5 -5 -2 -2 -6 -6 -5 -5 3 2 3 4 3 4 3 4 3 2 1 1 0 -1 -2
-2 -1 -1 -2 1 1 -3 -5 -4 -5 -4 -3 -3 -4 -4 -5 -5 -5 -4 -5 -4 -5 -6 -7 -3 -6 -10 -7 -7 -3 -4 -2 -1 0 1 3 1 1 3 2 1 1 -0 -1 -2
-4 -4 -3 -1 -2 -2 -5 -4 -4 -5 -4 -4 -4 -4 -5 -4 -5 -4 -3 -5 -7 -3 -3 -5 -4 -7 -9 -9 -3 -2 -3 -4 -2 -3 -3 -4 -4 -5 1 2 1 0 -1 -2 -2
-1 -5 -5 -3 -2 -3 -5 -4 -4 -5 -6 -6 -4 -4 -4 -5 -5 -4 -5 -6 -6 -5 -4 -4 -3 -3 -3 -3 -5 -4 -7 -8 -5 -4 -2 -8 -6 -6 -0 1 1 -1 -2 -2 -3
-3 -3 -3 -4 -4 -5 -5 -5 -4 -6 -5 -5 -4 -6 -6 -5 -6 -5 -6 -7 -7 -6 -5 -4 -2 -4 -4 -5 -6 -7 -6 -5 -4 -4 -4 -4 -4 -3 2 0 -1 -2 -2 -3 -4
-4 -4 -4 -5 -6 -6 -6 -5 -6 -7 -9 -7 -7 -6 -5 -6 -8 -8 -8 -8 -8 -6 -5 -5 -4 -4 -5 -5 -6 -8 -5 1 1 0 1 -1 -4 0 -1 -3 -3 -3 -4 -4 -4

GFSSW_850_dewp_099.txt.gz
Dewpoint
10 10 10 10 9 8 7 7 5 3 4 3 3 2 -4 -6 -6 -11 -5 -6 -10 -14 -20 -18 -10 -10 -8 -3 -3 -2 -4 -5 -6 -3 -6 -2 -1 -2 -1 -2 -2 -3 -3 -8 -9
10 10 9 10 10 10 9 8 6 4 2 2 1 -1 -5 -9 -9 -2 -8 -12 -11 -13 -20 -14 -7 -4 -5 -6 -4 -1 -1 -5 -3 -4 -4 -4 -1 -2 -3 -3 -3 -5 -7 -10 -9
10 10 10 10 10 10 10 9 8 7 4 3 0 -2 -10 -15 -9 -6 -15 -12 -11 -13 -12 -12 -7 -6 -5 -3 -8 -5 -5 -2 -2 -2 -1 -2 -3 -3 -3 -3 -5 -5 -8 -8 -9
9 9 10 10 10 10 10 10 10 9 6 1 0 -1 -10 -19 -2 -9 -9 -11 -16 -12 -10 -7 -5 -6 -7 -5 -5 -7 -5 -6 -5 -5 -5 -4 -4 -6 -6 -6 -6 -9 -8 -8 -9
-1 3 8 8 10 10 10 10 9 8 6 2 -2 -3 -12 -18 -12 -6 -10 -9 -9 -10 -14 -11 -8 -9 -10 -10 -6 -4 -5 -4 -5 -5 -5 -5 -5 -5 -6 -9 -8 -8 -9 -10 -10
-4 -2 1 8 8 9 9 9 9 8 7 2 -3 -4 -12 -12 -2 -7 -10 -11 -15 -15 -15 -12 -13 -12 -10 -7 -7 -7 -6 -6 -7 -7 -8 -7 -6 -7 -7 -7 -7 -9 -9 -10 -10
-5 -2 2 5 8 8 8 8 8 7 7 3 0 -12 -5 -6 -3 -7 -11 -15 -11 -13 -12 -10 -10 -3 -4 -5 -5 -6 -5 -5 -5 -5 -5 -5 -5 -6 -7 -8 -9 -9 -10 -9 -9
-6 -4 7 7 7 7 7 7 7 6 5 5 -2 -7 1 -3 -3 -4 -9 -10 -12 -13 -8 -5 -6 -4 -6 -9 -7 -6 -4 -3 -5 -6 -6 -7 -4 -9 -9 -9 -8 -9 -8 -8 -9
-5 -1 4 5 6 6 7 7 6 5 4 2 -2 -3 0 -1 -3 -4 -8 -12 -9 -6 -5 -6 -5 -6 -8 -7 -6 -4 -5 -2 -4 -6 -6 -7 -5 -8 -9 -8 -8 -8 -8 -8 -6
-3 6 6 6 6 6 6 6 5 4 2 -0 -2 2 1 -1 -4 -2 -4 -12 -13 -4 -4 -6 -7 -7 -7 -7 -4 -4 -3 -3 -4 -7 -7 -7 -7 -8 -8 -8 -7 -7 -7 -0 2
-1 6 7 6 6 6 6 4 3 2 1 2 2 2 -2 -3 -3 -4 -2 -7 -10 -8 -4 -6 -5 -4 -6 -6 -6 -4 -4 -4 -5 -7 -8 -6 -6 -6 -7 -7 -7 -5 5 5 4
5 6 6 6 7 6 5 4 3 2 2 2 1 1 2 -2 -4 -4 -3 -3 -4 -8 -8 -6 -3 -6 -7 -7 -7 -6 -5 -6 -7 -7 -6 -5 -4 -6 -6 -7 -5 4 4 4 5
5 6 6 6 6 5 5 3 2 1 -0 -0 1 1 1 2 1 -1 -3 -3 -4 -3 -4 -5 -5 -6 -7 -7 -6 -6 -5 -4 -4 -5 -5 -4 -4 -6 -7 1 5 4 4 5 5
5 6 6 6 5 3 3 2 1 0 0 -0 -2 -2 -0 0 1 2 -3 -3 -5 -1 -3 -3 -5 -5 -5 -4 -5 -3 -5 -4 -3 -2 -2 -4 -3 -5 -3 -1 4 3 5 5 4
6 6 4 3 3 2 1 1 -1 -3 4 -6 -7 -5 -2 -1 -4 0 0 -6 0 -4 -2 -0 -3 -2 -2 -3 -4 -3 -4 -3 -3 -2 -2 -2 -2 -3 -2 2 2 3 5 4 4
4 3 2 2 1 1 0 -0 -1 0 3 -7 -4 -0 -0 -2 -3 -3 -0 -5 -6 -5 -4 -4 -6 -5 -4 -4 -4 -5 -3 -2 -1 -1 1 -2 -3 -4 -4 1 2 3 5 4 3
1 1 1 1 -0 -0 -0 1 0 2 -5 -4 -2 1 0 -0 -4 -3 -5 -4 -5 -4 -3 -5 -6 -7 -7 -6 -5 -5 -3 -3 -1 1 -2 -3 -2 -5 -4 2 4 5 4 3 2
2 1 1 1 -0 0 1 1 1 -5 -10 -10 -9 -1 -1 -3 -4 -4 -4 -5 -10 -3 -4 -3 -2 -3 -6 -3 -3 -4 -4 -4 -1 0 -1 -2 -0 -2 1 5 5 3 2 1 1
-0 -1 -0 -0 0 -0 0 1 -0 -2 -6 -5 1 0 -8 -8 -8 -7 -6 -8 -9 -9 -2 -1 -0 -3 -7 -7 -4 -2 -1 -2 -1 0 -0 -3 -2 -0 4 5 3 2 1 1 -0
-4 -8 -2 -0 1 0 1 -0 -3 -7 -7 -5 2 3 -3 -7 -7 -7 -5 -7 -7 -5 -7 -6 -5 -4 -7 -5 -10 -3 -2 4 3 1 -1 -1 0 1 5 5 3 2 1 0 -1
-2 -6 -3 -0 -0 -0 -0 -1 -4 -6 -7 -3 -1 1 -4 -6 -5 -4 -5 -5 -4 -4 -5 -4 -6 -6 -8 -7 -8 -12 -6 2 2 4 4 1 2 4 4 3 2 1 0 -0 -1
-3 -1 -2 -0 -0 0 -1 -4 -6 -5 -5 -3 -0 -2 -4 -5 -5 -2 -4 -4 -3 -5 -5 -4 -4 -7 -6 -6 -6 -3 1 1 -1 1 3 4 3 3 2 1 1 0 -0 -1 -1
-1 -1 -3 -1 -0 -1 -2 -6 -5 -5 -3 -0 -1 -3 -5 -5 -4 -4 -5 -5 -4 -5 -5 -6 -6 -10 -7 -4 -6 -4 -4 -4 -4 -1 -1 2 -0 2 2 0 0 0 -0 -1 -1
-4 -1 -1 -1 -1 -0 -2 -4 -4 -5 -4 -3 -1 -3 -5 -5 -5 -4 -5 -6 -5 -2 -3 -5 -5 -10 -11 -5 -4 -4 -4 -5 -4 0 -3 -3 -7 -10 -9 -3 -1 -0 -1 -2 -2
-1 -4 -5 -2 -2 -2 -4 -4 -4 -4 -5 -5 -4 -4 -4 -5 -5 -5 -6 -6 -6 -5 -4 -4 -4 -4 -5 -4 -4 -4 -6 -7 -7 -8 -6 -14 -10 -9 -9 -6 -0 -1 -2 -3 -3
-2 -2 -4 -4 -5 -3 -3 -3 -5 -6 -6 -5 -4 -6 -6 -6 -6 -5 -6 -7 -7 -6 -5 -5 -1 -4 -4 -5 -5 -6 -7 -9 -9 -8 -6 -4 -2 -4 -4 -0 -1 -2 -2 -3 -4
-3 -3 -4 -5 -4 -4 -4 -4 -6 -7 -8 -7 -6 -6 -6 -6 -8 -8 -8 -8 -7 -6 -5 -5 -3 -6 -8 -6 -8 -9 -7 -8 -3 -1 -1 1 -1 -2 -0 -2 -3 -3 -3 -4 -4

GFSSW_850_dewp_105.txt.gz
Dewpoint
10 9 9 9 10 10 9 9 9 9 9 9 9 8 8 8 8 7 3 2 0 -4 -9 -5 -4 -5 -7 -6 -7 -6 -6 -4 -4 -5 -6 -8 -8 -8 -7 -5 -6 -5 -5 -5 -4
7 7 9 7 9 10 10 10 10 10 9 9 9 9 9 9 8 6 2 -0 -8 -12 -12 -7 -7 -6 -6 -6 -6 -6 -4 -4 -6 -7 -8 -9 -9 -8 -7 -7 -6 -8 -6 -5 -6
1 1 0 1 3 8 9 9 9 9 10 10 9 10 9 9 5 0 -3 -10 -14 -14 -6 -7 -7 -6 -7 -7 -6 -6 -3 -5 -6 -7 -8 -8 -9 -10 -9 -7 -8 -7 -7 -6 -7
-4 -5 -5 -5 -4 -0 7 9 9 9 9 9 9 9 9 7 8 0 2 -4 -9 -13 -6 -6 -7 -6 -6 -6 -6 -5 -7 -9 -8 -8 -9 -8 -7 -8 -8 -9 -9 -9 -9 -9 -8
-6 -6 -7 -7 -6 -4 -1 3 6 8 8 8 8 8 7 3 3 5 3 1 -2 -7 -4 -4 -4 -4 -4 -5 -7 -6 -7 -8 -10 -11 -10 -11 -11 -11 -11 -11 -10 -9 -9 -8 -8
-13 -12 -11 -10 -8 -6 -3 5 5 6 8 7 8 7 5 5 4 3 1 2 -1 -1 -2 -3 -4 -4 -5 -6 -7 -8 -9 -9 -9 -10 -9 -10 -10 -10 -9 -9 -9 -10 -9 -8 -8
-16 -15 -13 -11 -8 -4 5 2 7 6 7 6 6 6 4 5 4 2 1 -1 1 -0 -1 -1 -4 -5 -6 -5 -6 -7 -7 -8 -8 -8 -7 -8 -7 -7 -9 -9 -8 -9 -7 -8 -8
-18 -17 -15 -12 -11 -5 6 3 7 6 6 6 6 5 4 4 3 3 2 -2 -3 -2 -2 -3 -4 -6 -6 -6 -6 -5 -4 -3 -5 -7 -8 -8 -4 -7 -9 -9 -8 -8 -8 -8 -8
-19 -17 -15 -11 -9 -4 6 6 7 5 6 5 5 4 3 2 2 2 1 1 -1 -3 -2 -2 -6 -4 -5 -3 -2 -1 -1 -1 -3 -6 -7 -6 -4 -7 -8 -8 -9 -9 -9 -8 -8
-17 -15 -14 -9 -4 3 6 5 6 6 5 5 4 4 3 2 1 -1 -1 -0 -0 -2 -3 -2 -4 -2 -2 -1 4 2 1 -1 -2 -4 -6 -5 -5 -7 -9 -9 -10 -9 -9 -8 -7
-13 -12 -7 -2 5 5 6 6 5 5 3 4 2 1 1 0 -0 -1 -0 -0 -2 -5 -4 -4 -1 1 -0 -0 -2 -1 -0 1 -4 -6 -5 -5 -6 -8 -9 -10 -11 -9 -8 -7 -4
-3 0 1 5 6 5 6 6 5 4 4 3 3 2 1 2 2 0 -2 -1 -2 -2 -4 -2 2 -1 -2 -2 -1 -0 -1 -0 -2 -4 -6 -6 -7 -10 -11 -11 -10 -8 -8 -5 -1
2 4 6 5 6 6 6 5 5 4 4 2 1 1 1 1 1 1 -0 -1 -2 -2 -3 -2 -1 -3 -2 0 3 3 2 -1 1 -0 -5 -7 -7 -8 -8 -9 -9 -9 -6 -1 0
4 5 6 6 5 6 5 5 5 5 5 0 -1 -1 -0 0 1 0 0 -0 -1 -1 -2 -2 -4 -2 -1 1 2 4 -0 -3 -1 -2 -3 -7 -2 -5 -7 -8 -8 -4 -1 0 2
6 5 5 5 5 5 5 5 5 4 7 -8 -4 -2 -2 0 -3 -4 -1 -0 0 -1 1 1 -1 -1 0 1 -2 3 -2 -0 -0 -4 -4 -3 -2 -5 -8 -7 -4 -2 -0 2 2
6 5 5 5 5 5 5 5 4 5 4 -3 -6 -5 -3 -1 -2 -5 -2 -0 0 2 4 4 3 1 -1 -3 -1 1 2 -1 -1 -2 2 1 -1 -3 -6 -7 -5 -1 1 2 2
7 6 6 6 5 5 4 3 4 6 -1 -1 -4 -5 -4 -3 -2 -4 -1 2 3 6 5 3 3 2 -0 2 -0 2 5 5 5 5 5 -3 -2 -2 -6 -8 -4 1 2 2 2
6 6 5 5 5 4 3 3 6 1 1 -5 -5 -5 -2 -3 -3 -4 -2 2 -0 1 4 7 6 2 -0 1 3 2 3 3 5 4 1 -3 -0 3 1 2 2 2 2 2 1
2 2 2 2 3 2 2 5 5 4 -1 -3 -5 -3 -2 -3 -3 -4 -3 1 -0 -0 3 2 -0 -5 -5 -5 -4 3 2 -2 0 -0 1 3 3 4 3 3 2 2 1 1 -0
2 2 1 1 1 1 2 4 1 -3 -5 -6 -2 1 -0 -2 -2 -5 -4 -3 0 0 -3 0 2 -5 -6 -7 -6 -3 -2 0 1 5 1 -1 1 3 5 3 1 -1 -1 -2 -2
1 1 -0 0 0 0 4 1 -2 -5 -7 -5 -3 1 -1 -1 -4 -4 -2 -5 -2 -6 -6 -3 -2 -1 -6 -5 -3 -4 4 2 3 2 3 2 5 5 4 1 -0 -2 -2 -3 -2
1 3 -0 -0 1 1 1 -1 -5 -5 -6 -5 -3 -2 -2 -1 -3 1 -1 -4 -4 -7 -3 -3 -1 0 -4 -5 -7 -7 -6 -1 5 2 4 0 2 2 0 -1 -4 -4 -4 -3 -2
1 -0 -1 -0 3 2 -2 -3 -5 -4 -5 -3 -2 -3 -4 -1 -0 4 -1 -2 -2 -3 -3 -4 -2 -2 -4 -5 -7 -7 -7 -6 -4 -3 -4 -1 0 0 -1 -4 -8 -11 -4 -3 -3
0 2 -1 -1 -0 1 -1 -2 -3 -6 -5 -4 0 -3 -2 -1 -3 1 2 -1 -4 -5 -3 -5 -5 -4 -2 -4 -6 -4 -7 -8 -6 -1 -5 -7 -10 -2 -11 -11 -6 -3 -2 -3 -2
1 1 -2 2 1 -1 -1 -3 -3 -3 -6 -5 -0 -1 -1 -0 -2 -1 -2 -3 -4 -4 -6 -5 -4 -7 -10 -9 -10 -8 -7 -8 -8 -8 -8 -12 -14 -15 -5 -3 -1 -2 -2 -2 -3
0 -2 -4 -4 -4 -2 -1 -0 -4 -4 -5 -3 -2 -2 -1 1 -2 -3 -4 -5 -6 -6 -7 -7 -6 -6 -8 -10 -10 -11 -13 -13 -13 -13 -12 -13 -14 -3 -4 -3 -1 -1 -2 -3 -3
-0 -1 -3 -3 -3 -1 0 -4 -4 -3 -5 -4 -3 -4 -1 -1 -6 -7 -7 -7 -7 -6 -6 -6 -4 -7 -11 -11 -12 -12 -11 -12 -13 -15 -11 -7 -3 -4 -2 -1 -1 -2 -3 -3 -4

GFSSW_850_dewp_108.txt.gz
Dewpoint
8 9 9 9 9 9 9 10 10 10 10 9 9 9 9 8 7 6 6 5 3 2 -1 -10 -4 -4 -3 -5 -6 -6 -4 -3 -3 -4 -5 -7 -7 -8 -8 -8 -6 -6 -5 -5 -4
7 6 6 6 6 5 5 9 9 9 9 9 9 9 9 9 8 5 5 3 -0 -9 -9 -7 -4 -5 -6 -5 -5 -5 -3 -2 -4 -5 -5 -7 -8 -8 -8 -7 -6 -5 -6 -6 -5
1 0 -0 -1 -2 -3 -3 2 7 9 9 9 9 9 9 9 6 -0 -2 -7 -8 -3 -4 -3 -4 -4 -4 -4 -5 -5 -3 -4 -4 -5 -5 -6 -7 -7 -8 -7 -9 -8 -7 -7 -6
-5 -5 -6 -6 -6 -5 -6 -5 2 6 6 8 9 8 8 8 6 3 5 5 5 3 -0 -3 -3 -3 -3 -2 -3 -3 -5 -5 -5 -5 -7 -8 -8 -8 -7 -7 -8 -8 -8 -8 -8
-8 -8 -9 -8 -8 -7 -8 -7 -5 2 6 5 7 7 7 5 5 3 5 4 3 4 2 -1 -3 -2 -2 -3 -3 -2 -4 -5 -6 -6 -7 -8 -9 -9 -9 -10 -10 -10 -9 -9 -8
-15 -15 -15 -15 -13 -11 -8 -5 -5 -1 7 6 5 6 5 5 3 4 4 2 2 0 -0 -0 -1 -1 -2 -2 -2 -3 -4 -5 -6 -8 -8 -7 -8 -9 -9 -10 -10 -10 -10 -9 -8
-17 -17 -17 -16 -15 -13 -9 -6 0 4 6 7 5 6 4 4 -3 0 2 1 -2 1 0 -0 -0 -1 -1 -1 -2 -3 -3 -5 -5 -5 -6 -7 -5 -6 -6 -7 -8 -8 -9 -9 -8
-18 -19 -18 -18 -16 -12 -9 -7 4 5 6 6 5 6 4 -0 2 3 2 1 2 -2 -2 -1 -0 -1 -1 -2 -3 -2 -2 1 -2 -3 -4 -5 -2 -6 -7 -7 -7 -8 -8 -8 -7
-21 -20 -20 -18 -14 -9 -6 -2 6 5 6 6 5 4 3 2 3 1 2 2 2 0 -2 -2 -1 -1 -2 -1 0 -0 2 2 1 -2 -3 -3 -2 -5 -7 -7 -8 -8 -8 -8 -8
-24 -18 -18 -14 -10 -3 1 5 6 6 6 6 5 4 2 -1 -1 1 -1 1 1 1 0 -1 -1 0 -1 -1 5 1 0 0 1 -0 -1 -2 -2 -5 -7 -7 -8 -8 -9 -9 -8
-22 -14 -11 -7 -1 1 4 6 5 5 4 4 2 1 -0 -1 -1 -1 -2 -0 -1 0 1 -2 -0 1 -2 -3 -2 -1 -0 1 -1 -2 0 1 -0 -5 -6 -6 -7 -8 -9 -9 -8
-21 -14 -3 2 3 5 5 6 4 4 4 4 4 2 1 -1 0 -2 -1 -2 -2 -0 -2 -2 -2 -5 -5 -4 -2 -0 2 2 2 -1 -1 1 3 2 -6 -7 -8 -9 -10 -8 -7
-20 -12 1 6 5 6 5 5 5 4 3 1 1 3 1 1 0 -1 -2 -1 -2 -1 -2 -1 -3 -5 -4 -2 -1 -1 0 2 3 0 -1 1 4 2 -3 -7 -9 -9 -10 -7 -1
-16 -5 6 6 6 6 5 6 5 4 5 -1 -3 -2 -1 -0 -1 -1 -1 -1 -1 -0 -1 -1 -3 -3 -4 -1 -2 1 -1 0 2 3 6 1 8 2 -3 -5 -8 -9 -8 -1 1
-11 1 6 6 5 5 5 5 5 3 4 -14 -7 -3 -3 -2 -3 -3 -2 -1 0 0 -0 1 -1 -1 -1 -2 -4 0 2 3 5 5 4 3 4 1 -3 -2 -4 -3 -1 2 2
-8 5 6 6 5 5 5 5 4 6 4 -6 -5 -3 -2 -2 -2 -4 -4 -2 -0 0 0 2 2 2 2 -0 -1 2 3 3 4 4 7 3 2 4 2 -2 -5 -1 2 2 2
1 6 6 6 5 5 5 5 5 6 -6 -7 -6 -5 -4 -3 -1 -2 -2 -1 2 5 5 2 2 1 0 1 -2 1 5 6 7 7 5 -1 2 4 0 3 -3 5 3 2 1
5 6 6 6 5 5 4 4 7 -3 -2 -6 -5 -7 -4 -4 -4 -2 -2 -2 -0 0 1 3 4 1 1 1 1 1 4 4 7 7 3 0 7 6 6 4 5 6 4 1 0
4 5 6 5 4 4 4 5 4 -0 -4 -3 -4 -3 -4 -4 -3 -3 -1 -2 -3 1 5 2 2 -1 -0 -1 -0 4 6 2 3 4 7 6 3 3 6 5 4 5 3 -1 -1
2 2 2 3 3 3 3 4 3 0 1 -0 2 1 -1 -2 -1 1 -2 -3 -4 0 -2 3 2 0 -1 -2 -3 1 1 7 6 6 7 2 4 8 6 5 2 1 -1 -3 -3
2 1 2 2 2 1 3 4 2 0 -1 -3 -1 -1 0 -0 -1 4 4 -3 -4 -1 -2 2 -1 2 -1 -2 -4 -2 -1 5 7 2 6 4 8 6 6 5 1 -2 -3 -3 -3
1 2 1 0 0 0 3 1 0 0 -5 -6 -5 -3 -2 -1 -1 -2 2 1 -1 1 3 -0 -1 1 -1 -6 -7 -5 -3 4 8 7 7 6 6 5 4 2 -3 -5 -4 -3 -3
1 -1 -0 0 2 2 0 -0 -0 -4 -4 -4 -4 -4 -3 -1 0 0 1 -0 -2 -4 -3 -2 0 1 2 -1 -6 -5 -4 -4 -2 -2 -1 -0 -0 4 1 -4 -4 -3 -3 -2 -2
-0 1 -1 -1 -0 1 0 1 1 -5 -5 -5 -4 -2 -3 -1 -3 1 2 -1 -3 -4 -5 -4 -3 -1 2 1 -4 -3 -6 -7 -5 1 -2 -4 -1 1 -4 -5 -2 -2 -2 -2 -3
-0 1 -2 0 -0 1 0 -2 -0 -1 -5 -4 -2 -1 -2 -1 -2 0 1 -0 -3 -5 -4 -4 -1 -4 -5 -9 -9 -7 -8 -9 -8 -8 -3 -7 -11 -2 -1 0 -1 -2 -2 -3 -3
0 2 0 -3 -2 0 0 1 -2 -3 -4 -4 -1 -2 -2 -0 -2 -1 2 -2 -2 -5 -3 -3 -0 -2 -4 -8 -10 -10 -13 -13 -11 -11 -13 -14 -11 -2 -1 -1 -1 -2 -3 -3 -4
-0 0 1 -1 2 0 0 -0 -1 -4 -4 -6 -4 -2 -1 -1 -2 -4 -4 -4 -5 -3 -1 -4 -2 -4 -5 -8 -11 -10 -9 -13 -11 -13 -9 -8 -2 -4 -2 -2 -2 -3 -3 -4 -4

GFSSW_850_dewp_111.txt.gz
Dewpoint
9 9 9 8 8 8 6 7 6 8 9 9 8 8 8 8 7 4 4 5 5 5 3 -6 -5 -4 -4 -3 -4 -6 -4 -2 -3 -3 -4 -5 -4 -5 -8 -7 -7 -6 -6 -6 -4
6 6 5 4 3 2 2 0 0 3 7 8 8 7 8 8 7 0 1 2 -2 -8 -2 1 -5 -4 -4 -5 -5 -5 -3 -3 -5 -5 -4 -4 -5 -6 -7 -7 -6 -7 -6 -5 -5
1 1 -1 -2 -3 -4 -6 -6 -6 -6 1 3 6 7 8 8 5 2 -1 -5 -1 4 5 2 2 -3 -4 -4 -4 -4 -3 -4 -4 -5 -4 -4 -5 -5 -8 -6 -7 -6 -5 -6 -6
-4 -5 -6 -6 -7 -6 -7 -7 -8 -8 -3 5 1 2 5 7 5 1 4 5 4 2 2 3 -2 -3 -3 -2 -3 -2 -3 -4 -4 -5 -5 -5 -5 -6 -8 -8 -8 -9 -9 -8 -8
-9 -10 -10 -11 -12 -12 -11 -10 -9 -7 -6 -0 7 5 4 5 3 -8 -3 -2 3 3 3 1 -1 -2 -1 -2 -2 -2 -2 -2 -3 -4 -5 -5 -7 -6 -6 -7 -9 -10 -10 -10 -9
-16 -16 -16 -16 -16 -15 -15 -12 -11 -7 -0 2 6 6 5 4 -8 1 4 4 4 3 1 -0 0 -0 -1 -1 -1 -1 -1 -1 -2 -4 -4 -4 -5 -6 -7 -7 -8 -9 -9 -10 -10
-18 -18 -17 -18 -17 -17 -16 -14 -11 -7 5 3 6 5 5 3 -8 -8 3 4 3 -1 -1 0 -0 -0 -0 1 -0 -1 -1 -2 -3 -4 -4 -5 -3 -4 -5 -6 -7 -7 -7 -8 -9
-18 -18 -19 -18 -18 -17 -16 -11 -9 -4 6 4 5 5 5 -3 -1 -3 -3 -2 1 2 -0 -2 -1 -2 -1 -1 -1 -1 -1 1 -2 -3 -3 -2 1 -3 -5 -6 -6 -6 -6 -7 -9
-20 -21 -20 -19 -18 -14 -11 -7 -3 3 6 4 5 5 4 1 -0 -3 0 2 2 1 2 -0 -2 -1 -1 1 1 0 3 1 0 -2 -2 -1 1 -2 -1 -2 -5 -6 -7 -7 -8
-22 -23 -20 -13 -10 -5 -3 0 2 5 5 4 5 4 1 -3 -0 1 0 1 2 2 2 -0 -1 -1 1 2 4 2 2 1 0 -3 0 2 1 -2 -2 -1 -3 -6 -7 -7 -8
-24 -24 -18 -9 -4 4 4 4 5 5 4 3 1 4 -1 -1 -2 0 -1 -1 -0 1 2 1 2 2 1 1 0 -0 0 -0 -2 -1 1 2 1 1 -1 -0 -0 -5 -8 -8 -3
-24 -23 -16 -6 2 3 5 4 3 4 5 4 3 3 0 -3 1 -1 -1 -1 -0 1 -0 1 2 -1 -2 -1 -1 -2 -1 0 -1 -2 -0 0 2 -0 -1 -0 -0 -1 -8 -7 3
-23 -21 -14 -4 5 5 4 4 4 4 4 2 1 2 4 2 3 1 -1 -1 -1 0 0 1 -1 -3 -3 -3 -3 -3 -0 -0 -0 -2 -0 1 2 1 -1 -2 -1 -1 -6 -6 2
-23 -16 -8 3 6 5 5 4 4 4 4 2 -1 0 2 2 2 0 0 -1 -1 1 -0 -0 -2 -1 -1 -1 -2 0 -2 2 3 5 6 3 6 2 -0 -1 -1 0 -3 2 2
-23 -16 -5 5 4 4 4 4 4 4 5 -6 -5 -3 -2 1 -2 -2 -0 0 1 0 0 1 0 -0 3 1 1 2 2 3 4 4 5 3 6 2 -1 -0 -1 1 1 2 2
-20 -16 -6 5 6 4 4 4 5 5 5 -3 -3 -2 -1 0 -2 -2 -2 -2 -1 1 1 1 1 3 3 1 0 2 3 2 3 5 6 2 3 2 0 1 3 3 2 2 1
-12 -9 -1 5 5 4 4 5 5 5 -4 -8 -4 -2 -1 -1 -1 -2 -1 0 2 4 5 3 3 2 2 3 1 3 3 5 5 6 5 -2 4 3 1 3 5 5 4 1 0
-3 4 5 6 4 5 5 4 5 0 -2 -8 -6 -6 -2 -4 -3 -1 -0 1 0 2 2 4 4 1 1 2 2 3 3 4 6 6 7 3 7 5 6 7 6 4 3 1 -0
3 4 5 5 6 5 5 5 4 1 -4 -3 -5 -4 -3 -4 -4 -3 -0 0 -1 0 3 4 2 -0 -1 0 1 4 5 1 5 3 5 3 4 5 4 6 5 3 2 -0 -1
2 3 4 4 4 4 4 4 2 -0 -2 0 3 1 -1 -3 -3 -1 3 -1 -1 -2 -0 2 5 0 0 0 0 2 1 5 6 6 6 3 6 6 5 4 4 2 -1 -1 -0
2 2 2 3 3 2 4 4 2 0 -1 2 3 3 2 1 -0 3 4 3 1 1 -0 2 3 1 0 3 2 2 3 5 5 7 7 6 8 4 3 4 3 1 -1 -2 -2
1 1 1 2 1 0 3 2 0 1 -0 1 0 1 1 -0 -0 0 3 3 -1 0 4 3 3 3 1 -1 -1 -2 1 2 6 6 6 7 7 4 3 3 2 -2 -2 -2 -2
1 -0 1 1 1 1 1 0 0 2 3 2 -2 -2 -3 -1 1 1 2 1 -2 0 5 4 5 4 1 1 0 -1 -2 3 3 4 4 3 5 3 3 0 -2 -2 -2 -3 -3
0 -0 -1 -0 -0 1 1 2 3 2 -0 -1 -3 -4 -1 -0 -0 0 4 -0 -2 -2 -4 -1 1 0 2 3 1 -1 -4 -3 0 2 1 -1 4 3 0 -0 -1 -2 -3 -3 -4
-0 0 -2 -1 -0 1 1 1 1 2 -2 -4 -2 -1 0 1 0 -1 0 2 -2 -4 -4 -1 1 -1 -2 -1 -5 -7 -6 -6 -3 -4 -1 -3 2 2 1 -1 -2 -3 -3 -4 -4
-1 0 1 -1 -2 -0 0 4 2 1 1 -3 0 -0 -1 0 -0 0 3 3 -0 -4 -1 -2 2 -2 -0 -4 -8 -8 -10 -11 -10 -10 -10 -2 2 -1 -2 -2 -3 -3 -3 -4 -4
-1 0 1 0 1 0 -1 -0 1 0 -2 -4 -3 -1 0 -0 -1 -3 -0 -0 -3 -2 -1 -2 -0 -1 2 -3 -5 -7 -4 -4 -2 -1 -1 0 0 -2 -3 -3 -3 -3 -4 -4 -5

GFSSW_850_dewp_114.txt.gz
Dewpoint
8 8 7 7 7 6 4 2 2 1 0 0 1 -4 -5 -2 -7 -5 -6 -2 3 4 -1 0 -3 -5 -4 -4 -4 -4 -4 -2 -3 -4 -4 -6 -4 -5 -5 -6 -7 -6 -6 -5 -4
6 6 5 4 2 1 -1 -3 -4 -6 -8 -8 -6 -3 -7 -2 -11 -16 -6 1 -4 -6 2 4 2 -0 -3 -5 -5 -5 -3 -3 -5 -5 -5 -5 -5 -4 -5 -5 -7 -8 -8 -6 -4
4 3 1 -0 -2 -5 -7 -8 -8 -7 -8 -8 -7 -5 -5 -3 -8 -3 -4 -5 3 4 3 2 2 -0 -3 -4 -4 -4 -3 -5 -5 -5 -4 -4 -4 -5 -5 -5 -7 -8 -9 -9 -9
-1 -3 -5 -6 -7 -8 -8 -9 -9 -9 -9 -9 -8 -3 -5 -3 -2 0 -2 2 4 -1 2 2 -0 -3 -3 -2 -3 -2 -3 -3 -3 -3 -2 -4 -4 -5 -6 -6 -7 -7 -7 -9 -9
-7 -8 -10 -12 -13 -14 -14 -14 -13 -11 -10 -8 -3 -0 -0 3 -5 -12 -1 2 -3 -2 4 2 -0 -1 -2 -2 -1 -0 -1 -1 -1 -1 -2 -3 -3 -4 -4 -4 -6 -7 -8 -8 -8
-14 -16 -16 -16 -16 -16 -16 -16 -14 -12 -11 1 2 5 4 4 -11 -3 -0 0 3 4 4 1 1 0 0 -0 -0 -1 -0 -1 -2 -2 -3 -3 -3 -4 -4 -4 -5 -5 -5 -6 -8
-18 -18 -18 -17 -17 -17 -17 -16 -14 -14 -10 3 5 5 5 -4 -11 -7 -5 3 3 4 2 -0 -0 -0 -0 -0 -0 -1 0 -1 -2 -3 -3 -3 -2 -2 -4 -3 -4 -4 -4 -6 -6
-18 -18 -18 -18 -18 -17 -17 -15 -11 -11 -7 5 5 5 4 -11 -4 -7 -5 -4 4 3 2 0 -1 -1 -2 -1 -1 -0 -0 2 -2 -3 -3 -3 1 -2 -2 -2 -2 -1 -1 -2 -6
-19 -19 -20 -20 -17 -16 -12 -10 -8 -8 -1 5 4 4 4 -2 -4 -6 -5 -4 -2 1 1 1 0 -2 -1 1 2 1 3 2 0 -3 -2 -1 1 -1 -2 -2 -2 -2 -1 -2 -2
-19 -20 -22 -20 -12 -7 -8 0 1 2 4 5 5 4 -1 -4 -3 -1 -2 -1 1 2 1 1 -2 -0 1 2 4 2 2 0 1 -2 -1 -0 -0 -2 -2 -1 -1 -2 -1 -2 -4
-20 -21 -22 -20 -10 -7 2 2 1 4 4 2 1 3 -2 -1 -0 0 -1 1 2 1 2 1 2 2 1 1 1 1 1 1 -0 -3 -1 -1 -1 -1 -2 -2 -2 -3 -2 -1 2
-19 -21 -20 -15 -7 3 5 3 1 4 4 3 1 2 -3 -4 0 0 -1 1 1 2 1 2 4 1 -0 0 1 2 2 1 -2 -3 -2 -2 0 -1 -2 -2 -3 -3 -2 3 5
-16 -18 -16 -7 -3 4 4 1 2 4 4 3 -1 3 2 -0 2 -0 -0 -0 -0 1 1 3 1 -1 0 0 1 0 1 -1 -1 1 -1 0 2 -1 -3 -3 -3 -3 -3 2 4
-13 -15 -13 -2 3 4 4 3 3 5 2 1 3 1 2 3 3 -2 -1 -0 -0 1 1 1 -1 -0 -0 0 -0 1 1 2 3 3 4 2 5 -0 -2 -2 -2 -2 2 4 4
-12 -12 -10 -1 3 4 3 2 4 4 -9 -7 -1 -1 1 1 -1 0 -1 -0 0 1 0 2 0 0 1 0 0 2 2 3 3 4 4 3 5 -0 -3 -1 -2 3 5 4 3
-8 -9 -7 -3 5 2 3 3 5 4 -0 -3 -2 2 3 1 0 -1 1 0 -1 1 1 1 0 0 1 1 0 2 2 2 3 4 4 1 3 2 0 3 4 5 4 4 2
-5 -7 -7 -5 3 3 3 4 5 4 -4 -4 -2 2 2 2 1 -1 -0 1 2 4 4 2 2 2 2 3 1 2 2 5 3 4 4 1 3 2 6 6 6 4 3 2 2
-3 -5 -3 -0 3 4 4 4 5 1 -1 -6 -4 -3 1 1 1 0 -0 1 -0 0 3 4 4 3 2 2 3 3 2 4 5 5 5 1 4 6 4 2 3 3 3 2 2
-1 0 4 5 4 4 4 5 2 0 -2 -3 -5 -4 -4 -2 -2 -0 0 0 -1 1 3 4 3 -1 1 1 1 3 3 1 5 4 3 2 4 3 3 2 1 0 1 1 0
1 1 2 3 4 4 4 4 2 -1 -2 -1 3 1 0 -4 -2 -2 1 0 -1 -0 -1 2 3 1 0 0 1 2 1 5 5 5 6 3 5 4 4 3 2 1 -0 -0 -0
1 1 2 4 3 3 3 3 1 -1 -1 1 1 3 1 0 -1 3 2 2 1 1 -0 2 3 3 2 3 3 3 4 4 4 5 6 6 5 4 3 3 2 1 0 -1 -2
1 1 1 2 2 0 3 2 -0 1 0 1 2 2 2 1 0 0 4 2 -1 -1 3 4 4 5 2 1 -0 1 2 4 4 4 5 4 6 4 3 3 0 -1 -1 -2 -2
0 0 0 1 2 1 1 2 1 2 1 1 2 1 -0 0 2 1 1 1 -1 1 4 4 5 6 5 2 -0 1 -0 1 2 5 5 4 4 4 3 1 -2 -3 -3 -3 -3
-0 -1 -1 -0 0 1 1 2 2 1 2 2 1 0 -2 -0 -0 1 3 1 -1 0 3 4 5 5 4 2 1 0 -1 1 3 4 2 1 4 3 2 -1 -3 -3 -4 -4 -4
-1 -0 -1 -0 -1 0 -0 -1 0 3 2 2 3 0 -0 1 0 1 3 1 -2 -1 -1 2 3 2 0 0 -0 -1 -8 -4 1 -0 1 -1 3 3 -0 -2 -3 -3 -4 -4 -4
-1 -0 -1 -1 -2 -0 1 3 1 0 0 3 3 2 -0 0 -0 0 2 3 0 -4 -0 -0 3 3 3 -0 -4 -8 -9 -10 -11 -4 2 2 3 -1 -2 -3 -3 -4 -4 -5 -5
-1 -3 1 -0 -1 -0 -1 -1 0 0 -0 -1 -0 0 1 -0 -1 -3 -0 1 0 -2 -1 1 2 3 4 2 1 -0 -6 -2 -1 -1 -0 1 -0 -2 -3 -4 -4 -4 -4 -5 -6

GFSSW_850_dewp_117.txt.gz
Dewpoint
9 8 7 7 6 6 4 3 0 -2 -4 -7 -10 -12 -14 -13 -18 -18 -19 -13 -7 2 1 0 -1 -3 -4 -4 -3 -4 -4 -2 -2 -3 -4 -5 -4 -5 -5 -5 -5 -5 -7 -7 -3
8 7 6 5 4 3 1 -2 -5 -8 -9 -9 -11 -12 -12 -11 -14 -14 -2 -1 -1 -1 2 4 3 2 -2 -5 -4 -5 -3 -3 -5 -5 -4 -5 -4 -4 -4 -5 -5 -6 -6 -7 -8
6 5 4 2 1 -2 -5 -7 -9 -9 -9 -9 -11 -12 -12 -11 -14 -2 -5 -2 2 3 2 2 1 1 -2 -3 -4 -5 -3 -5 -5 -5 -3 -3 -2 -3 -5 -4 -5 -6 -6 -7 -7
5 2 0 -2 -5 -8 -9 -10 -11 -12 -12 -12 -12 -12 -10 -7 -13 0 -4 -2 1 3 -3 1 0 -2 -3 -3 -3 -2 -3 -2 -2 -1 -1 -1 -2 -3 -3 -4 -3 -4 -5 -7 -7
-0 -3 -6 -8 -10 -13 -14 -15 -15 -14 -14 -13 -13 -11 -8 0 -14 -9 -2 -0 3 4 -2 3 0 -1 -1 -1 -1 -0 -1 -0 -1 -1 -1 -2 -2 -2 -3 -3 -4 -4 -4 -4 -4
-6 -9 -11 -14 -15 -16 -16 -16 -16 -16 -14 -11 -10 -5 -3 3 -13 -7 -9 -8 -4 -5 3 3 0 0 -0 0 0 -0 -0 -1 -1 -1 -1 -2 -2 -3 -3 -4 -4 -3 -2 -2 -2
-13 -16 -17 -17 -17 -17 -17 -17 -16 -16 -13 -9 1 4 1 -11 -13 -10 -5 -4 1 3 4 1 -1 -0 -0 -1 -0 -1 0 -1 -1 -2 -2 -3 -2 -3 -6 -2 -2 -2 -2 -2 -3
-17 -18 -18 -18 -18 -17 -17 -17 -16 -14 -11 1 5 4 0 -15 -14 -13 -10 -10 -5 3 3 0 -0 1 -1 -1 -1 -0 -0 2 -2 -3 -3 -3 0 -2 -2 -3 -3 -2 -2 -3 -3
-18 -18 -18 -19 -19 -18 -14 -15 -13 -10 3 4 4 4 2 -6 -8 -5 -6 -6 -6 -2 4 2 2 1 -1 0 2 1 3 2 -0 -3 -3 -2 -0 -2 -3 -4 -2 -2 -3 -3 -3
-18 -18 -19 -19 -19 -16 -10 -10 -1 2 3 4 4 3 -3 -9 -2 -3 -2 -3 -0 -1 2 2 1 0 0 1 3 2 3 1 1 -3 -2 -1 -1 -3 -4 -3 -2 -2 -3 -3 -2
-17 -18 -19 -19 -17 -14 -8 1 0 2 3 1 2 1 -3 -1 -0 -2 -0 1 2 2 3 0 1 2 1 1 1 1 1 2 -0 -2 -1 -1 -2 -3 -3 -3 -3 -3 -3 -3 3
-16 -18 -20 -19 -12 -6 3 2 1 4 4 1 -1 2 -5 -0 -1 -1 1 2 2 3 2 2 4 1 -0 -0 1 2 3 3 1 -1 -2 -1 -0 -2 -3 -3 -3 -3 -3 2 5
-13 -15 -16 -14 -5 -2 2 -1 5 4 4 3 1 3 2 -1 1 -3 0 1 1 2 3 4 2 1 1 2 2 2 3 2 2 1 0 1 1 -2 -4 -4 -4 -4 -3 -1 4
-9 -10 -10 -7 -1 2 3 -1 4 4 1 -0 3 2 1 2 3 -5 -1 0 -0 2 1 2 0 0 1 2 1 3 -1 1 2 2 3 1 4 -1 -3 1 3 4 4 4 3
-7 -7 -6 -6 1 1 2 2 4 4 -10 -5 2 1 2 3 -1 2 -1 -0 1 1 0 2 0 1 2 1 -1 1 1 2 2 3 3 4 4 2 2 5 6 4 4 3 3
-6 -7 -3 -3 3 -2 2 3 4 -2 -11 -6 2 3 4 3 1 2 1 -0 -0 0 0 -0 -0 -1 -0 -0 -0 2 2 2 3 3 3 1 2 1 5 4 4 4 3 2 2
-4 -6 -3 -2 -2 1 4 4 4 -1 -7 -5 1 3 3 3 1 -0 2 2 3 4 4 2 2 1 1 3 2 1 3 7 5 4 4 1 3 5 3 2 3 2 1 0 -0
-5 -4 -3 -4 -3 0 5 4 4 -0 -1 -5 -2 2 3 1 1 1 2 3 0 0 3 4 3 3 2 2 4 2 3 5 5 4 4 2 2 5 3 2 1 0 0 -0 -1
-3 -2 -1 2 1 2 4 4 1 -0 -2 -3 -7 -5 -1 0 -0 1 1 2 1 0 1 4 3 -0 2 1 1 3 3 1 4 4 4 2 4 4 3 2 1 1 -0 -0 0
-2 0 1 3 2 4 4 2 1 -2 -2 -1 -1 -2 -2 -4 1 1 1 -0 -0 -0 -1 1 3 1 1 1 1 1 1 4 4 5 5 3 4 3 3 3 2 1 -1 -1 -1
0 1 1 3 3 4 3 2 -1 -2 -2 -1 0 1 2 1 -2 -0 -0 0 -0 0 -1 1 2 2 2 3 4 3 4 3 3 3 4 6 3 1 3 3 2 1 -1 -2 -2
1 2 -0 2 2 1 3 1 -0 -0 -2 -0 1 2 2 1 1 0 2 2 -0 1 3 3 4 5 3 0 1 1 2 4 2 4 4 1 2 2 3 2 1 0 -1 -2 -3
0 0 0 2 2 1 0 1 0 -0 -0 1 0 1 1 2 3 1 0 1 -0 2 4 4 5 5 5 3 2 5 2 2 3 3 5 4 3 3 2 2 -0 -2 -3 -3 -4
-0 -0 -1 1 0 0 1 2 2 1 1 2 1 0 1 1 1 1 2 2 -0 1 4 3 4 4 3 3 2 5 3 2 3 5 4 3 4 4 3 -1 -3 -3 -4 -4 -4
-0 -1 -1 -1 -0 1 0 0 1 3 1 1 1 2 2 2 1 2 2 1 -2 3 3 2 4 4 4 3 4 4 4 3 2 2 3 0 3 3 1 -2 -3 -4 -4 -5 -5
-2 -1 -1 -1 -2 0 0 0 1 -0 -0 4 3 2 3 2 2 -0 2 1 0 -0 0 0 2 2 3 2 1 2 -3 -9 -2 0 1 1 3 -0 -2 -3 -3 -4 -4 -5 -5
-1 -1 -0 -1 -2 -0 -1 -1 -1 -1 -2 -2 0 2 2 2 1 0 -2 -0 1 -1 0 1 2 3 3 3 5 5 -1 -6 -1 -1 1 2 0 -1 -2 -2 -3 -4 -5 -6 -6

GFSSW_850_dewp_120.txt.gz
Dewpoint
9 8 8 8 7 6 5 4 2 -0 -3 -7 -11 -14 -15 -15 -16 -18 -17 -15 -8 -6 2 -1 0 0 -2 -4 -3 -5 -3 -1 -2 -3 -3 -5 -4 -4 -3 -5 -4 -5 -6 -7 -7
9 8 8 7 6 5 3 1 -1 -5 -8 -10 -11 -13 -14 -14 -17 -10 -1 -6 1 1 -1 4 3 2 -0 -4 -4 -5 -3 -3 -5 -5 -5 -4 -3 -2 -3 -3 -4 -4 -3 -3 -4
9 8 7 6 5 3 0 -3 -7 -10 -10 -12 -12 -14 -14 -14 -16 -3 -1 -1 0 0 2 2 1 1 -1 -3 -4 -5 -3 -5 -5 -5 -1 -1 -1 -2 -3 -3 -3 -3 -3 -4 -4
8 8 5 4 1 -2 -5 -9 -11 -13 -14 -14 -14 -14 -14 -12 -16 -0 -4 -2 -1 1 2 -1 -1 -2 -3 -3 -3 -2 -4 -3 -2 -1 -1 -1 -2 -2 -3 -2 -3 -3 -4 -3 -2
6 4 3 -1 -4 -7 -11 -13 -15 -15 -15 -15 -15 -14 -13 -5 -16 -11 -3 -2 -0 0 2 1 1 -1 -1 -1 -0 -0 -1 -0 -1 -1 -1 -1 -2 -2 -2 -3 -4 -3 -3 -3 -4
3 1 -3 -7 -10 -13 -15 -16 -16 -16 -16 -15 -14 -14 -6 1 -14 -12 -11 -4 -2 -0 -0 1 1 0 -0 0 0 -0 -0 -1 -1 -1 -2 -1 -2 -3 -4 -3 -4 -5 -6 -7 -6
-2 -5 -10 -13 -15 -16 -17 -17 -17 -16 -16 -14 -12 -6 -4 -13 -14 -11 -5 -5 -6 -4 1 3 -0 -0 0 -1 -1 -1 0 -1 -2 -3 -2 -3 -5 -3 -3 -3 -5 -6 -6 -6 -5
-8 -12 -15 -16 -17 -17 -17 -17 -17 -17 -15 -11 -2 2 -5 -14 -14 -15 -13 -13 -8 -7 2 3 0 1 -1 -1 -1 -0 -1 1 -3 -3 -3 -3 -2 -4 -3 -4 -5 -5 -5 -5 -4
-13 -15 -16 -17 -17 -18 -18 -18 -17 -16 -4 4 1 2 -3 -8 -7 -6 -5 -6 -6 -7 1 3 2 2 -0 0 1 1 1 1 -0 -4 -3 -3 -1 -2 -4 -4 -4 -4 -3 -3 -3
-13 -15 -16 -17 -18 -18 -18 -16 -6 -0 2 4 3 1 -8 -9 -2 -3 -2 -3 -2 -4 2 3 2 0 0 1 1 1 3 1 1 -3 -3 -1 -0 -2 -4 -4 -3 -3 -3 -3 -1
-12 -13 -14 -16 -18 -17 -15 -7 -1 0 3 -2 -2 -2 -4 -2 -1 -2 -1 -1 2 1 3 1 2 3 2 0 -0 0 -0 1 -0 -1 0 1 -1 -3 -4 -3 -3 -4 -4 -2 4
-8 -11 -12 -15 -16 -12 -11 -2 -0 3 3 -0 -2 -0 -4 -1 -3 -0 2 -0 2 3 2 2 4 1 -0 0 1 2 3 3 1 -0 -1 -1 -0 -2 -3 -1 3 4 3 4 4
-7 -10 -10 -11 -11 -11 -7 -2 4 4 3 1 -1 1 1 -2 -0 -5 1 2 2 3 3 4 2 1 1 1 2 2 3 3 3 0 -0 1 1 -1 -1 3 4 3 3 3 3
-7 -7 -8 -8 -5 -7 -0 -3 3 4 -1 -2 3 3 2 1 2 -6 -7 1 -0 3 2 3 1 1 2 3 2 4 1 1 1 2 3 0 4 2 2 3 3 3 3 2 1
-6 -6 -5 -6 -2 -1 2 2 4 3 -11 -4 3 2 2 1 0 2 -2 0 1 1 0 1 1 1 2 1 0 2 -0 1 2 3 3 3 3 1 2 3 4 3 2 1 0
-3 -5 -6 -4 -6 -7 2 4 3 -4 -14 -1 3 3 3 3 1 2 -0 -0 -0 0 0 0 -0 -1 -0 -0 -1 1 2 1 2 2 5 2 2 1 3 3 3 1 0 -0 0
-2 -2 -5 -4 -9 -1 3 4 2 -3 -11 -3 4 4 3 3 1 2 1 1 2 3 3 1 1 0 0 2 2 1 3 5 4 4 5 1 2 3 3 2 2 1 0 0 0
-2 -3 -4 -4 -7 -4 4 4 3 -6 -5 -5 1 3 4 2 1 1 2 2 0 1 3 3 1 2 1 1 3 2 2 5 6 4 2 1 3 4 2 1 1 1 -0 -0 -0
-1 -3 -3 -4 -5 -2 3 4 0 -1 -2 -4 -9 -2 2 1 -1 1 3 2 1 0 1 3 3 1 2 1 1 3 4 2 5 4 5 2 3 3 2 1 1 1 0 -0 -1
-2 -2 -1 -4 -1 1 3 2 1 -2 -3 -1 -6 -6 -5 -2 2 2 2 0 1 -0 -2 0 2 0 1 0 1 1 0 4 5 6 5 2 2 3 3 2 1 1 -0 -1 -2
-2 -0 -1 -2 1 2 2 1 -2 -2 -2 -2 -0 1 1 0 0 1 1 -1 -1 -0 -1 0 1 2 2 3 3 3 3 3 3 4 4 5 3 -1 2 1 1 -0 -0 -1 -2
-1 1 -1 1 2 1 2 0 -2 -2 -2 -1 1 1 0 1 1 0 1 -0 -0 0 2 1 2 3 3 1 1 2 3 3 5 4 3 1 2 1 1 1 1 1 -1 -2 -3
-0 -0 -0 2 2 2 1 0 -1 -0 -1 0 0 1 1 1 2 1 -0 -0 -0 2 3 4 4 5 3 2 2 3 3 2 2 3 5 3 2 1 1 2 1 -0 -2 -3 -4
-0 -0 -1 1 1 -1 1 2 2 0 -0 1 1 0 0 1 1 2 1 1 0 1 3 3 3 3 2 0 2 4 4 4 4 6 4 2 4 2 3 2 -2 -3 -4 -4 -5
-0 -0 -1 -0 0 1 0 -0 1 1 1 1 3 2 2 3 2 2 1 1 -1 0 4 3 3 4 3 3 3 3 3 3 6 5 5 3 2 2 2 -1 -3 -4 -4 -5 -5
-1 -1 -1 -2 -1 1 -0 1 0 -0 -0 2 2 1 1 3 1 0 0 1 2 2 3 1 2 3 3 2 3 4 3 3 4 5 5 3 3 1 -2 -3 -4 -4 -5 -5 -5
-1 -1 -3 -2 -2 0 0 -1 -2 -1 -1 -1 -1 2 3 1 0 0 1 0 1 2 1 2 2 3 3 2 2 4 2 1 -1 -1 1 3 1 -2 -2 -3 -3 -4 -5 -6 -6

GFSSW_850_dewp_123.txt.gz
Dewpoint
10 10 9 8 8 7 6 5 4 3 1 -2 -5 -10 -14 -16 -18 -19 -17 -13 -9 -5 -4 -0 -3 0 -2 -4 -4 -5 -2 1 -1 -2 -2 -4 -3 -2 -3 -4 -2 -5 -4 -3 -3
10 10 9 9 8 7 6 5 3 -0 -3 -7 -11 -14 -15 -16 -18 -19 -6 -2 -7 -5 1 2 3 2 -1 -4 -4 -4 -1 -1 -4 -4 -4 -2 -2 -2 -2 -2 -2 -3 -3 -3 -4
10 9 9 8 7 6 4 2 -1 -5 -9 -12 -14 -16 -15 -16 -18 -6 -0 -1 1 1 1 3 2 1 -1 -3 -4 -4 -2 -4 -5 -4 -1 -1 -1 -2 -2 -2 -3 -2 -3 -3 -2
9 8 8 8 7 5 2 -2 -6 -11 -13 -15 -15 -16 -16 -15 -17 -2 -3 -1 1 1 1 -0 -1 -2 -2 -2 -3 -3 -4 -4 -1 -1 -1 -1 -1 -2 -3 -3 -3 -3 -3 -5 -5
8 8 7 6 5 2 -1 -6 -11 -14 -15 -16 -16 -16 -16 -10 -17 -15 -4 -2 -0 0 1 1 0 -2 -1 -1 -0 -0 -1 -0 -0 -1 -1 -1 -2 -2 -3 -3 -3 -4 -5 -7 -7
7 7 6 4 1 -3 -8 -12 -15 -16 -16 -16 -16 -16 -14 -4 -15 -14 -12 -4 -2 -0 0 0 1 0 0 0 0 -0 -0 -1 -1 -1 -1 -2 -3 -3 -3 -4 -4 -6 -6 -6 -5
5 4 1 -1 -5 -9 -13 -15 -16 -16 -16 -16 -16 -15 -12 -16 -17 -14 -10 -9 -7 -4 -4 -1 0 -0 -0 -0 -1 -1 -0 -1 -3 -3 -3 -3 -6 -4 -3 -3 -4 -5 -4 -4 -2
0 -1 -4 -8 -12 -15 -16 -17 -17 -17 -16 -15 -14 -12 -12 -17 -15 -13 -11 -9 -5 -3 1 3 -0 0 -0 -1 -1 -0 -1 -3 -4 -3 -3 -4 -4 -5 -3 -4 -4 -4 -4 -3 -0
-2 -4 -9 -13 -15 -16 -17 -17 -17 -15 -14 -9 -5 -6 -8 -11 -10 -8 -13 -8 -7 -8 -3 3 2 1 -1 0 0 0 -4 0 -2 -4 -3 -3 -1 -3 -4 -3 -3 -3 -3 -2 2
-2 -8 -11 -14 -16 -16 -16 -15 -11 -5 -2 -4 0 -1 -11 -11 -4 -3 -1 -2 -2 -3 1 3 1 1 0 1 -5 -4 0 1 -1 -3 -2 -1 -1 -2 -3 -3 -1 2 1 3 3
-1 -5 -9 -13 -15 -16 -14 -6 -4 -0 1 -7 -4 -6 -4 -3 -2 -0 0 1 -2 0 2 1 3 3 2 1 -2 -1 -1 1 0 -1 0 1 -0 -2 -2 4 3 4 4 4 3
2 -2 -8 -12 -14 -14 -11 -5 -2 3 2 -5 -5 -4 -4 -2 -2 -0 1 -1 1 1 1 2 4 2 -0 0 1 1 2 2 1 -0 -0 -0 0 1 3 4 3 3 3 3 2
2 -2 -8 -10 -13 -12 -10 -5 3 3 3 -1 -2 -2 -2 -5 -3 -4 1 1 2 3 3 2 -1 1 1 1 2 2 3 3 3 1 -1 0 0 3 2 3 3 3 2 2 1
2 -3 -7 -8 -8 -11 -6 -8 3 3 -0 -4 3 2 1 -2 -2 -7 -1 1 1 2 3 3 1 1 2 3 2 4 1 2 2 2 3 0 3 2 2 2 2 2 1 0 0
-2 -4 -5 -7 -7 -1 0 -4 3 3 -8 -3 3 2 2 -1 1 2 -3 1 1 2 1 0 1 2 2 1 1 1 -0 1 1 3 3 2 4 3 1 2 3 2 1 0 0
-3 -5 -5 -6 -6 -1 3 3 3 -2 -10 -0 3 3 3 3 2 0 -1 -1 -1 0 0 -1 -1 -1 -0 0 -1 0 1 2 2 3 5 2 2 2 2 1 2 1 1 0 0
-1 -2 -4 -6 -9 -1 3 4 2 -2 -12 -1 3 4 3 3 2 0 1 1 2 3 3 1 1 -0 -0 2 1 1 3 3 5 5 4 1 3 1 2 1 1 1 1 0 -0
-1 -1 -1 -3 -7 -0 4 4 2 -9 -7 -6 2 4 3 2 1 2 1 2 0 -0 2 3 0 1 -0 -0 1 2 1 2 4 4 2 1 3 1 1 1 0 1 1 0 -1
-1 -1 -1 -2 -3 -1 3 3 0 -2 -3 -6 -3 2 3 2 0 2 0 1 0 0 -1 3 1 1 1 0 -0 3 4 1 4 4 5 2 1 2 1 1 1 1 1 -0 -2
-1 0 -0 -2 -2 -0 2 1 0 -3 -3 -2 -9 -6 -3 0 1 2 3 1 0 -0 -2 0 2 1 1 0 0 2 1 5 6 6 5 1 1 3 4 3 2 2 1 -1 -1
-0 -0 -2 -4 -2 1 2 1 -2 -2 -2 -2 -1 1 1 -2 1 2 1 -1 -0 0 -1 -0 1 2 2 3 3 3 3 3 3 4 4 1 2 2 3 1 1 1 0 -1 -2
-0 0 -1 -2 1 -0 1 -1 -3 -2 -4 -2 -0 1 0 0 1 0 1 -1 -1 -0 2 1 2 3 2 2 0 1 2 3 5 5 5 4 3 1 1 0 0 0 0 -1 -2
-0 -1 0 1 1 0 -2 -2 -2 -1 -2 -1 -0 1 1 1 1 1 -0 -1 0 1 2 3 4 5 4 4 3 4 3 3 4 4 4 5 1 1 1 1 1 1 -0 -2 -4
-1 0 -0 1 -0 -0 -1 -1 -0 -2 -1 -1 1 -0 1 1 1 2 1 0 0 1 3 2 4 3 4 3 3 5 4 3 4 5 4 3 1 3 2 2 1 0 -2 -4 -4
-1 0 -1 0 1 -0 -0 -0 -0 -0 -1 -1 -0 1 1 2 1 1 0 -0 -0 -0 3 3 3 3 2 1 1 1 1 2 4 3 4 1 2 1 2 2 1 -2 -4 -4 -5
-1 -1 -1 -1 -1 -0 -1 -1 -2 -1 -0 3 2 1 1 2 1 0 1 1 1 2 4 2 3 2 3 2 3 3 2 2 2 2 3 3 4 1 1 2 -2 -3 -4 -4 -5
-0 -1 -2 -1 -1 1 1 -2 -1 -2 -2 -1 1 1 2 1 0 0 0 0 0 2 2 3 3 4 3 1 3 5 2 1 1 1 1 3 2 0 -0 -1 -2 -3 -4 -5 -5

GFSSW_850_dewp_126.txt.gz
Dewpoint
9 9 10 9 9 8 8 7 6 5 3 1 -3 -6 -11 -15 -19 -21 -11 -12 -11 -12 -12 -5 -3 -0 -3 -2 -4 -4 -1 -3 -2 -1 -2 -4 -3 -3 -2 -3 -2 -3 -3 -2 -2
9 9 10 9 9 9 8 7 6 4 1 -2 -6 -11 -16 -17 -19 -20 -12 -4 -7 -6 -2 -1 -1 1 -2 -3 -3 -3 -2 -3 -3 -3 -3 -3 -2 -2 -4 -4 -3 -3 -3 -2 -2
9 9 9 9 8 8 8 7 6 3 -2 -7 -12 -16 -17 -16 -14 -5 -2 -5 -4 -1 1 2 1 1 0 -1 -3 -3 -3 -3 -4 -3 -2 -3 -3 -2 -3 -5 -6 -3 -4 -3 -4
9 9 9 9 8 8 7 5 3 -1 -6 -12 -15 -16 -16 -16 -16 -6 -2 -0 1 1 1 0 1 -0 -2 -3 -3 -3 -5 -5 -4 -2 -2 -3 -3 -4 -6 -6 -6 -4 -4 -5 -5
9 9 8 8 7 7 6 3 0 -6 -12 -15 -16 -16 -16 -6 -11 -18 -9 -2 0 1 1 0 -1 -3 -6 -6 -4 -4 -4 -2 -2 -2 -2 -3 -4 -5 -7 -4 -4 -4 -5 -5 -4
9 8 8 7 7 5 3 -1 -7 -12 -15 -16 -16 -16 -11 -8 -15 -17 -16 -6 -1 1 0 -1 -1 -2 -3 -3 -2 -1 -1 -2 -3 -5 -4 -4 -7 -5 -5 -4 -3 -4 -5 -5 -0
8 8 7 6 4 1 -4 -7 -12 -15 -16 -16 -16 -15 -10 -9 -17 -16 -13 -10 -5 -2 -1 -1 -1 -3 -1 -1 -1 -2 -2 -5 -6 -6 -5 -5 -7 -5 -4 -4 -5 -5 -5 -3 2
6 5 4 2 -0 -4 -9 -13 -15 -16 -16 -16 -16 -13 -5 -16 -17 -14 -11 -9 -6 -5 -1 1 1 -1 -1 -1 -2 -3 -3 -8 -5 -5 -4 -7 -12 -7 -4 -5 -5 -5 -3 0 3
1 1 -0 -2 -5 -10 -14 -15 -15 -16 -15 -14 -8 -4 -5 -10 -10 -10 -11 -4 -5 -4 1 3 1 -1 -1 -3 -3 -2 -10 -6 -7 -7 -6 -7 -7 -9 -6 -5 -3 -1 -0 2 2
-0 -1 -1 -5 -10 -13 -14 -15 -13 -13 -11 -9 1 -3 -9 -8 -2 -3 -4 -1 0 -2 0 0 -0 -1 -2 -2 -9 -11 -6 -4 -8 -6 -5 -5 -6 -6 -5 -3 1 1 3 2 2
-0 0 -3 -4 -11 -13 -12 -7 0 2 1 -6 -2 -5 -3 -1 -2 2 1 2 -1 -3 -4 0 -1 -3 -7 -4 -5 -5 -6 -6 -7 -5 -2 -4 -4 -4 -3 1 2 3 3 3 2
2 0 -2 -6 -9 -11 -6 2 -1 2 -3 -2 -4 -2 -5 -2 -0 1 1 -1 -2 -5 -2 1 -1 -6 -1 -1 -1 -3 -3 -4 -5 -3 -1 -4 -3 -2 2 3 3 2 2 2 2
2 -0 -1 -7 -9 -9 -5 1 -3 -3 -2 -5 -2 -2 -2 -4 -7 -3 2 -1 -3 -4 -2 -7 -5 -2 -0 -1 -2 -2 -2 -4 -3 -2 -3 -1 -3 2 2 2 2 2 2 2 2
2 2 -4 -7 -5 0 1 -7 -3 -5 -4 -9 -1 -0 0 -3 -5 -6 1 -3 -1 -5 -3 -3 -5 -2 -1 -3 -2 -4 -4 -2 -1 -1 -2 -1 -3 -1 1 2 1 1 2 2 2
1 2 -2 -7 -2 1 -4 -8 0 0 -6 -7 -0 2 2 -7 -2 -2 -2 -0 -4 -1 -1 -3 0 -0 -1 -3 -1 -4 -2 -1 -1 0 1 -2 1 -3 -0 1 1 1 1 2 2
1 0 -2 -2 -1 1 -1 -4 3 -1 -7 -2 1 2 2 -1 1 0 -3 -1 -4 -1 -1 -5 -2 -3 -4 -1 -1 -2 -0 1 1 0 1 -3 -1 -6 0 -1 0 0 1 1 1
-1 -2 -6 -3 -4 3 2 3 2 -1 -15 -3 1 2 1 -1 2 -1 -2 -2 -1 1 1 -2 -1 -3 -2 -1 -0 -1 0 1 -0 2 -2 -1 -0 -3 -1 -1 -0 1 1 1 1
-1 -2 -4 -6 -6 2 4 4 1 -14 -14 -6 -0 2 1 -1 1 -0 -1 -2 -2 -2 -2 1 1 -1 -2 -3 -2 0 -0 -1 -1 -3 -3 -1 1 0 -0 -0 0 0 1 1 1
-0 -1 -1 -3 -5 1 3 4 -7 -13 -13 -9 1 1 1 -0 -1 1 0 -1 -2 -2 -5 -2 -5 -2 -1 -2 -2 1 3 -2 -0 -1 4 -3 -4 2 1 1 1 1 1 1 0
1 1 1 -2 -2 1 2 0 -5 -7 -6 -7 -5 -3 -3 -0 -0 0 1 -2 -3 -3 -4 -3 -4 -2 1 -0 -1 0 -1 5 3 3 3 -3 -3 0 4 4 2 2 1 1 0
1 0 0 -1 -2 0 2 -1 -5 -4 -3 -3 -8 -6 -7 -2 -2 -1 -2 -2 -1 -1 -3 -4 -2 0 2 2 -0 2 3 2 1 2 2 0 -1 5 6 3 2 1 2 1 1
-0 1 0 -1 0 -1 1 -3 -7 -6 -4 -3 -1 -1 -3 -2 -2 -1 -3 -4 -1 -0 1 -1 -0 -1 0 -3 -2 -2 -2 0 5 4 5 5 3 -1 -1 0 0 0 1 1 0
-0 0 0 -1 1 0 -3 -3 -4 -5 -4 -4 -2 -2 -2 -2 -1 -2 -1 0 0 -2 1 1 4 3 0 1 1 1 -1 -1 1 2 5 6 1 -0 -1 -0 -0 0 1 1 -1
-0 1 0 1 -4 -4 -3 -4 -4 -4 -3 -2 -1 -2 -2 -2 -2 -3 -2 0 1 1 2 1 -0 2 1 0 3 7 4 2 3 7 3 2 -1 -3 1 1 0 1 1 -1 -2
-1 1 0 1 1 -4 -4 -5 -5 -3 -4 -4 -1 -1 -1 -1 -2 -1 -3 -3 -3 -2 -1 -1 0 -3 -3 -3 -2 1 1 -0 1 2 4 1 -1 -4 -5 -1 1 1 1 -1 -3
-1 0 -0 0 -3 -3 -3 -2 -5 -6 -4 -3 -3 -4 -4 -2 -4 -4 -3 -2 -2 -2 0 0 -0 -2 -2 -4 -4 -3 -3 -4 -3 -3 -2 -2 -0 -4 -4 -1 1 1 -0 -2 -3
-1 -1 -3 -1 -1 -0 -1 -3 -4 -4 -3 -5 -3 -1 -1 -1 -3 -3 -1 -1 -1 -0 -0 1 1 1 1 -3 -1 2 -1 -2 -3 -4 -2 -0 -3 -6 -3 0 2 2 -1 -2 -3

GFSSW_850_dewp_129.txt.gz
Dewpoint
8 9 9 9 9 9 9 8 8 7 7 5 3 0 -5 -11 -17 -8 -6 -7 -8 -15 -21 -9 -7 -5 -5 -6 -4 -4 -2 -5 -5 -6 -2 -4 -4 -3 -2 -3 -2 -3 -3 -2 -2
9 9 9 9 9 9 9 8 8 7 6 4 1 -2 -10 -16 -19 -6 -7 -12 -8 -9 -9 -5 -5 -3 -4 -4 -4 -5 -5 -4 -4 -5 -6 -4 -3 -4 -4 -4 -4 -3 -3 -3 -3
9 9 9 9 9 9 8 8 7 6 5 2 -2 -6 -14 -17 -5 -8 -5 -8 -7 -10 -2 -2 -0 -0 -2 -4 -5 -5 -4 -4 -5 -5 -4 -6 -6 -6 -6 -7 -7 -5 -4 -4 -5
9 9 8 8 9 9 8 7 7 5 3 -1 -6 -12 -16 -17 -9 -1 -5 -3 -1 -0 -0 -1 -1 -2 -4 -4 -4 -4 -8 -7 -9 -4 -5 -6 -6 -6 -8 -8 -8 -6 -5 -6 -6
10 9 9 9 8 8 7 7 6 4 -0 -6 -11 -15 -16 -5 -7 -7 -15 -5 -1 1 -1 -3 -3 -4 -5 -9 -8 -7 -11 -6 -6 -4 -4 -5 -5 -6 -8 -8 -6 -6 -6 -6 -3
9 10 9 9 8 8 7 6 5 -0 -5 -10 -15 -16 -3 -4 -6 -5 -12 -4 -1 -1 -3 -4 -5 -4 -6 -7 -7 -3 -4 -4 -5 -6 -7 -6 -8 -8 -9 -6 -6 -5 -6 -3 1
9 9 8 8 7 7 6 4 0 -6 -11 -14 -16 -16 -2 -6 -7 -3 -9 -5 -4 -3 -3 -4 -3 -4 -7 -5 -4 -4 -4 -8 -8 -8 -7 -6 -8 -9 -7 -5 -7 -7 -6 -1 2
6 7 8 8 7 5 3 -1 -6 -12 -15 -16 -16 -3 -2 -6 -6 -3 -3 -3 -2 -3 -3 -3 -3 -5 -4 -4 -4 -6 -5 -6 -10 -7 -6 -8 -11 -8 -6 -6 -7 -6 -4 1 2
4 3 3 5 4 1 -3 -8 -11 -15 -16 -16 -10 2 -4 -5 -7 -7 -5 -4 -3 -3 -1 -1 -2 -4 -3 -3 -5 -4 -7 -7 -7 -8 -10 -8 -10 -10 -9 -8 -7 -4 -2 1 1
3 3 2 -1 -2 -3 -9 -12 -14 -15 -7 -2 1 -0 -4 -9 -5 -3 -3 -5 -4 -5 -2 -2 -3 -3 -3 -5 -4 -7 -4 -8 -8 -8 -7 -7 -7 -10 -10 -7 -3 -1 1 1 1
3 3 2 -1 -3 -7 -11 -4 0 2 0 -5 -5 -7 -6 -4 -2 -0 -0 -4 -3 -5 -3 -3 -2 -2 -5 -6 -6 -7 -7 -9 -11 -12 -6 -4 -5 -8 -9 -4 -1 0 1 2 2
3 2 0 -1 -2 -9 -10 1 -3 3 -2 -2 -3 -5 -5 -0 -3 -2 -0 -2 -3 -4 -7 -2 -1 -7 -9 -5 -5 -4 -6 -7 -8 -8 -4 -4 -6 -8 -5 -2 0 0 1 1 2
2 3 2 1 -5 -9 -10 -0 0 2 -4 -9 -9 -6 -7 -5 -6 -5 -0 -2 -4 -5 -6 -2 -7 -7 -7 -3 -3 -5 -5 -6 -6 -7 -6 -5 -4 -5 -1 1 1 1 1 1 1
3 2 2 1 -3 -0 0 -3 1 -3 -2 -8 -8 -4 -6 -5 -6 -11 -1 -4 -4 -5 -9 -5 -7 -6 -6 -4 -5 -4 -8 -4 -4 -5 -4 -3 -0 -5 -1 2 1 0 1 1 1
3 1 1 -1 1 -1 -0 -3 2 -1 3 -8 -4 -2 -3 -6 -10 -10 -8 -3 -5 -6 -8 -6 -5 -5 -4 -6 -7 -5 -4 -4 -5 -3 -3 -4 -3 -5 -6 1 0 -0 1 1 2
3 2 2 0 -1 1 2 0 3 3 2 -4 -2 -2 -0 -3 -8 -3 -9 -4 -5 -5 -5 -5 -5 -4 -5 -6 -5 -4 -3 -3 -3 -2 1 -3 -4 -6 -6 -2 -3 -2 0 1 1
3 2 2 0 -1 3 -0 3 3 0 -7 -6 -1 -2 -2 -2 -5 -1 -5 -2 -3 -3 -2 -1 -3 -5 -5 -2 -3 -2 -2 1 2 2 3 -3 -3 -5 -3 -4 -5 -1 -0 1 1
3 2 2 -0 1 1 1 3 1 -4 -6 -8 -5 -2 -1 -3 -2 -1 -3 -3 -5 -6 -5 -1 -2 -4 -4 -4 -2 -2 -2 -1 -2 -2 -5 -3 -0 -2 -3 -2 -1 -1 0 1 2
2 2 2 -1 -0 -0 3 3 -1 -5 -9 -9 -4 -0 -1 -3 -3 -1 -1 -3 -5 -5 -3 -2 -3 -5 -4 -5 -6 -3 1 -4 -1 -2 0 -3 -6 -0 -0 1 0 0 1 2 2
3 2 1 1 -0 2 3 2 -3 -8 -11 -13 -9 -4 -3 -1 -2 0 -1 -3 -4 -5 -4 -5 -3 -5 -2 -4 -4 -4 -4 1 1 2 1 -4 -4 -1 4 4 2 1 1 2 1
2 1 0 1 1 2 3 1 -3 -7 -10 -8 -10 -6 -6 -3 -2 0 -2 -3 -4 -4 -4 -5 -5 -2 -0 -1 -5 -3 0 -1 -1 -0 0 -0 -0 1 4 2 3 1 1 2 1
0 0 -0 1 1 1 3 -1 -5 -5 -6 -4 -3 -5 -10 -5 -3 -3 -3 -3 -3 -3 -2 -4 -3 -4 -1 -4 -5 -6 -2 -2 5 3 3 3 4 -3 -2 -1 -1 -0 1 2 2
-1 -0 1 1 1 2 -2 -3 -5 -4 -6 -5 -4 -3 -3 -5 -5 -6 -6 -1 -1 -2 -1 -2 2 1 -3 -5 -2 -0 -4 -1 -0 1 3 4 3 -2 -3 -4 -3 -2 -0 2 1
-1 1 1 0 1 -3 -3 -3 -3 -5 -5 -5 -6 -6 -4 -2 -4 -6 -5 -1 -0 -0 -1 0 1 -2 -2 -2 3 5 1 -2 -2 5 5 4 1 -2 -0 -1 -2 -1 0 1 1
-1 0 1 1 1 1 -3 -4 -4 -4 -3 -1 1 -3 -4 -3 -5 -5 -6 -3 -1 -1 -3 1 1 -3 -4 -3 2 3 4 2 2 3 7 4 1 0 -2 -3 -0 -1 1 1 -0
-1 -0 -0 -1 -2 -0 -3 -4 -7 -8 -7 -3 -2 -3 -4 -1 -4 -4 -3 -3 -4 -4 -4 -0 3 1 1 -1 -5 -4 -6 -5 -5 -2 -0 -0 1 -3 -5 -7 -7 -0 1 0 -0
-1 -0 0 1 -1 -0 -1 -5 -6 -8 -9 -7 -6 -6 -5 -4 -7 -7 -6 -3 -3 -2 -1 -0 1 1 3 -3 -3 -1 -5 -6 -6 -8 -7 -3 -6 -8 -8 -7 -4 -1 1 0 -1

GFSSW_850_dewp_132.txt.gz
Dewpoint
8 7 7 8 8 9 9 9 8 8 8 7 6 5 3 -0 -0 -6 -4 -6 -7 -6 -20 -24 -7 -8 -6 -7 -7 -6 -3 -2 -4 -6 -2 -4 -5 -4 -2 -3 -3 -3 -1 -2 -2
8 8 8 9 9 9 9 9 8 8 7 6 6 4 1 -5 -4 -4 -4 -7 -9 -17 -16 -4 -7 -7 -5 -6 -6 -6 -4 -4 -5 -5 -5 -5 -5 -5 -5 -4 -4 -3 -2 -3 -3
9 9 9 9 9 9 9 9 8 8 7 6 5 3 -2 -10 -5 1 -8 -8 -10 -7 -5 -2 -3 -2 -2 -4 -6 -6 -4 -5 -5 -3 -6 -7 -6 -8 -7 -8 -8 -5 -4 -4 -5
9 9 9 9 9 8 8 8 7 7 7 6 4 -0 -5 -12 -3 -2 -12 -12 -7 -3 0 -2 -2 -2 -3 -3 -5 -4 -6 -8 -8 -5 -7 -8 -8 -8 -7 -8 -8 -6 -5 -6 -4
9 10 10 9 9 9 8 8 7 6 6 5 2 -5 -9 -3 -3 -4 -6 -9 -15 -1 -1 -3 -4 -4 -3 -7 -7 -6 -8 -10 -7 -7 -5 -6 -7 -6 -7 -9 -7 -7 -7 -4 0
10 10 9 10 10 9 8 8 7 6 5 2 -2 -10 -9 -2 -4 -4 -5 -5 -4 -2 -3 -4 -5 -5 -6 -7 -9 -9 -5 -8 -6 -6 -6 -6 -7 -8 -9 -8 -8 -7 -5 1 2
10 10 10 9 10 9 8 7 7 5 3 -1 -8 -15 -2 -3 -5 -6 -3 -6 -6 -5 -3 -3 -5 -4 -7 -9 -7 -6 -4 -5 -7 -8 -8 -7 -6 -8 -9 -7 -6 -7 -4 1 2
8 8 8 9 9 8 8 7 6 2 -3 -9 -14 -15 -2 -7 -6 -6 -6 -4 -5 -3 -4 -3 -4 -4 -5 -6 -4 -4 -6 -5 -10 -9 -8 -8 -9 -11 -7 -5 -7 -8 -5 2 2
4 5 5 6 6 6 5 4 2 -4 -10 -14 -15 1 -1 -4 -5 -6 -6 -5 -5 -4 -5 -4 -3 -4 -6 -4 -4 -5 -6 -6 -8 -9 -7 -7 -8 -7 -7 -6 -7 -8 -5 1 1
3 4 3 4 4 2 -0 -4 -8 -11 -10 -7 -0 -2 -2 -6 -8 -6 -6 -6 -6 -4 -4 -2 -3 -4 -5 -3 -3 -7 -5 -6 -8 -7 -9 -8 -8 -10 -10 -10 -8 -5 -1 1 1
4 4 3 3 4 1 -3 -9 1 4 1 -1 -3 -5 -9 -7 -4 -3 -3 -6 -6 -5 -4 -4 -3 -3 -5 -4 -5 -9 -7 -7 -9 -10 -7 -6 -7 -7 -7 -10 -5 -2 -0 1 2
3 3 3 3 3 1 -6 -7 -0 2 2 1 -1 -4 -5 -4 -2 -4 -2 -4 -6 -4 -6 -5 -1 -5 -7 -7 -6 -6 -5 -5 -8 -11 -10 -7 -6 -7 -8 -10 -5 -2 1 1 2
3 3 3 2 1 -1 -5 -4 -1 -1 -2 -3 -5 -5 -4 -7 -6 -6 -1 -4 -4 -3 -5 -5 -5 -6 -6 -7 -5 -5 -3 -5 -7 -9 -7 -5 -4 -6 -8 -7 -0 0 0 1 1
3 3 2 3 2 -0 -0 -1 1 -10 0 -0 -6 -8 -8 -7 -8 -8 -2 -3 -3 -3 -5 -6 -8 -6 -6 -6 -7 -3 -7 -8 -7 -5 -3 -8 -1 -6 -3 -1 0 0 1 1 1
4 3 3 1 2 0 1 1 1 -3 6 -3 -3 -6 -6 -8 -9 -8 -9 -2 -3 -4 -5 -5 -8 -6 -5 -6 -8 -5 -7 -5 -6 -3 -4 -5 -4 -6 -8 1 1 -0 1 1 2
4 3 3 2 1 1 2 1 -1 3 5 -2 -4 -4 -4 -7 -7 -9 -11 -4 -4 -4 -5 -7 -10 -8 -7 -7 -8 -9 -3 -3 -4 -3 2 -3 -3 -4 -6 -3 0 -1 0 1 2
3 4 3 2 1 2 1 0 3 5 -4 -3 -2 -3 -3 -3 -4 -6 -8 -7 -3 -0 -1 -5 -6 -7 -6 -4 -6 -5 -1 2 1 1 2 -4 -3 -3 -4 -2 -1 -0 1 2 2
3 4 3 2 1 0 2 3 3 -3 -3 -8 -6 -3 -2 -3 -3 -5 -2 -7 -5 -4 -4 -2 -1 -4 -5 -4 -3 -2 -1 0 1 2 -1 -6 -0 -3 -3 -3 -2 -1 0 2 2
2 3 2 2 1 1 2 4 -1 -4 -7 -6 -7 -3 -1 -3 -4 -5 -2 -2 -7 -5 -2 -3 -4 -7 -6 -6 -5 -2 -0 -3 -0 -0 2 -2 -4 -1 -0 1 -1 -0 1 2 2
-0 1 2 2 2 2 3 2 -1 -5 -6 -7 -3 -4 -1 -2 -3 -3 -1 -2 -4 -6 -5 -5 -1 -6 -6 -6 -5 -4 -4 3 3 3 3 -2 -3 -0 3 4 2 2 2 2 2
-1 -0 0 2 2 2 3 1 -1 -4 -7 -6 -6 -7 -6 -3 -3 -2 -1 -3 -4 -6 -6 -5 -1 -2 -3 -2 -2 -3 -2 -2 0 1 0 1 3 2 4 3 2 2 2 3 2
-1 -1 -1 1 2 1 2 0 -3 -4 -4 -4 -3 -3 -4 -5 -4 -1 -2 -2 -5 -4 -3 -4 -2 -0 -2 -4 -6 -6 -4 -2 5 4 4 4 4 2 3 1 -0 -0 1 3 2
-1 -1 -2 0 2 2 -1 -2 -2 -4 -5 0 -1 -4 -3 -3 -3 -1 1 1 -0 -3 -1 -1 3 3 -2 -2 -4 -3 -5 -3 -0 2 4 5 3 -3 -4 -2 -2 -1 -0 2 2
-2 0 -1 -0 1 2 -0 -2 -2 -3 -4 -1 -0 -1 -4 -2 -3 -3 3 2 -0 0 -1 1 0 1 1 -2 -2 1 -1 -0 1 5 5 3 2 -0 -0 0 1 0 1 2 2
-2 -1 -2 1 0 1 -1 -3 -2 -2 -4 -3 2 1 0 -1 -4 -2 -1 1 -1 -1 -2 1 2 -1 -3 -5 -5 0 3 4 5 5 7 4 2 0 -0 2 2 1 -0 2 1
-2 -1 -0 -2 -0 1 -1 -1 -3 -3 -4 -2 1 -1 -2 -0 2 3 1 0 -2 -3 -2 -1 1 -1 -0 -2 -1 1 5 3 2 2 2 2 1 -1 -3 -4 1 1 0 1 1
-2 -2 -1 -1 -1 1 1 -0 -2 -4 -5 -5 -2 -1 -2 -3 -2 -1 0 0 -1 -0 0 0 1 0 2 -2 1 3 2 0 -1 -4 -5 -3 -4 -7 -6 -6 -6 -0 0 1 0